[[{"header":{"parameterUnit":"m.s-1","parameterCategory":1,"la1":30.6,"la2":28.766,"lo1":-90.7593,"lo2":-88.6598,"dy":0.0162,"dx":0.0183,"nx":116,"ny":114,"refTime":"2023-03-15T12:00:00:Z","depth":0,"parameterNumber":2,"parameterNumberName":"U-component_of_WINDS"},"data":[0.0,0.0,0.0,0.0,0.0,0.0,0.0,0.0,0.0,0.0,0.0,0.0,0.0,0.0,0.0,0.0,0.0,0.0,0.0,0.0,0.0,0.0,0.0,0.0,0.0,0.0,0.0,0.0,0.0,0.0,0.0,0.0,0.0,0.0,0.0,0.0,0.0,0.0,0.0,0.0,0.0,0.0,0.0,0.0,0.0,0.0,0.0,0.0,0.0,0.0,0.0,0.0,0.0,0.0,0.0,0.0,0.0,0.0,0.0,0.0,0.0,0.0,0.0,0.0,0.0,0.0,0.0,0.0,0.0,0.0,0.0,0.0,0.0,0.0,0.0,0.0,0.0,0.0,0.0,0.0,0.0,0.0,0.0,0.0,0.0,0.0,0.0,0.0,0.0,0.0,0.0,0.0,0.0,0.0,0.0,0.0,0.0,0.0,0.0,0.0,0.0,0.0,0.0,0.0,0.0,0.0,0.0,0.0,0.0,0.0,0.0,0.0,0.0,0.0,0.0,0.0,0.0,0.0,0.0,0.0,0.0,0.0,0.0,0.0,0.0,0.0,0.0,0.0,0.0,0.0,0.0,0.0,0.0,0.0,0.0,0.0,0.0,0.0,0.0,0.0,0.0,0.0,0.0,0.0,0.0,0.0,0.0,0.0,0.0,0.0,0.0,0.0,0.0,0.0,0.0,0.0,0.0,0.0,0.0,0.0,0.0,0.0,0.0,0.0,0.0,0.0,0.0,0.0,0.0,0.0,0.0,0.0,0.0,0.0,0.0,0.0,0.0,0.0,0.0,0.0,0.0,0.0,0.0,0.0,0.0,0.0,0.0,0.0,0.0,0.0,0.0,0.0,0.0,0.0,0.0,0.0,0.0,0.0,0.0,0.0,0.0,0.0,0.0,0.0,0.0,0.0,0.0,0.0,0.0,0.0,0.0,0.0,0.0,0.0,0.0,0.0,0.0,0.0,0.0,0.0,0.0,0.0,0.0,0.0,0.0,0.0,0.0,0.0,0.0,0.0,0.0,0.0,0.0,0.0,0.0,0.0,0.0,0.0,0.0,0.0,0.0,0.0,0.0,0.0,0.0,0.0,0.0,0.0,0.0,0.0,0.0,0.0,0.0,0.0,0.0,0.0,0.0,0.0,0.0,0.0,0.0,0.0,0.0,0.0,0.0,0.0,0.0,0.0,0.0,0.0,0.0,0.0,0.0,0.0,0.0,0.0,0.0,0.0,0.0,0.0,0.0,0.0,0.0,0.0,0.0,0.0,0.0,0.0,0.0,0.0,0.0,0.0,0.0,0.0,0.0,0.0,0.0,0.0,0.0,0.0,0.0,0.0,0.0,0.0,0.0,0.0,0.0,0.0,0.0,0.0,0.0,0.0,0.0,0.0,0.0,0.0,0.0,0.0,0.0,0.0,0.0,0.0,0.0,0.0,0.0,0.0,0.0,0.0,0.0,0.0,0.0,0.0,0.0,0.0,0.0,0.0,0.0,0.0,0.0,0.0,0.0,0.0,0.0,0.0,0.0,0.0,0.0,0.0,0.0,0.0,0.0,0.0,0.0,0.0,0.0,0.0,0.0,0.0,0.0,0.0,0.0,0.0,0.0,0.0,0.0,0.0,0.0,0.0,0.0,0.0,0.0,0.0,0.0,0.0,0.0,0.0,0.0,0.0,0.0,0.0,0.0,0.0,0.0,0.0,0.0,0.0,0.0,0.0,0.0,0.0,0.0,0.0,0.0,0.0,0.0,0.0,0.0,0.0,0.0,0.0,0.0,0.0,0.0,0.0,0.0,0.0,0.0,0.0,0.0,0.0,0.0,0.0,0.0,0.0,0.0,0.0,0.0,0.0,0.0,0.0,0.0,0.0,0.0,0.0,0.0,0.0,0.0,0.0,0.0,0.0,0.0,0.0,0.0,0.0,0.0,0.0,0.0,0.0,0.0,0.0,0.0,0.0,0.0,0.0,0.0,0.0,0.0,0.0,0.0,0.0,0.0,0.0,0.0,0.0,0.0,0.0,0.0,0.0,0.0,0.0,0.0,0.0,0.0,0.0,0.0,0.0,0.0,0.0,0.0,0.0,0.0,0.0,0.0,0.0,0.0,0.0,0.0,0.0,0.0,0.0,0.0,0.0,0.0,0.0,0.0,0.0,0.0,0.0,0.0,0.0,0.0,0.0,0.0,0.0,0.0,0.0,0.0,0.0,0.0,0.0,0.0,0.0,0.0,0.0,0.0,0.0,0.0,0.0,0.0,0.0,0.0,0.0,0.0,0.0,0.0,0.0,0.0,0.0,0.0,0.0,0.0,0.0,0.0,0.0,0.0,0.0,0.0,0.0,0.0,0.0,0.0,0.0,0.0,0.0,0.0,0.0,0.0,0.0,0.0,0.0,0.0,0.0,0.0,0.0,0.0,0.0,0.0,0.0,0.0,0.0,0.0,0.0,0.0,0.0,0.0,0.0,0.0,0.0,0.0,0.0,0.0,0.0,0.0,0.0,0.0,0.0,0.0,0.0,0.0,0.0,0.0,0.0,0.0,0.0,0.0,0.0,0.0,0.0,0.0,0.0,0.0,0.0,0.0,0.0,0.0,0.0,0.0,0.0,0.0,0.0,0.0,0.0,0.0,0.0,0.0,0.0,0.0,0.0,0.0,0.0,0.0,0.0,0.0,0.0,0.0,0.0,0.0,0.0,0.0,0.0,0.0,0.0,0.0,0.0,0.0,0.0,0.0,0.0,0.0,0.0,0.0,0.0,0.0,0.0,0.0,0.0,0.0,0.0,0.0,0.0,0.0,0.0,0.0,0.0,0.0,0.0,0.0,0.0,0.0,0.0,0.0,0.0,0.0,0.0,0.0,0.0,0.0,0.0,0.0,0.0,0.0,0.0,0.0,0.0,0.0,0.0,0.0,0.0,0.0,0.0,0.0,0.0,0.0,0.0,0.0,0.0,0.0,0.0,0.0,0.0,0.0,0.0,0.0,0.0,0.0,0.0,0.0,0.0,0.0,0.0,0.0,0.0,0.0,0.0,0.0,0.0,0.0,0.0,0.0,0.0,0.0,0.0,0.0,0.0,0.0,0.0,0.0,0.0,0.0,0.0,0.0,0.0,0.0,0.0,0.0,0.0,0.0,0.0,0.0,0.0,0.0,0.0,0.0,0.0,0.0,0.0,0.0,0.0,0.0,0.0,0.0,0.0,0.0,0.0,0.0,0.0,0.0,0.0,0.0,0.0,0.0,0.0,0.0,0.0,0.0,0.0,0.0,0.0,0.0,0.0,0.0,0.0,0.0,0.0,0.0,0.0,0.0,0.0,0.0,0.0,0.0,0.0,0.0,0.0,0.0,0.0,0.0,0.0,0.0,0.0,0.0,0.0,0.0,0.0,0.0,0.0,0.0,0.0,0.0,0.0,0.0,0.0,0.0,0.0,0.0,0.0,0.0,0.0,0.0,0.0,0.0,0.0,0.0,0.0,0.0,0.0,0.0,0.0,0.0,0.0,0.0,0.0,0.0,0.0,0.0,0.0,0.0,0.0,0.0,0.0,0.0,0.0,0.0,0.0,0.0,0.0,0.0,0.0,0.0,0.0,0.0,0.0,0.0,0.0,0.0,0.0,0.0,0.0,0.0,0.0,0.0,0.0,0.0,0.0,0.0,0.0,0.0,0.0,0.0,0.0,0.0,0.0,0.0,0.0,0.0,0.0,0.0,0.0,0.0,0.0,0.0,0.0,0.0,0.0,0.0,0.0,0.0,0.0,0.0,0.0,0.0,0.0,0.0,0.0,0.0,0.0,0.0,0.0,0.0,0.0,0.0,0.0,0.0,0.0,0.0,0.0,0.0,0.0,0.0,0.0,0.0,0.0,0.0,0.0,0.0,0.0,0.0,0.0,0.0,0.0,0.0,0.0,0.0,0.0,0.0,0.0,0.0,0.0,0.0,0.0,0.0,0.0,0.0,0.0,0.0,0.0,0.0,0.0,0.0,0.0,0.0,0.0,0.0,0.0,0.0,0.0,0.0,0.0,0.0,0.0,0.0,0.0,0.0,0.0,0.0,0.0,0.0,0.0,0.0,0.0,0.0,0.0,0.0,0.0,0.0,0.0,0.0,0.0,0.0,0.0,0.0,0.0,0.0,0.0,0.0,0.0,0.0,0.0,0.0,0.0,0.0,0.0,0.0,0.0,0.0,0.0,0.0,0.0,0.0,0.0,0.0,0.0,0.0,0.0,0.0,0.0,0.0,0.0,0.0,0.0,0.0,0.0,0.0,0.0,0.0,0.0,0.0,0.0,0.0,0.0,0.0,0.0,0.0,0.0,0.0,0.0,0.0,0.0,0.0,0.0,0.0,0.0,0.0,0.0,0.0,0.0,0.0,0.0,0.0,0.0,0.0,0.0,0.0,0.0,0.0,0.0,0.0,0.0,0.0,0.0,0.0,0.0,0.0,0.0,0.0,0.0,0.0,0.0,0.0,0.0,0.0,0.0,0.0,0.0,0.0,0.0,0.0,0.0,0.0,0.0,0.0,0.0,0.0,0.0,0.0,0.0,0.0,0.0,0.0,0.0,0.0,0.0,0.0,0.0,0.0,0.0,0.0,0.0,0.0,0.0,0.0,0.0,0.0,0.0,0.0,0.0,0.0,0.0,0.0,0.0,0.0,0.0,0.0,0.0,0.0,0.0,0.0,0.0,0.0,0.0,0.0,0.0,0.0,0.0,0.0,0.0,0.0,0.0,0.0,0.0,0.0,0.0,0.0,0.0,0.0,0.0,0.0,0.0,0.0,0.0,0.0,0.0,0.0,0.0,0.0,0.0,0.0,0.0,0.0,0.0,0.0,0.0,0.0,0.0,0.0,0.0,0.0,0.0,0.0,0.0,0.0,0.0,0.0,0.0,0.0,0.0,0.0,0.0,0.0,0.0,0.0,0.0,0.0,0.0,0.0,0.0,0.0,0.0,0.0,0.0,0.0,0.0,0.0,0.0,0.0,0.0,0.0,0.0,0.0,0.0,0.0,0.0,0.0,0.0,0.0,0.0,0.0,0.0,0.0,0.0,0.0,0.0,0.0,0.0,0.0,0.0,0.0,0.0,0.0,0.0,0.0,0.0,0.0,0.0,0.0,0.0,0.0,0.0,0.0,0.0,0.0,0.0,0.0,0.0,0.0,0.0,0.0,0.0,0.0,0.0,0.0,0.0,0.0,0.0,0.0,0.0,0.0,0.0,0.0,0.0,0.0,0.0,0.0,0.0,0.0,0.0,0.0,0.0,0.0,0.0,0.0,0.0,0.0,0.0,0.0,0.0,0.0,0.0,0.0,0.0,0.0,0.0,0.0,0.0,0.0,0.0,0.0,0.0,0.0,0.0,0.0,0.0,0.0,0.0,0.0,0.0,0.0,0.0,0.0,0.0,0.0,0.0,0.0,0.0,0.0,0.0,0.0,0.0,0.0,0.0,0.0,0.0,0.0,0.0,0.0,0.0,0.0,0.0,0.0,0.0,0.0,0.0,0.0,0.0,0.0,0.0,0.0,0.0,0.0,0.0,0.0,0.0,0.0,0.0,0.0,0.0,0.0,0.0,0.0,0.0,0.0,0.0,0.0,0.0,0.0,0.0,0.0,0.0,0.0,0.0,0.0,0.0,0.0,0.0,0.0,0.0,0.0,0.0,0.0,0.0,0.0,0.0,0.0,0.0,0.0,0.0,0.0,0.0,0.0,0.0,0.0,0.0,0.0,0.0,0.0,0.0,0.0,0.0,0.0,0.0,0.0,0.0,0.0,0.0,0.0,0.0,0.0,0.0,0.0,0.0,0.0,0.0,0.0,0.0,0.0,0.0,0.0,0.0,0.0,0.0,0.0,0.0,0.0,0.0,0.0,0.0,0.0,0.0,0.0,0.0,0.0,0.0,0.0,0.0,0.0,0.0,0.0,0.0,0.0,0.0,0.0,0.0,0.0,0.0,0.0,0.0,0.0,0.0,0.0,0.0,0.0,0.0,0.0,0.0,0.0,0.0,0.0,0.0,0.0,0.0,0.0,0.0,0.0,0.0,0.0,0.0,0.0,0.0,0.0,0.0,0.0,0.0,0.0,0.0,0.0,0.0,0.0,0.0,0.0,0.0,6.1143,0.0,0.0,0.0,0.0,0.0,0.0,0.0,0.0,0.0,0.0,0.0,0.0,0.0,0.0,0.0,0.0,0.0,0.0,0.0,0.0,0.0,0.0,0.0,0.0,0.0,0.0,0.0,0.0,0.0,0.0,0.0,0.0,0.0,0.0,0.0,0.0,0.0,0.0,0.0,5.155,5.1696,5.2038,5.2429,5.2255,5.162,0.0,0.0,0.0,0.0,0.0,0.0,0.0,0.0,0.0,0.0,0.0,0.0,0.0,0.0,0.0,0.0,0.0,0.0,0.0,0.0,0.0,0.0,0.0,0.0,0.0,0.0,0.0,0.0,0.0,0.0,0.0,0.0,0.0,0.0,0.0,0.0,0.0,0.0,0.0,0.0,0.0,0.0,0.0,0.0,0.0,0.0,0.0,0.0,0.0,0.0,0.0,0.0,0.0,0.0,0.0,0.0,0.0,0.0,0.0,0.0,0.0,0.0,0.0,0.0,0.0,0.0,0.0,0.0,0.0,0.0,0.0,6.2053,0.0,0.0,0.0,0.0,0.0,0.0,0.0,0.0,0.0,0.0,0.0,0.0,0.0,0.0,0.0,0.0,0.0,0.0,0.0,0.0,0.0,0.0,0.0,0.0,4.8939,5.0343,5.0485,5.075,0.0,0.0,0.0,0.0,0.0,0.0,0.0,5.1673,5.1673,5.1673,5.1676,5.1993,5.2583,5.3296,5.29,5.1628,5.1815,0.0,0.0,0.0,0.0,0.0,0.0,0.0,0.0,0.0,0.0,0.0,0.0,0.0,0.0,0.0,0.0,0.0,0.0,0.0,0.0,0.0,0.0,0.0,0.0,0.0,0.0,0.0,0.0,0.0,0.0,0.0,0.0,0.0,0.0,0.0,0.0,0.0,0.0,0.0,0.0,0.0,0.0,0.0,0.0,0.0,0.0,0.0,0.0,0.0,0.0,0.0,0.0,0.0,0.0,0.0,0.0,0.0,0.0,0.0,0.0,0.0,0.0,0.0,0.0,6.3537,6.4246,6.5128,6.5154,6.4537,6.4794,6.4273,6.3306,0.0,0.0,0.0,0.0,0.0,0.0,0.0,0.0,0.0,0.0,0.0,0.0,0.0,0.0,0.0,0.0,0.0,0.0,0.0,0.0,0.0,0.0,4.9418,5.0185,5.1083,5.1154,5.1173,0.0,0.0,0.0,0.0,0.0,0.0,5.1524,5.2015,5.229,5.229,5.2962,5.3284,5.3259,5.3496,5.3363,5.2958,5.3228,5.3308,5.3273,0.0,0.0,0.0,0.0,0.0,0.0,0.0,0.0,0.0,0.0,0.0,0.0,0.0,0.0,0.0,0.0,0.0,0.0,0.0,0.0,0.0,0.0,0.0,0.0,0.0,0.0,0.0,0.0,0.0,0.0,0.0,0.0,0.0,0.0,0.0,0.0,0.0,0.0,0.0,0.0,0.0,5.6618,5.7527,0.0,0.0,0.0,0.0,0.0,0.0,0.0,0.0,0.0,0.0,0.0,0.0,0.0,0.0,6.229,6.3298,6.3966,6.4263,6.4467,6.4595,6.4748,6.585,6.6292,6.6256,6.7644,0.0,6.5001,6.5074,0.0,0.0,0.0,0.0,0.0,0.0,0.0,0.0,0.0,0.0,0.0,0.0,0.0,0.0,0.0,0.0,0.0,0.0,0.0,0.0,0.0,4.9565,5.0291,5.111,5.118,5.1147,5.1116,5.1272,0.0,0.0,0.0,5.1389,5.1389,5.1989,5.2475,5.2851,5.4077,5.4641,5.4611,5.5528,5.5914,5.5803,5.5929,5.5283,5.4084,5.3647,0.0,0.0,0.0,0.0,0.0,0.0,0.0,0.0,0.0,0.0,0.0,0.0,0.0,0.0,0.0,0.0,0.0,0.0,0.0,0.0,0.0,0.0,0.0,0.0,0.0,0.0,0.0,0.0,0.0,0.0,0.0,0.0,0.0,0.0,0.0,0.0,0.0,0.0,0.0,5.7415,5.8178,5.9066,5.9463,5.97,0.0,0.0,0.0,0.0,0.0,0.0,0.0,0.0,0.0,6.1881,6.2573,6.3332,6.4115,6.4707,6.5439,6.6336,6.6482,6.6772,6.7223,6.7724,6.7963,6.8014,6.8915,6.8701,6.7648,6.6953,6.6366,6.5962,0.0,0.0,0.0,0.0,0.0,6.7387,0.0,0.0,0.0,0.0,0.0,0.0,0.0,0.0,0.0,0.0,0.0,0.0,4.9045,4.9719,5.04,5.0992,5.1232,5.1232,5.1063,5.1344,0.0,5.1253,5.1246,5.1352,5.1536,5.2512,5.3373,5.4082,5.5437,5.6097,5.6097,5.7255,5.779,5.7825,5.8028,5.707,5.5323,5.5017,5.449,5.3781,0.0,0.0,0.0,0.0,0.0,0.0,0.0,0.0,0.0,0.0,0.0,0.0,0.0,0.0,0.0,0.0,0.0,0.0,0.0,0.0,0.0,0.0,0.0,0.0,0.0,0.0,0.0,0.0,0.0,0.0,0.0,0.0,0.0,0.0,0.0,0.0,0.0,5.8622,5.9344,6.029,6.0318,6.0318,0.0,0.0,0.0,0.0,0.0,0.0,6.1749,6.2707,6.3412,6.383,6.4222,6.4925,6.5965,6.6108,6.6784,6.7938,6.8058,6.8393,6.8987,6.926,6.9516,6.9741,7.0202,7.0526,7.0592,6.8959,6.7951,6.743,6.743,6.743,6.7577,6.8788,6.9229,6.9302,0.0,0.0,0.0,0.0,0.0,0.0,0.0,0.0,0.0,0.0,0.0,4.8915,4.9585,5.0373,5.0858,5.0893,5.1547,5.1645,5.0964,5.169,5.1835,5.1123,5.1123,5.1447,5.2159,5.4252,5.5683,5.6428,5.7263,5.7684,5.7677,5.7754,5.779,5.7817,5.8589,5.8449,5.7587,5.6806,5.5952,5.5069,5.4431,0.0,0.0,0.0,0.0,0.0,0.0,0.0,0.0,0.0,0.0,0.0,0.0,0.0,0.0,0.0,0.0,0.0,0.0,0.0,0.0,0.0,0.0,0.0,0.0,0.0,0.0,0.0,0.0,0.0,0.0,0.0,0.0,0.0,0.0,0.0,0.0,0.0,0.0,6.0854,6.0939,0.0,0.0,0.0,0.0,6.1867,6.3448,6.425,6.3789,6.4903,6.5374,6.5041,6.6456,6.724,6.7304,6.7764,6.8002,6.8074,6.8419,6.8598,6.865,6.9754,7.0646,7.1419,7.2219,7.2995,7.347,7.099,6.997,6.9933,6.9933,6.9933,6.9933,7.0007,7.0043,7.0043,0.0,0.0,0.0,0.0,0.0,0.0,0.0,0.0,4.7243,4.7562,4.8614,4.9422,4.9664,5.043,5.088,5.088,5.1568,5.1877,5.1639,5.1897,5.2178,5.2431,5.196,5.2523,5.428,5.5101,5.6097,5.7368,5.8168,5.8499,5.8389,5.8853,5.9034,5.8956,5.927,5.9235,5.8921,5.8118,5.7075,5.5891,5.4928,5.3898,0.0,0.0,0.0,0.0,0.0,0.0,0.0,0.0,0.0,0.0,0.0,0.0,0.0,0.0,0.0,0.0,0.0,0.0,0.0,0.0,0.0,0.0,0.0,0.0,0.0,0.0,0.0,0.0,0.0,0.0,0.0,0.0,0.0,0.0,0.0,0.0,0.0,6.2255,6.2716,0.0,0.0,6.3781,6.3845,6.3364,6.4469,6.5004,6.4551,6.5949,6.6692,6.6473,6.749,6.8214,6.861,6.928,6.9907,7.0416,7.1035,7.1301,7.1309,7.1723,7.207,7.2365,7.288,7.3269,7.3447,7.2797,7.2387,7.2042,7.1749,7.1321,7.0947,7.1461,7.1651,7.1725,0.0,0.0,0.0,0.0,0.0,0.0,0.0,0.0,4.7611,4.8227,4.9112,4.9798,5.0079,5.057,5.0985,5.1259,5.1961,5.2411,5.2411,5.2411,5.2628,5.3176,5.319,5.3913,5.5465,5.6212,5.7066,5.8083,5.8825,5.9131,5.901,5.9506,5.9693,5.9604,5.9604,5.9743,5.9917,5.9051,5.8057,5.6934,5.5969,5.5054,5.4224,0.0,0.0,0.0,0.0,0.0,0.0,0.0,0.0,0.0,0.0,0.0,0.0,0.0,0.0,0.0,0.0,0.0,0.0,0.0,0.0,0.0,0.0,0.0,0.0,0.0,0.0,0.0,0.0,0.0,0.0,0.0,0.0,0.0,0.0,0.0,6.2969,6.3307,6.3986,6.4513,6.4871,6.499,6.5054,6.5158,6.5981,6.6343,6.5994,6.7338,6.8207,6.8304,6.9075,6.9805,7.0367,7.0971,7.1514,7.1988,7.2522,7.2807,7.2807,7.2807,7.2941,7.3235,7.3428,7.3754,7.4152,7.4524,7.4579,7.4322,7.3484,7.2871,7.2591,7.3112,7.3296,7.3406,0.0,0.0,0.0,0.0,0.0,0.0,0.0,4.7485,4.7965,4.9482,4.9699,5.0044,5.081,5.088,5.1189,5.1941,5.2734,5.3211,5.3204,5.3204,5.3247,5.3275,5.4728,5.5555,5.5591,5.7639,5.8706,5.8749,5.9304,5.9604,5.9639,5.9639,5.9631,5.9622,5.9622,6.004,6.0641,5.9751,5.8955,5.8245,5.7583,5.7204,5.6867,0.0,0.0,0.0,0.0,0.0,0.0,0.0,0.0,0.0,0.0,0.0,0.0,0.0,0.0,0.0,0.0,0.0,0.0,0.0,0.0,0.0,0.0,0.0,0.0,0.0,0.0,0.0,0.0,0.0,0.0,0.0,0.0,0.0,6.1645,6.3242,6.4344,6.392,6.4583,6.5109,6.519,6.5894,6.6615,6.7183,6.7975,6.8323,6.8131,6.9086,6.9908,7.0488,7.1273,7.1961,7.2467,7.2709,7.2718,7.2512,7.2763,7.2869,7.2869,7.2869,7.3289,7.4029,7.4029,7.4646,7.5716,7.6123,7.6475,7.6631,7.508,7.4661,7.4948,7.4948,7.4948,7.4948,0.0,0.0,0.0,0.0,0.0,0.0,0.0,4.7515,4.8332,4.876,4.9861,5.0634,5.0887,5.088,5.1148,5.1787,5.2671,5.312,5.2991,5.3617,5.4279,5.4833,5.5556,5.6528,5.7798,5.8269,5.8773,5.9365,5.9525,5.9824,6.0253,6.021,6.0142,6.0056,6.0575,6.0644,6.0367,6.0618,6.0635,6.0298,5.8484,5.7443,5.6955,0.0,0.0,0.0,0.0,0.0,0.0,0.0,0.0,0.0,0.0,0.0,0.0,0.0,0.0,0.0,0.0,0.0,0.0,0.0,0.0,0.0,0.0,0.0,0.0,0.0,0.0,0.0,0.0,0.0,0.0,0.0,0.0,6.4155,6.3218,6.4276,6.524,6.5455,6.638,6.714,6.745,6.7681,6.788,6.8055,6.8684,6.8955,6.8742,6.984,7.053,7.0635,7.1422,7.1834,7.185,7.276,7.3117,7.2957,7.3887,7.4311,7.4311,7.4483,7.4645,7.4859,7.4859,7.5065,7.5344,7.5734,7.6106,7.6439,7.6494,7.6185,7.5755,7.5755,7.5755,7.5828,0.0,0.0,0.0,0.0,0.0,0.0,0.0,4.7729,4.8613,4.8971,5.0382,5.1365,5.1365,5.1652,5.2144,5.2803,5.3351,5.3751,5.3966,5.4723,5.5199,5.5292,5.6435,5.753,5.854,5.9023,5.9453,5.9947,6.0184,6.048,6.0826,6.0782,6.073,6.0668,6.1116,6.1254,6.116,6.1254,6.1496,6.1668,5.9978,5.8926,5.8232,5.7299,5.7405,5.8147,5.8072,5.8004,5.8019,5.8308,0.0,0.0,0.0,0.0,0.0,0.0,0.0,0.0,0.0,0.0,0.0,0.0,0.0,0.0,0.0,0.0,0.0,0.0,0.0,0.0,0.0,0.0,0.0,0.0,6.4909,6.5461,6.5241,6.5829,6.6426,6.676,6.7473,6.8292,6.9286,6.9072,6.9143,6.9774,7.0115,7.0212,7.0105,7.0733,7.1282,7.1579,7.2011,7.2312,7.246,7.3236,7.3505,7.3312,7.446,7.5015,7.5111,7.557,7.5795,0.0,7.5795,7.5797,7.5875,7.6237,7.667,0.0,0.0,0.0,0.0,0.0,7.6599,7.6673,0.0,0.0,0.0,0.0,0.0,0.0,0.0,4.8176,4.89,4.9622,5.1049,5.2018,5.2018,5.2706,5.3471,5.4215,5.4278,5.4621,5.5378,5.5936,5.5923,5.5282,5.7233,5.8407,5.8493,5.9742,6.0376,6.0376,6.1014,6.1358,6.1427,6.1427,6.1427,6.1427,6.153,6.191,6.2471,6.1841,6.1979,6.254,6.1772,6.0978,6.0082,5.8081,5.8243,5.9475,5.8949,5.8818,5.8897,5.8972,0.0,0.0,0.0,0.0,0.0,0.0,0.0,0.0,0.0,0.0,0.0,0.0,0.0,0.0,0.0,0.0,0.0,0.0,0.0,0.0,0.0,0.0,0.0,0.0,6.5957,6.6758,6.7432,6.768,6.7879,6.7978,6.8243,6.9032,7.0613,7.0122,7.0281,7.1655,7.1661,7.1591,7.1696,0.0,0.0,0.0,0.0,7.3172,7.3616,7.3942,7.3987,7.3796,7.4753,7.5279,7.5467,7.6227,7.6544,7.6544,7.6544,7.6583,7.6665,7.7172,7.7596,7.7883,7.7249,7.7153,7.7435,7.745,7.7458,0.0,0.0,0.0,0.0,0.0,0.0,0.0,0.0,4.9062,4.951,4.9693,5.1049,5.2018,5.2018,5.2706,5.3463,5.4097,5.4152,5.4415,5.5063,5.5035,5.5579,5.6794,5.7596,5.8344,5.911,5.9875,6.0237,6.0237,6.0962,6.1634,6.2264,6.2264,6.2264,6.2298,6.2884,6.2919,6.254,6.2953,6.3229,6.3333,6.2574,6.1781,6.1047,6.0599,6.0617,6.0911,6.0956,6.0878,6.0826,6.1145,6.1092,6.0702,5.9601,5.9879,0.0,0.0,0.0,0.0,0.0,0.0,0.0,0.0,0.0,0.0,0.0,0.0,0.0,0.0,0.0,0.0,0.0,0.0,0.0,6.677,6.7143,6.7727,6.8754,6.91,6.9203,6.9242,6.9938,7.063,7.1138,7.1195,7.1325,7.1616,7.146,7.1633,7.2298,7.1982,0.0,7.2958,7.3538,7.3816,7.3745,7.4771,7.5168,7.4968,0.0,0.0,7.5798,7.6126,7.6277,7.6277,7.6277,7.6297,7.6343,7.6927,7.7371,7.7728,7.8094,7.8203,7.8115,7.8306,7.8357,7.8357,0.0,0.0,0.0,0.0,0.0,0.0,0.0,4.9201,4.9666,4.9621,5.1248,5.2299,5.1955,5.2879,5.3711,5.406,5.4437,5.4922,5.5494,5.5733,5.6366,5.7543,5.8519,5.9262,5.9728,6.079,6.1367,6.1367,6.2091,6.2678,6.3057,6.3057,6.3057,6.3091,6.3816,6.3954,6.3643,6.3988,6.4152,6.4083,6.3333,6.2816,6.2358,6.1599,6.153,6.1928,6.2017,6.199,6.1946,6.2124,6.1943,6.1467,6.0799,6.1047,6.143,0.0,0.0,0.0,0.0,0.0,0.0,0.0,0.0,0.0,0.0,0.0,0.0,0.0,0.0,6.5487,0.0,0.0,6.8029,6.8401,6.8978,6.9464,6.981,7.0355,7.0688,7.0577,7.0623,7.1036,7.19,7.1722,7.1723,7.213,7.2075,7.2188,7.258,7.2721,7.2977,7.3402,7.4107,7.4457,7.435,7.4945,7.5206,7.5109,7.5716,7.605,7.6167,7.7039,7.7256,7.6953,7.7663,7.7738,7.7371,7.8273,7.8654,7.8743,7.9572,7.9028,7.7809,7.8045,7.818,7.8323,0.0,0.0,0.0,0.0,0.0,0.0,0.0,4.9431,4.9852,4.9724,5.1459,5.2458,5.1843,5.3026,5.398,5.4216,5.4907,5.5529,5.5977,5.6736,5.7394,5.7874,5.9219,6.0047,6.0185,6.1574,6.2333,6.2505,6.3229,6.3609,6.3609,6.3609,6.3678,6.385,6.4427,6.4772,6.4945,6.4945,6.4841,6.4634,6.4048,6.3747,6.3471,6.222,6.216,6.2712,6.2712,6.2712,6.2712,6.2712,6.2397,6.1951,6.1821,6.2013,6.2327,6.2478,6.2459,0.0,0.0,0.0,0.0,0.0,0.0,0.0,0.0,0.0,6.4348,6.4477,6.5519,6.6712,6.7626,6.8743,6.9618,6.9763,7.0541,7.0967,7.0673,7.1348,7.1859,7.1736,7.1198,7.1336,7.2588,7.2095,7.206,7.2864,7.2899,7.2968,7.313,7.3681,7.4016,7.4016,7.4718,7.5201,7.5339,7.5511,7.5638,7.5811,7.6442,7.6864,7.704,7.8286,7.854,7.8055,7.9232,7.9418,7.897,7.9725,8.0012,8.002,8.0792,7.9731,7.785,7.8179,7.8443,7.8612,0.0,0.0,0.0,0.0,0.0,0.0,0.0,0.0,5.0472,5.0493,5.1326,5.1836,5.1651,5.2995,5.4126,5.4684,5.5397,5.5769,5.5654,5.7011,5.7822,5.79,5.8694,5.9461,6.0185,6.1013,6.1772,6.2505,6.3229,6.3609,6.3609,6.3609,6.3954,6.4565,6.4669,6.5092,6.5757,6.5757,6.5368,6.4703,6.46,6.4186,6.3574,6.3402,6.3402,6.3471,6.3471,6.3471,6.3471,6.3471,6.3446,6.3257,6.261,6.3004,6.3574,6.3066,6.3109,6.3383,6.3476,6.3593,6.3716,6.4095,6.4813,6.5347,0.0,0.0,6.6138,6.5923,6.7394,6.8653,6.8453,6.9912,7.1004,7.065,7.0819,7.1086,7.1329,7.1614,7.1987,7.2516,7.2485,7.2519,7.2692,7.2623,7.2864,7.3623,7.3692,7.3957,7.4615,7.4718,7.4787,7.4787,7.5546,7.627,7.6925,7.766,7.835,7.9005,7.9074,7.912,7.9155,7.9327,7.9362,7.9293,7.9465,7.9983,8.0628,7.9879,8.0075,8.0858,8.0732,8.0223,7.9702,8.0489,8.0829,8.0744,0.0,0.0,0.0,0.0,0.0,0.0,0.0,0.0,0.0,5.0502,5.1151,5.1575,5.1431,5.2805,5.3824,5.4067,5.4822,5.558,5.6365,5.6958,5.7625,5.8487,5.9694,6.0487,6.084,6.2013,6.2816,6.3126,6.3436,6.3609,6.3609,6.4048,6.4393,6.4738,6.5635,6.6231,6.6541,6.6541,6.6334,6.5989,6.5575,6.5196,6.4954,6.4954,6.4644,6.4186,6.3747,6.3885,0.0,6.422,6.422,6.4264,6.4437,6.4424,6.4413,6.4735,6.4308,6.3764,6.3895,6.4297,6.4726,0.0,6.6064,6.6947,6.6698,6.7675,6.8547,6.8212,6.936,7.0469,7.062,7.1424,7.2041,0.0,7.2208,7.2302,7.2192,7.2386,7.2541,7.2689,7.3071,7.3175,7.2726,7.3106,7.3485,7.3796,7.4188,7.458,7.488,7.5753,7.6235,7.6235,7.7442,7.8247,7.8557,7.8867,7.9178,7.9488,7.9488,7.9488,7.9523,7.9936,8.0626,8.1419,8.0523,8.065,8.1469,8.1466,8.1296,8.1078,8.1851,8.177,8.1159,8.1104,8.1049,8.0985,0.0,0.0,0.0,0.0,0.0,0.0,0.0,0.0,0.0,0.0,5.1045,5.1592,5.1852,5.2876,5.3637,5.3844,5.4787,5.5817,5.6882,5.7216,5.7866,5.8935,6.0289,6.1082,6.1289,6.2599,6.3402,6.3609,6.3609,6.3609,6.3609,6.4152,6.46,6.5092,6.6196,6.692,6.73,6.73,6.7196,6.6955,6.6413,6.6068,6.5895,6.5895,6.5644,6.523,6.4264,6.4126,6.4402,6.4449,6.444,6.454,6.539,6.5371,6.5199,6.5896,6.541,6.4582,6.4527,6.5215,0.0,6.6056,6.7234,6.8312,6.8186,6.9329,7.0337,7.0079,7.0897,7.1806,7.2156,7.247,7.2763,7.2963,7.3129,7.3108,7.2744,7.3001,7.3171,7.3023,7.3647,7.3878,7.3371,7.3785,7.4188,7.4406,7.5108,7.5638,7.5856,7.7132,7.7821,7.7821,7.8936,7.9592,7.9798,7.9798,8.0005,8.0454,8.0454,8.0523,8.0764,8.1281,8.2143,8.3143,8.204,8.2005,8.2776,8.3075,8.278,8.2266,8.3397,8.3386,8.2671,8.2301,8.1943,8.1642,0.0,0.0,0.0,0.0,0.0,0.0,0.0,0.0,0.0,0.0,0.0,0.0,0.0,5.3398,5.3701,5.4425,5.5847,5.6744,5.6813,5.815,5.8935,5.9004,5.9806,6.0565,6.1289,6.2126,6.2884,6.3609,6.3609,6.3609,6.3609,6.3609,6.4437,6.5861,6.593,6.6713,6.8059,6.8059,6.7635,6.6989,6.6989,6.6541,6.5895,6.5895,6.6344,6.6748,6.5221,6.422,6.3671,6.3845,6.379,6.3809,6.4736,6.5406,6.5899,6.6142,6.6285,6.6259,6.5494,0.0,6.749,6.7291,6.8422,6.954,6.956,7.0273,7.1002,7.1037,7.1822,7.2424,7.2215,7.2802,7.3217,7.3036,7.3015,7.2943,7.2723,7.3313,7.3761,7.3761,7.4419,7.4845,0.0,7.4845,7.5201,7.5971,7.6718,7.7488,7.8247,7.9005,7.9419,7.9419,7.9488,7.9833,8.0545,8.0592,8.1316,8.2799,8.2799,8.3178,8.3868,8.3902,8.3937,8.3971,8.3937,8.435,8.5052,8.4281,8.4397,8.5065,8.5134,8.4798,8.4391,8.4875,8.4438,8.3532,0.0,0.0,0.0,0.0,0.0,0.0,0.0,0.0,0.0,0.0,0.0,0.0,0.0,0.0,0.0,0.0,5.4969,5.5701,5.6736,5.7253,5.8219,5.9737,6.053,6.1289,6.2091,6.285,6.3333,6.3609,6.4083,6.4092,6.3609,6.4644,6.5403,6.593,6.6403,6.7196,6.8083,6.8083,6.7955,6.7748,6.7748,6.7576,6.7369,6.7369,6.692,6.6196,0.0,6.5334,6.5033,6.4606,6.438,6.4481,6.534,6.5736,6.5924,6.6079,6.6469,6.6796,6.6677,0.0,6.8231,6.8728,7.01,7.126,7.1095,7.1816,7.2483,7.2386,7.2726,7.3012,7.2951,7.3027,7.3226,7.3674,7.3607,7.3698,7.4085,7.4384,7.4522,7.4522,7.5201,0.0,0.0,0.0,0.0,7.6822,7.7994,7.8833,7.9109,7.9833,8.0247,8.0247,8.1212,8.1868,8.2109,8.2626,8.3109,8.3626,8.3626,8.3764,8.4006,8.4006,8.4281,8.4777,8.4247,8.4454,8.519,8.4915,8.4626,8.4454,8.4984,8.4757,8.4243,8.516,8.5236,8.4872,0.0,0.0,0.0,0.0,0.0,0.0,0.0,0.0,0.0,0.0,0.0,0.0,0.0,0.0,0.0,0.0,0.0,5.5452,5.6736,5.7047,5.7978,5.9702,6.0496,6.1151,6.1677,6.2678,6.3195,6.3195,6.3954,6.4057,6.3609,6.4609,6.523,6.5506,6.6265,6.7024,6.7704,6.798,6.8083,6.8083,6.8083,6.7955,6.7714,6.7714,6.6955,0.0,6.5575,6.5472,6.5378,6.4649,6.4552,6.4851,6.5686,6.6115,6.6363,6.671,6.7077,6.7492,6.7895,6.8764,6.9639,7.0158,7.1332,7.2359,7.2253,7.2727,7.3191,7.3129,7.316,7.3201,7.3201,7.3036,7.3133,7.3849,7.4123,7.4361,7.4822,7.5362,7.5707,7.5707,7.6408,7.7212,0.0,0.0,0.0,7.8028,7.9178,8.0005,8.0316,8.1005,8.1557,8.1799,8.2764,8.3281,8.3281,8.3764,8.4144,8.4419,8.4695,8.4833,8.4833,8.5109,8.5488,8.5984,8.573,8.5949,8.6398,8.6398,8.5949,8.5282,8.5764,8.5501,8.4927,8.5595,8.5903,8.5884,0.0,0.0,0.0,0.0,0.0,0.0,0.0,0.0,0.0,0.0,0.0,0.0,0.0,0.0,0.0,0.0,0.0,0.0,5.6736,5.746,5.8211,5.9038,5.9806,6.022,6.0263,6.1746,6.2505,6.2505,6.3264,6.3643,6.3609,6.3643,6.4048,6.4807,6.5541,6.6344,6.7093,6.7807,6.8083,6.8049,6.8049,6.761,6.6955,6.6955,6.6506,6.5782,6.4989,6.4738,6.4662,6.4113,6.4334,6.4973,6.5868,6.6572,6.7196,6.7955,6.8152,6.8335,6.9163,7.0439,7.1508,7.1543,7.2129,7.2744,7.2943,7.2984,7.3046,7.3242,7.3129,7.2984,0.0,0.0,7.3002,7.375,7.4509,7.5016,7.5063,7.6373,7.7304,0.0,0.0,0.0,0.0,0.0,0.0,7.9764,0.0,8.1074,8.1879,8.2569,8.3281,8.3971,8.4075,8.4109,8.4075,8.4109,8.4523,8.5328,8.6018,8.6398,8.6432,8.7144,8.7454,8.7489,8.826,8.8605,8.8605,8.857,8.8088,8.7385,8.7351,8.6902,8.6294,8.6294,8.6456,8.6612,0.0,0.0,0.0,0.0,0.0,0.0,0.0,0.0,0.0,0.0,0.0,0.0,0.0,0.0,0.0,0.0,0.0,0.0,5.6702,5.6978,5.7909,5.9806,6.0082,6.0461,6.1013,6.1988,6.2505,6.2505,6.3781,6.4126,6.3609,6.4152,6.4851,6.561,6.5826,6.661,6.7817,6.8014,6.7773,6.7265,6.7265,6.6851,6.6171,6.6171,6.6068,6.5782,6.4989,6.5092,6.5481,6.4725,6.5337,6.6447,6.6702,6.727,6.798,6.8749,6.899,6.9276,7.0577,7.1198,7.1646,7.2243,7.2554,7.2713,7.2765,7.2776,7.2786,7.2838,7.2807,7.2776,0.0,0.0,0.0,7.4488,7.5729,0.0,7.7419,7.8316,0.0,7.8902,0.0,7.9729,8.1074,8.1385,0.0,0.0,8.2523,8.2626,8.3385,8.3626,8.3799,8.4006,8.5109,8.5454,8.4915,8.5432,8.6075,8.6833,8.704,8.7432,8.8019,8.8226,8.8295,8.8295,8.8501,8.8605,8.8536,8.7937,8.7592,8.7351,8.6799,8.6467,8.6294,8.6294,8.6332,8.6372,0.0,0.0,0.0,0.0,0.0,0.0,0.0,0.0,0.0,0.0,0.0,0.0,0.0,0.0,0.0,0.0,0.0,0.0,0.0,5.6805,5.7667,5.9599,5.9659,5.9875,6.028,6.1082,6.1505,6.1505,6.2634,6.3013,6.2599,6.3393,6.3988,6.4437,6.5092,6.5851,6.6635,6.6989,6.6886,0.0,0.0,6.6058,6.5403,6.5757,6.5481,6.4885,6.4738,6.5437,6.6368,6.6221,6.6782,6.761,6.8266,6.8783,6.9266,7.0025,7.0266,7.0508,7.1726,7.2036,7.2198,7.3002,7.2933,7.2795,7.3106,7.2933,7.2692,7.2692,7.2692,7.2795,7.3106,7.352,7.4268,0.0,0.0,0.0,7.8764,7.9523,7.9971,0.0,8.0281,0.0,8.219,8.2569,8.3247,0.0,8.3833,8.373,8.4488,8.4535,8.4661,8.5006,8.6144,8.6742,8.6674,8.7087,8.7536,8.795,8.795,8.8157,8.8605,8.895,8.9088,8.9088,0.0,8.9398,8.9053,8.8937,8.8316,8.7385,8.7316,8.6915,8.6294,8.6294,8.6294,8.6294,0.0,0.0,0.0,0.0,0.0,0.0,0.0,0.0,0.0,0.0,0.0,0.0,0.0,0.0,0.0,0.0,0.0,0.0,0.0,0.0,5.746,5.8935,5.9004,5.9004,5.9004,5.9806,6.0185,6.0185,6.0944,6.1289,6.1323,6.2022,6.2436,6.2712,6.3979,6.4669,6.491,6.561,6.5826,6.5757,6.5757,6.5265,6.4634,0.0,6.4816,6.385,6.4703,6.5817,6.7024,6.8059,6.8473,6.8783,7.0025,7.0473,7.068,7.1439,7.1577,7.1715,7.2716,7.2933,7.3037,7.375,7.3382,7.3002,7.3658,7.3244,7.2692,7.2692,7.2692,7.2933,7.3647,7.3888,7.4671,7.6867,7.804,7.8902,7.9557,8.0454,8.0994,8.0925,8.1592,8.2397,8.3109,8.3868,8.4592,8.5294,8.4902,8.4833,8.5328,8.5363,8.5742,8.657,8.7213,8.795,8.8743,8.8639,8.8639,8.8743,8.8743,8.8812,8.8915,8.9536,8.9847,8.9881,0.0,0.0,8.9881,9.0316,8.9385,8.7764,8.8364,8.7777,8.6605,8.6605,8.6605,8.6605,0.0,0.0,0.0,0.0,0.0,0.0,0.0,0.0,0.0,0.0,5.2488,5.2563,0.0,0.0,0.0,0.0,0.0,0.0,0.0,0.0,0.0,5.8935,5.9004,5.9004,5.9004,5.9806,6.0185,6.0185,6.0944,6.1289,6.1289,6.1427,6.2186,6.3436,6.3678,6.4506,6.5679,6.5826,6.5506,6.492,6.492,6.4471,6.3816,6.3954,0.0,0.0,6.6093,6.6368,6.6472,6.9128,7.0404,7.0853,7.0508,7.0818,7.1474,7.2278,7.2026,7.1946,7.396,7.4085,7.3785,7.4522,7.4154,7.3658,7.3761,7.3244,7.2692,7.2692,7.2692,7.2933,7.3647,7.4281,7.527,7.6925,7.889,8.027,8.0373,8.2143,8.3178,8.2557,8.3178,8.3937,8.4708,8.5466,0.0,0.0,0.0,8.7294,8.6191,8.6122,8.6742,8.8157,8.8329,8.8743,8.9502,8.8915,8.8915,8.9502,8.9502,8.9847,9.0433,9.0571,9.0592,9.0558,0.0,0.0,9.0523,8.9433,8.9122,8.926,8.8777,8.8433,8.8191,8.8191,8.8191,8.8191,0.0,0.0,0.0,0.0,0.0,0.0,0.0,5.1786,5.2423,5.3263,5.304,5.318,5.4033,5.4032,0.0,0.0,0.0,0.0,0.0,0.0,0.0,5.8935,5.9004,5.9004,5.9004,5.9383,5.959,5.959,0.0,6.0107,6.0107,6.053,6.1323,6.2427,6.285,6.3643,6.4713,6.4713,6.4471,6.4117,6.4117,6.3919,6.3678,0.0,0.0,0.0,6.6338,6.7032,6.8043,6.9375,7.0863,7.206,7.1726,7.1829,7.2278,7.3037,7.2992,7.3026,7.4511,7.4626,7.4475,7.4822,7.435,7.3796,7.3796,7.3244,7.2795,7.3209,7.2968,7.3175,7.4705,7.4925,7.5684,7.8028,7.9316,8.0454,8.1626,8.273,8.3454,8.3454,8.4144,8.4949,8.5708,8.642,8.7053,0.0,0.0,8.7501,8.6363,8.6661,8.757,8.9122,8.9157,8.9536,9.026,8.9916,8.9916,9.026,9.026,9.0467,9.0799,9.0799,9.0799,9.0765,9.042,0.0,9.0192,8.9881,8.9502,8.9122,8.9157,8.895,8.8605,8.8605,8.8605,8.8605,0.0,0.0,0.0,0.0,0.0,0.0,0.0,5.233,5.2988,5.3709,5.3752,5.3982,5.471,5.4493,5.4348,0.0,0.0,0.0,0.0,0.0,0.0,0.0,0.0,0.0,5.9004,0.0,0.0,5.9004,5.9004,0.0,0.0,0.0,0.0,0.0,6.1953,6.2747,6.3609,6.3609,6.3609,0.0,0.0,6.385,6.3988,0.0,0.0,0.0,0.0,6.7411,6.908,6.943,7.0725,7.2243,7.2588,7.2692,7.2864,7.3785,7.3923,7.4026,7.5098,7.5281,7.5188,7.5339,7.4695,7.4026,7.4026,7.3337,7.2899,7.3658,7.3209,7.3405,7.5695,7.5442,7.5914,7.9005,7.9626,8.0488,8.2592,8.3178,8.3604,8.4178,8.4949,8.5742,8.6454,8.7225,0.0,0.0,0.0,0.0,8.657,8.7385,8.8454,8.9674,8.9847,9.0226,9.0799,9.0799,9.0799,9.0799,9.0799,9.0799,9.0799,9.0799,9.0799,9.0799,9.0627,0.0,0.0,9.0385,8.9985,8.9122,8.9709,8.9571,8.9053,8.9053,8.9053,8.9053,0.0,0.0,0.0,0.0,0.0,0.0,0.0,5.2409,5.3119,5.3724,5.4302,5.4703,5.4787,5.4009,5.3762,0.0,0.0,0.0,0.0,0.0,0.0,0.0,0.0,0.0,0.0,0.0,0.0,5.9004,5.9004,0.0,0.0,0.0,0.0,0.0,0.0,6.222,6.3609,6.3609,0.0,0.0,0.0,0.0,0.0,0.0,0.0,0.0,0.0,6.7198,6.7536,6.9621,7.0439,7.0853,7.2243,7.2692,7.2968,7.4384,7.4315,7.4268,7.6419,7.6511,7.6143,7.6822,7.5891,7.4811,7.4811,7.3705,7.2899,7.3658,7.3209,7.3405,7.5695,7.5442,7.5914,7.9005,8.0074,8.1074,8.2661,8.4121,8.5018,8.5087,8.5742,8.6501,8.7213,8.8019,8.8501,0.0,0.0,0.0,8.7351,8.8708,8.9536,8.9709,9.0364,9.073,9.0799,9.0799,9.0799,9.0799,9.0799,9.0799,9.0799,9.0799,9.0799,9.0765,0.0,0.0,0.0,9.0054,9.0123,9.0592,9.0661,9.0674,9.0592,9.0592,9.0592,9.0592,0.0,0.0,0.0,0.0,0.0,0.0,5.2283,5.2703,5.3281,5.4373,5.4672,5.4749,5.4639,5.4292,5.4176,0.0,0.0,0.0,0.0,0.0,0.0,0.0,0.0,0.0,0.0,0.0,5.9004,5.9004,5.9004,0.0,0.0,0.0,0.0,0.0,0.0,6.191,6.2953,6.3402,0.0,0.0,0.0,0.0,0.0,0.0,0.0,0.0,0.0,0.0,6.8966,6.9129,6.9881,7.0862,7.133,7.1808,7.2434,7.3817,7.435,7.4764,7.6166,7.6649,7.6718,7.658,7.5718,7.4776,7.4361,7.3536,7.3184,7.4244,7.3985,7.4211,7.6372,7.6132,7.6477,7.9074,7.9764,8.0798,8.3212,8.4075,8.4799,8.5742,8.6523,8.7075,8.7351,0.0,8.926,0.0,0.0,0.0,8.8846,8.9364,8.9916,9.0364,9.0661,9.072,9.0548,9.0548,9.0548,9.0548,9.0548,9.0641,9.0799,9.0799,9.0799,9.0765,0.0,0.0,0.0,9.0489,9.0523,9.0799,9.0799,9.0799,9.0799,9.0799,9.0799,9.0799,0.0,0.0,0.0,0.0,0.0,5.0914,5.2232,5.2644,5.325,5.4424,5.4726,5.4741,5.4616,5.4552,5.4486,5.4486,5.4486,0.0,0.0,0.0,0.0,0.0,0.0,0.0,0.0,0.0,5.9004,5.9004,5.9004,5.9004,0.0,0.0,5.9418,6.022,0.0,0.0,0.0,0.0,0.0,0.0,0.0,0.0,0.0,0.0,0.0,0.0,0.0,0.0,0.0,0.0,0.0,7.0719,7.0952,7.1452,7.218,7.3421,7.4315,7.5087,7.5891,7.666,7.7063,7.6546,7.5856,7.5063,7.4292,7.366,7.3482,7.4382,7.4272,7.4612,7.651,7.6442,7.6867,7.9143,7.9488,8.0557,8.3592,8.4006,8.4557,8.6122,8.6764,8.7247,8.7708,8.9109,8.998,0.0,0.0,0.0,0.0,8.9844,9.0111,9.0765,9.0799,9.0707,9.0508,9.0508,9.0508,9.0508,9.0748,9.0855,9.0812,9.1054,9.1019,9.0799,0.0,0.0,0.0,9.0799,9.0799,9.0799,9.0799,9.0799,9.0799,9.0799,9.0799,9.0799,0.0,0.0,0.0,0.0,0.0,0.0,5.1184,5.2105,5.2934,5.352,5.4302,5.4787,5.4787,5.4631,5.4486,5.4486,5.4486,0.0,0.0,0.0,0.0,0.0,0.0,0.0,0.0,0.0,0.0,5.9004,5.9004,5.9004,5.9004,5.9004,5.9418,6.022,0.0,0.0,0.0,0.0,0.0,0.0,0.0,0.0,6.7038,0.0,0.0,0.0,0.0,0.0,0.0,0.0,0.0,0.0,0.0,7.1969,7.2408,7.3464,7.4315,7.5087,7.5891,7.666,7.7201,7.7201,7.6615,7.5891,7.5063,7.4315,7.3796,7.3796,7.3796,7.4268,7.5833,7.6109,7.6867,7.9143,7.9488,8.0557,8.3592,8.4006,8.4557,8.6122,8.6329,8.6915,8.8433,8.9916,9.0694,0.0,0.0,0.0,0.0,9.0153,9.0261,9.0786,9.0799,9.0799,9.0799,9.0799,9.0799,9.0799,9.1606,9.1571,9.0847,9.1606,9.1537,0.0,0.0,0.0,0.0,9.0799,9.0799,9.0799,9.0799,9.0799,9.0799,9.0799,9.0799,9.0799,0.0,0.0,0.0,0.0,0.0,0.0,0.0,5.1754,5.235,5.3444,5.381,5.4152,5.4546,5.4552,5.4486,5.4486,5.4486,0.0,0.0,0.0,0.0,0.0,0.0,0.0,0.0,0.0,0.0,0.0,0.0,5.9521,5.8995,5.9556,5.9944,6.022,6.0978,6.1746,0.0,0.0,0.0,0.0,0.0,6.4935,6.6469,0.0,0.0,0.0,0.0,0.0,0.0,0.0,0.0,0.0,0.0,0.0,0.0,7.2576,7.4064,7.5072,7.4645,7.5464,7.6442,7.6442,7.5856,7.519,7.4949,7.4434,7.4094,7.4486,7.4686,7.5235,7.6614,7.6856,7.7442,7.9212,7.9936,8.1143,8.3661,8.4454,8.519,8.6178,8.66,8.7586,8.9627,0.0,8.9625,0.0,0.0,0.0,0.0,9.0031,9.0071,9.0261,9.0449,9.0428,9.0261,9.0261,9.0261,9.0261,9.1015,9.1089,9.0555,9.156,0.0,0.0,0.0,0.0,0.0,9.0799,9.1123,9.1571,9.1006,9.1157,9.1537,9.1019,9.0799,9.0799,0.0,0.0,0.0,0.0,0.0,0.0,0.0,5.1227,5.1815,5.293,5.3337,5.3775,5.4433,5.4486,5.4486,5.4486,5.4486,0.0,0.0,0.0,0.0,0.0,0.0,0.0,0.0,0.0,0.0,0.0,0.0,0.0,0.0,6.0357,6.0417,6.0149,6.1253,6.185,0.0,0.0,0.0,0.0,6.391,6.4857,6.6129,0.0,0.0,0.0,0.0,0.0,0.0,0.0,0.0,0.0,0.0,0.0,0.0,0.0,7.3495,7.4684,7.3987,7.4912,7.6109,7.6109,7.5718,7.5259,7.4949,7.4654,7.4418,7.4475,7.509,7.5835,7.6648,7.6994,7.7684,7.9247,8.0109,8.1419,8.3695,8.4695,8.557,8.6592,8.7473,8.8535,0.0,8.963,0.0,0.0,0.0,0.0,0.0,8.9881,8.9949,9.027,9.0235,9.0357,9.0563,9.0181,9.0181,9.0563,9.0933,9.0803,9.0295,9.1513,0.0,0.0,0.0,0.0,0.0,9.1208,9.1364,9.1502,9.1019,9.1295,9.195,9.1433,9.1261,9.1261,0.0,0.0,0.0,0.0,0.0,0.0,0.0,5.059,5.1306,5.2099,5.2797,5.3555,5.4417,5.4452,5.4452,5.4486,0.0,0.0,0.0,0.0,0.0,0.0,0.0,0.0,0.0,0.0,0.0,6.0185,6.0185,6.0468,6.0959,0.0,0.0,6.0075,6.176,6.2126,0.0,0.0,0.0,0.0,6.4393,6.5196,0.0,0.0,0.0,0.0,0.0,0.0,0.0,0.0,0.0,0.0,0.0,0.0,0.0,0.0,0.0,0.0,0.0,7.4809,7.5936,7.5936,7.5936,7.5729,7.4983,7.4845,0.0,7.4026,7.505,7.6132,7.6246,7.6787,7.7718,7.9316,8.0212,8.1454,8.3695,8.4764,8.588,8.7316,8.8786,8.9578,8.9418,0.0,0.0,0.0,0.0,0.0,0.0,8.9737,8.9973,9.0715,9.0352,9.0591,9.1548,9.0653,9.0666,9.1575,9.1357,9.0878,9.0229,9.1658,0.0,0.0,0.0,0.0,0.0,9.192,9.1661,9.1041,9.0972,9.1468,9.2171,9.2102,9.2102,9.2102,0.0,0.0,0.0,0.0,0.0,0.0,0.0,0.0,0.0,0.0,5.1858,5.2383,5.4279,5.4004,5.3908,0.0,0.0,0.0,0.0,0.0,0.0,0.0,0.0,0.0,0.0,0.0,0.0,6.0185,6.0185,6.0262,6.0391,6.1021,0.0,0.0,0.0,0.0,0.0,0.0,0.0,0.0,6.4393,6.5196,0.0,0.0,0.0,0.0,6.8221,6.8338,0.0,0.0,0.0,0.0,0.0,0.0,0.0,0.0,7.2274,0.0,7.2806,0.0,7.4337,7.4337,7.4337,7.4302,0.0,7.4488,7.4845,7.4684,7.5419,7.6453,7.7626,7.7488,7.789,7.9994,8.1005,8.2109,8.3764,8.5661,8.726,8.8191,8.8962,8.9595,9.0079,0.0,0.0,0.0,0.0,8.9813,0.0,9.031,9.0802,9.1007,9.1466,9.1808,9.2034,9.2063,9.2187,9.2413,9.272,9.2464,9.1712,9.2906,0.0,0.0,0.0,0.0,9.2427,9.2495,9.2899,9.3413,9.2813,9.3054,9.3689,9.3054,9.2847,9.2847,0.0,0.0,0.0,0.0,0.0,0.0,0.0,0.0,0.0,0.0,0.0,0.0,0.0,0.0,0.0,0.0,0.0,0.0,0.0,0.0,0.0,0.0,0.0,0.0,0.0,5.9004,0.0,0.0,0.0,6.0348,0.0,0.0,0.0,0.0,0.0,0.0,0.0,0.0,0.0,6.3669,6.4393,0.0,0.0,0.0,0.0,0.0,6.8192,6.8241,0.0,6.9199,6.9005,6.8693,0.0,0.0,0.0,0.0,7.1902,7.214,7.2588,7.3474,7.4281,7.4281,7.4281,7.4395,7.4774,7.4867,7.4983,7.5373,7.6063,7.6856,7.7695,7.7798,7.8385,8.0281,8.1557,8.3075,8.5247,8.6937,8.8226,8.9019,8.9634,9.0161,0.0,0.0,0.0,0.0,0.0,8.9758,0.0,9.0487,9.106,9.1401,9.2277,9.2779,9.2933,9.2618,9.2735,9.3216,9.2945,9.2635,9.2225,9.3179,9.3217,0.0,0.0,0.0,9.2995,9.3147,9.3416,9.3723,9.3261,9.3572,9.424,9.3827,9.3641,9.3641,0.0,0.0,0.0,0.0,0.0,0.0,0.0,0.0,0.0,0.0,0.0,0.0,0.0,0.0,0.0,0.0,0.0,0.0,0.0,0.0,0.0,0.0,0.0,5.8142,5.8969,5.9004,5.9383,0.0,0.0,0.0,0.0,0.0,6.2104,0.0,0.0,0.0,0.0,0.0,0.0,6.3678,6.454,0.0,0.0,0.0,0.0,0.0,0.0,0.0,0.0,6.9822,6.9416,6.8537,7.0029,0.0,0.0,0.0,0.0,0.0,7.2657,7.3774,7.4856,7.4753,7.4718,7.4925,7.5729,7.5373,7.5132,7.5925,7.6684,7.727,7.7511,7.8109,7.9074,8.0695,8.2247,8.4213,8.7006,8.8088,8.8881,8.9605,9.0311,0.0,0.0,0.0,0.0,0.0,0.0,8.9723,0.0,9.0616,9.1253,9.2016,9.2978,9.3608,9.3902,9.3042,9.3084,9.4041,9.3084,9.2594,9.2586,9.3306,9.341,0.0,0.0,0.0,9.3509,9.3776,9.3691,9.3366,9.342,9.3861,9.4482,9.4482,9.4482,9.4482,0.0,0.0,0.0,0.0,0.0,0.0,0.0,0.0,0.0,0.0,0.0,0.0,0.0,0.0,0.0,0.0,0.0,0.0,0.0,0.0,0.0,0.0,5.7625,5.7598,5.8969,5.9004,5.9383,6.0185,6.0185,0.0,6.127,6.2108,6.2763,6.3209,0.0,0.0,0.0,0.0,0.0,6.3712,6.5127,0.0,0.0,0.0,0.0,0.0,0.0,0.0,0.0,6.8399,6.8779,6.9173,6.942,0.0,0.0,0.0,0.0,0.0,7.2519,7.3796,7.4751,7.413,7.3957,7.4154,7.4925,7.4983,7.5132,7.5925,7.6684,7.7615,7.8902,7.9247,8.004,8.2212,8.3845,8.5432,8.7144,8.8088,8.8881,8.9605,0.0,9.0441,0.0,0.0,0.0,0.0,0.0,0.0,0.0,9.1463,9.2312,9.3034,9.3876,9.4343,9.4386,9.4441,9.4708,9.5172,9.4694,9.4379,9.4158,9.4496,9.4346,0.0,0.0,9.4431,9.4315,9.4372,9.4482,9.4639,9.4937,9.5137,9.5241,9.5241,9.5241,9.5241,0.0,0.0,0.0,0.0,0.0,0.0,0.0,0.0,0.0,0.0,0.0,0.0,0.0,0.0,0.0,0.0,0.0,0.0,0.0,0.0,0.0,5.8383,5.7771,5.79,5.8969,5.9004,5.9383,6.0185,6.0185,6.0565,6.1323,6.2126,6.2884,6.3609,0.0,0.0,0.0,0.0,0.0,6.4289,0.0,0.0,0.0,0.0,0.0,0.0,0.0,0.0,0.0,0.0,6.909,6.9331,6.9451,0.0,0.0,0.0,0.0,0.0,7.1957,7.3464,7.4833,7.4488,7.474,7.5246,7.596,7.5822,7.5753,7.6546,7.7316,7.8074,7.8764,7.9902,8.15,8.3776,8.5295,8.6537,8.7637,8.8298,8.8996,0.0,0.0,0.0,0.0,0.0,0.0,0.0,0.0,0.0,9.091,0.0,9.2722,9.3063,9.3833,9.4241,9.4241,9.4351,9.458,9.4911,9.477,9.4693,9.4721,9.4828,9.4744,9.4508,0.0,9.4485,9.4485,9.4313,9.4494,9.4913,9.5087,9.5226,9.5413,9.5413,9.5413,9.5413,0.0,0.0,0.0,0.0,0.0,0.0,0.0,0.0,0.0,0.0,0.0,0.0,0.0,0.0,0.0,0.0,0.0,0.0,0.0,0.0,5.8142,5.8142,5.8142,5.8418,5.9004,5.9176,5.959,6.0185,6.0565,6.1116,6.1841,6.2298,6.2884,6.3609,0.0,0.0,0.0,0.0,6.4703,6.4772,0.0,0.0,0.0,0.0,0.0,0.0,0.0,0.0,0.0,0.0,0.0,0.0,0.0,0.0,0.0,6.9708,7.0467,7.1543,7.1715,7.3315,7.4949,7.5121,7.5649,7.635,7.727,7.6846,7.6526,7.7455,7.8076,7.8615,7.9017,8.0957,8.3185,8.5189,8.6294,8.7216,8.8128,0.0,0.0,0.0,0.0,0.0,0.0,0.0,0.0,0.0,0.0,0.0,9.1343,9.2353,9.298,9.3135,9.3641,9.3889,9.3889,9.3889,9.4111,9.4485,9.4485,9.4614,9.482,9.4871,9.4899,9.4885,9.4679,9.46,9.4585,9.4322,9.4466,9.4834,9.4941,9.5171,9.5413,9.5413,9.5413,9.5413,0.0,0.0,0.0,0.0,0.0,0.0,0.0,0.0,0.0,0.0,0.0,0.0,0.0,0.0,0.0,0.0,0.0,0.0,0.0,0.0,5.8926,5.8926,5.8926,5.8935,5.9004,5.9728,6.0151,6.0185,6.1643,6.2712,6.3427,6.2781,6.2884,6.3574,0.0,0.0,0.0,0.0,0.0,6.4841,6.6334,0.0,0.0,0.0,0.0,0.0,0.0,0.0,0.0,0.0,0.0,0.0,0.0,0.0,7.0277,6.9538,7.0346,7.1646,7.2416,7.374,7.5087,7.5822,7.6074,7.6488,7.7971,7.7514,7.716,7.8647,7.8802,7.9199,8.0854,8.3044,8.4982,8.6302,8.6579,8.7146,8.8555,0.0,0.0,0.0,0.0,0.0,0.0,0.0,0.0,0.0,0.0,0.0,9.206,9.2626,0.0,9.3903,9.3728,9.3615,9.3615,9.3615,9.3923,9.4485,9.4485,9.45,9.4543,9.4792,9.4899,9.4899,9.4871,9.4871,9.4856,9.4842,9.4721,9.4585,9.5163,9.54,9.5413,9.5413,9.5413,9.5413,0.0,0.0,0.0,0.0,0.0,0.0,0.0,0.0,0.0,0.0,0.0,0.0,0.0,0.0,0.0,0.0,0.0,0.0,0.0,0.0,5.8314,5.8314,5.8763,5.9004,5.9004,5.9806,6.0427,6.0875,6.2436,6.3333,6.3609,6.3298,6.3333,6.3574,0.0,0.0,0.0,0.0,0.0,6.5575,6.7093,6.7679,0.0,0.0,0.0,0.0,0.0,0.0,0.0,0.0,6.8897,6.9311,6.9311,6.9828,7.0439,7.0611,7.106,7.1681,7.2485,7.3774,7.4983,7.527,7.6442,7.7695,7.8292,7.8454,7.8787,7.982,8.0581,0.0,0.0,8.3911,8.4797,8.5766,8.6143,8.6706,8.7728,8.8123,0.0,0.0,0.0,0.0,0.0,0.0,0.0,0.0,0.0,0.0,0.0,9.3447,9.3935,9.4005,9.3889,9.3777,9.3586,9.3586,9.3703,9.3937,9.3937,9.4024,9.4213,9.4494,9.4636,9.4636,9.4636,9.4523,9.4351,9.4351,9.4394,9.4557,9.5163,9.5413,9.5413,9.5413,9.5413,9.5413,0.0,0.0,0.0,0.0,0.0,0.0,0.0,0.0,0.0,0.0,0.0,0.0,0.0,0.0,0.0,0.0,0.0,0.0,5.6314,5.7314,5.8004,5.8245,5.8728,5.9107,5.9383,6.0151,6.0806,6.1289,6.2841,6.3609,6.3609,6.3367,6.3367,0.0,0.0,0.0,0.0,0.0,0.0,0.0,6.761,6.8083,0.0,0.0,0.0,0.0,0.0,0.0,0.0,0.0,6.8852,6.9345,6.9587,7.0163,7.0853,7.1336,7.1853,7.2336,7.2899,7.4154,7.5248,7.5171,7.6549,7.8052,7.8718,7.921,7.9863,8.086,8.187,8.2878,8.385,0.0,0.0,0.0,8.6206,8.6751,8.7749,8.8161,0.0,0.0,0.0,0.0,0.0,0.0,0.0,0.0,0.0,0.0,0.0,9.3842,9.4256,9.4005,9.3903,9.3791,9.3586,9.3586,9.3586,9.3586,9.3586,9.3747,9.4005,9.4256,9.44,9.4485,9.4485,9.4428,9.4294,9.4294,9.4616,9.5189,9.5754,9.5868,9.5758,9.5758,9.562,9.5413,0.0,0.0,0.0,0.0,0.0,0.0,0.0,0.0,0.0,0.0,0.0,0.0,0.0,0.0,0.0,0.0,0.0,0.0,5.7831,5.79,5.8245,5.8969,5.9004,5.9383,6.0185,6.0944,6.1314,6.1323,6.2841,6.3609,6.3574,6.285,6.2884,0.0,0.0,0.0,0.0,0.0,0.0,0.0,0.0,6.8083,0.0,0.0,0.0,0.0,0.0,0.0,0.0,0.0,6.9276,6.9414,7.0173,7.0887,7.1498,7.1508,7.2612,7.3785,7.3796,7.4912,7.6019,7.5751,7.6278,7.7331,7.9332,7.9819,8.0263,8.1825,8.2512,8.2959,8.342,8.3747,0.0,0.0,0.0,8.7414,8.8883,8.9086,8.9357,0.0,0.0,0.0,0.0,0.0,0.0,0.0,0.0,0.0,0.0,9.3741,9.399,9.399,9.3747,9.3586,9.3586,9.3586,9.3586,9.3586,9.3586,9.3747,9.399,9.399,9.4164,9.4485,9.4485,9.4671,9.4885,9.4919,9.5548,9.6544,9.7025,9.6924,9.6503,9.6503,9.6069,9.5413,0.0,0.0,0.0,0.0,0.0,0.0,0.0,0.0,0.0,0.0,0.0,0.0,0.0,0.0,0.0,0.0,0.0,0.0,5.7831,5.79,5.8245,5.8969,5.9521,5.9944,6.0185,6.147,6.2402,6.2919,6.3367,6.3609,6.3609,6.3367,0.0,6.4358,0.0,0.0,0.0,0.0,0.0,0.0,6.7576,6.8083,0.0,0.0,0.0,0.0,0.0,0.0,0.0,0.0,0.0,0.0,6.999,7.0542,7.1025,7.2657,7.3071,7.3233,7.4281,7.4925,7.5319,7.5613,7.7057,7.8531,7.8934,7.9877,8.1319,8.3701,8.4325,8.4386,8.4274,0.0,0.0,0.0,0.0,0.0,8.8139,8.8342,8.8612,8.9357,0.0,0.0,0.0,0.0,0.0,0.0,0.0,0.0,0.0,9.383,9.3903,9.3733,9.363,9.3586,9.3586,9.3586,9.3586,9.3586,9.3586,9.363,9.3733,9.3903,9.3932,9.3879,9.4083,9.4369,9.4826,9.5789,9.6492,9.7019,9.7402,9.7467,9.7345,9.7345,9.7207,9.7,0.0,0.0,0.0,0.0,0.0,0.0,0.0,0.0,0.0,0.0,0.0,0.0,0.0,0.0,0.0,0.0,0.0,0.0,0.0,5.8073,5.8383,5.9418,5.9944,6.0504,6.1091,6.2298,6.316,6.3609,6.3609,6.3609,6.3609,6.3919,6.4255,6.4703,0.0,6.5334,0.0,0.0,6.692,6.6851,6.7748,6.8083,6.8083,0.0,0.0,0.0,0.0,0.0,0.0,0.0,0.0,0.0,7.0094,7.0818,7.1657,7.3313,7.3681,7.3843,7.5063,7.5514,7.5771,7.6325,7.742,7.8579,7.9532,8.0771,8.2223,8.4075,8.4464,8.448,8.4586,8.4614,0.0,0.0,0.0,0.0,0.0,8.8443,8.8714,8.9444,8.9289,0.0,0.0,0.0,0.0,0.0,0.0,0.0,0.0,9.3578,9.3777,9.3601,9.3586,9.3586,9.3586,9.389,9.389,9.3586,9.389,9.4045,9.4026,9.3912,9.3917,9.4074,9.464,9.5029,9.537,9.6637,9.734,9.768,9.8225,9.8314,9.8138,9.8138,9.7931,9.769,0.0,0.0,0.0,0.0,0.0,0.0,0.0,0.0,0.0,0.0,0.0,0.0,0.0,0.0,0.0,0.0,0.0,0.0,0.0,0.0,5.8737,6.0151,6.0323,6.1091,6.2574,6.3264,6.3609,6.3609,6.3609,6.3609,6.3609,6.4358,6.4738,6.4841,0.0,6.6368,6.6989,6.7058,6.7438,6.8014,6.8083,6.8083,6.8083,6.8083,0.0,0.0,0.0,0.0,0.0,0.0,0.0,0.0,7.037,7.1415,7.2726,7.3485,7.4223,7.4949,7.5765,7.6367,7.6931,7.7452,7.7535,7.8155,8.0813,8.2161,8.2997,8.3509,8.3592,8.3828,8.4559,8.4728,8.5202,8.6758,8.755,0.0,0.0,8.9086,8.9357,9.0005,8.9526,0.0,0.0,0.0,0.0,0.0,0.0,0.0,0.0,9.3199,9.3586,9.3586,9.3586,9.3586,9.3586,9.4248,9.4282,9.3721,9.4383,9.474,9.4774,9.406,9.4112,9.4857,9.5818,9.6242,9.634,9.7401,9.8054,9.8401,9.9166,9.9185,9.8811,9.8811,9.8412,9.7854,0.0,0.0,0.0,0.0,0.0,0.0,0.0,0.0,0.0,0.0,0.0,0.0,0.0,0.0,0.0,0.0,0.0,0.0,0.0,0.0,5.984,6.0194,6.1367,6.2436,6.3333,6.354,6.3609,6.3609,6.3609,6.3609,0.0,0.0,0.0,6.5679,0.0,6.6851,6.7024,6.761,6.761,6.73,6.7886,6.8083,6.8083,6.8083,0.0,0.0,0.0,0.0,0.0,0.0,0.0,0.0,7.0232,7.1025,7.1922,7.2692,7.3451,7.4156,7.4752,7.5855,7.6862,7.7183,7.8414,8.0001,8.1765,8.2785,8.3556,8.4234,8.4356,8.4593,8.5398,8.5533,8.6027,8.7516,8.7888,8.8274,8.8984,8.9086,8.9154,8.9323,8.9187,0.0,0.0,0.0,0.0,0.0,0.0,0.0,9.3349,9.3518,9.3586,9.3586,9.3586,9.3586,9.3586,9.3755,9.406,0.0,9.4605,9.5011,9.5533,9.4789,9.4857,9.5601,9.6387,9.6756,9.682,9.7919,9.8406,9.8496,9.8941,9.9041,9.8964,9.8964,9.9024,9.9121,0.0,0.0,0.0,0.0,0.0,0.0,0.0,0.0,0.0,0.0,0.0,0.0,0.0,0.0,0.0,0.0,0.0,0.0,0.0,0.0,6.0918,6.1298,6.2402,6.3195,6.3609,6.3609,6.3609,6.3609,6.3609,0.0,0.0,0.0,0.0,6.6447,0.0,6.7541,6.7541,6.7955,6.7886,6.7576,6.7945,6.8083,6.8083,0.0,0.0,0.0,0.0,0.0,0.0,0.0,0.0,0.0,0.0,0.0,7.2233,7.3002,7.375,7.4503,7.5396,7.6405,7.7339,7.7954,7.9687,8.1447,8.2225,8.324,8.412,8.4512,8.4898,8.5317,8.5736,8.6379,8.709,8.7888,8.8308,8.8646,8.9052,8.9086,8.9086,8.9086,8.9086,8.939,0.0,0.0,0.0,0.0,0.0,9.3451,9.3064,9.3383,9.3586,9.3586,9.3586,9.3586,9.3586,9.4296,9.4654,9.4706,9.5432,9.5939,9.6326,9.5939,9.5939,9.636,9.7089,9.7428,9.7477,9.8018,9.8356,9.8523,9.869,9.8874,9.8994,9.8994,9.9203,9.9499,0.0,0.0,0.0,0.0,0.0,0.0,0.0,0.0,0.0,0.0,0.0,0.0,0.0,0.0,0.0,0.0,0.0,0.0,0.0,0.0,0.0,6.2643,6.3264,6.3609,6.3609,6.3609,6.3609,6.3609,0.0,0.0,0.0,0.0,0.0,6.7024,0.0,6.8024,6.7921,6.8059,6.8024,6.7921,6.8059,6.8083,0.0,0.0,0.0,0.0,0.0,0.0,0.0,0.0,0.0,0.0,0.0,0.0,7.283,7.3416,7.4212,7.5135,7.6141,7.7044,7.7991,7.9204,8.094,8.2428,8.2564,8.3646,8.4614,8.4614,8.5148,8.5669,8.5939,8.6974,8.7888,8.8158,8.8714,8.9086,8.9086,8.9086,8.9086,8.9086,8.9086,8.9458,9.0324,9.0932,0.0,0.0,0.0,9.3315,9.2643,9.3233,9.3586,9.3586,9.3586,9.3586,9.3586,9.4924,9.5364,9.4924,9.6394,9.7105,9.7105,9.7105,9.7105,9.7105,9.7732,9.7987,9.7987,9.7987,9.8157,9.8417,9.8417,9.8569,9.8829,9.8829,9.9054,9.9337,0.0,0.0,0.0,0.0,0.0,0.0,0.0,0.0,0.0,0.0,0.0,0.0,0.0,0.0,0.0,0.0,0.0,0.0,0.0,0.0,0.0,6.3436,6.354,6.3609,6.3609,6.3609,6.3609,6.3609,0.0,0.0,0.0,0.0,0.0,6.7024,0.0,0.0,6.7196,6.7817,6.7748,6.7196,6.7842,6.8083,0.0,0.0,0.0,0.0,0.0,0.0,0.0,0.0,7.0197,0.0,0.0,0.0,7.2726,7.283,7.3809,7.4905,7.4892,7.6518,7.8648,8.0534,8.1697,8.2564,8.3219,8.3984,8.4614,8.4614,8.4695,8.5168,8.6521,8.6893,8.7482,8.8748,8.9018,8.9086,8.9086,8.9086,8.9086,8.9086,8.9086,8.9627,9.1,9.1237,9.186,0.0,9.3484,9.3552,9.3451,9.3552,9.3586,9.3586,9.3586,9.3586,9.3586,9.4417,9.5127,9.5669,9.7157,9.7867,9.7867,9.7867,9.7867,9.7867,9.7969,9.7987,9.7987,9.7987,9.8018,9.8064,9.8064,9.808,9.8126,9.8126,9.834,9.8675,0.0,0.0,0.0,0.0,0.0,0.0,0.0,0.0,0.0,0.0,0.0,0.0,0.0,0.0,0.0,5.8884,6.0055,6.1185,0.0,0.0,0.0,6.3574,6.3609,6.3609,6.3609,6.3609,6.3609,6.3609,0.0,0.0,0.0,6.5895,6.6506,0.0,0.0,0.0,0.0,0.0,0.0,0.0,0.0,0.0,0.0,0.0,0.0,0.0,0.0,0.0,0.0,0.0,0.0,7.1577,7.2026,0.0,0.0,0.0,7.374,7.5182,7.6531,7.7868,7.921,8.0386,8.1562,8.2496,8.2813,8.4133,8.5283,8.5283,8.5608,8.6115,8.6758,8.7245,8.7854,8.8917,8.8748,8.8646,8.9052,8.9086,8.9086,8.9086,8.9458,8.9951,9.0628,9.1425,9.2203,9.2895,9.3349,9.3586,9.3586,9.3586,9.3586,9.3586,9.3586,9.3789,9.4214,9.4958,9.5905,9.7056,9.7683,9.7987,9.7987,9.7987,9.7987,9.7987,9.7987,9.7987,9.7987,9.7987,9.7987,9.7987,9.7987,9.7987,9.7987,9.7987,9.8325,9.8814,0.0,0.0,0.0,0.0,0.0,0.0,0.0,0.0,0.0,0.0,0.0,0.0,0.0,0.0,0.0,0.0,6.0623,6.2151,6.3505,0.0,0.0,6.3876,6.3885,6.3885,6.3885,6.3885,6.3781,0.0,0.0,0.0,6.593,6.6482,6.7334,0.0,6.8404,0.0,0.0,0.0,0.0,0.0,0.0,0.0,0.0,0.0,0.0,0.0,0.0,0.0,0.0,0.0,0.0,0.0,0.0,7.2692,0.0,0.0,0.0,7.5436,7.7762,7.8821,7.9374,8.0047,8.1156,8.2238,8.2598,8.3998,8.5263,8.5466,8.623,8.6893,8.6893,8.7516,8.8226,8.8984,8.8646,8.8477,8.9018,8.9086,8.9086,8.9086,8.9579,9.0087,9.0459,9.1459,9.2271,9.2677,9.3267,9.3586,9.3586,9.3586,9.3586,9.3586,9.3586,9.3943,9.4673,9.5601,9.6717,9.7987,9.7987,9.7987,9.7987,9.7987,9.7987,9.7987,9.7987,9.7987,9.7987,9.7987,9.7987,9.7987,9.7987,9.7987,9.7987,9.7987,9.831,9.8784,0.0,0.0,0.0,0.0,0.0,0.0,0.0,0.0,0.0,0.0,0.0,0.0,0.0,0.0,6.0926,6.0176,6.1539,6.2781,6.354,6.3609,6.3919,6.46,6.4634,0.0,6.4634,6.4634,0.0,0.0,0.0,0.0,6.5964,6.8103,6.9173,6.9242,6.9242,6.8818,6.8162,0.0,0.0,0.0,0.0,0.0,0.0,0.0,0.0,0.0,0.0,0.0,0.0,0.0,0.0,0.0,0.0,0.0,0.0,0.0,0.0,0.0,7.7169,7.8179,7.8992,7.9962,8.0796,8.171,8.3118,8.3524,8.3828,8.4525,8.5878,8.6893,8.6893,8.7516,8.8226,8.8984,8.9052,8.9052,8.9086,8.9086,8.9086,8.9086,8.912,8.9695,9.1102,9.1305,9.1947,9.3417,9.3586,9.3586,9.3586,9.3586,9.3586,9.3586,9.3586,9.3943,9.4673,9.6108,9.724,9.7987,9.7987,9.7987,9.7987,9.7987,9.7987,9.7987,9.7987,9.7987,9.7987,9.7987,9.7987,9.7987,9.7987,9.7987,9.7987,9.7987,9.8018,9.8126,0.0,0.0,0.0,0.0,0.0,0.0,0.0,0.0,0.0,0.0,0.0,0.0,0.0,0.0,6.2305,6.1548,6.2122,6.2816,6.354,6.3609,6.3919,6.4669,6.4703,6.4945,6.5472,6.4945,0.0,0.0,0.0,6.5403,6.593,6.7714,6.8828,6.9311,6.9311,6.9138,6.8852,6.8611,0.0,0.0,0.0,0.0,0.0,0.0,0.0,0.0,0.0,0.0,0.0,0.0,0.0,0.0,0.0,0.0,0.0,0.0,7.3927,7.4985,7.6277,7.7193,7.8028,7.9201,8.004,8.0864,8.1879,8.3186,8.4289,8.4546,8.5845,8.7028,8.7516,8.782,8.8226,8.8984,8.8714,8.8578,8.9018,8.9086,8.9086,8.9086,8.9512,8.9816,8.9864,9.0744,9.1508,9.2097,9.2116,9.2319,9.2778,9.2827,9.2827,9.2827,9.3808,9.489,9.609,9.7089,9.7732,9.7987,9.7987,9.7987,9.7987,9.7987,9.7987,9.7987,9.7987,9.7987,9.7987,9.7987,9.7987,9.7987,9.7987,9.7987,9.7987,9.7987,9.8141,9.8356,0.0,0.0,0.0,0.0,0.0,0.0,0.0,0.0,0.0,0.0,0.0,0.0,0.0,0.0,6.3293,6.3052,6.3397,6.385,6.4333,6.4368,6.4713,6.5428,6.5462,6.5713,6.6265,0.0,0.0,0.0,0.0,0.0,0.0,6.7783,6.8921,6.9656,6.9414,6.9449,0.0,0.0,0.0,6.8852,0.0,0.0,6.9725,0.0,0.0,0.0,0.0,0.0,0.0,0.0,0.0,0.0,0.0,0.0,0.0,0.0,0.0,7.4716,7.5923,7.6725,7.7444,7.8477,7.9295,8.0141,8.1393,8.2813,8.4005,8.4512,8.5845,8.7062,8.755,8.8023,8.8545,8.9018,8.868,8.8545,8.9018,8.9086,8.9086,8.9086,8.9512,8.9748,8.9492,9.056,9.1406,9.1643,9.1677,0.0,9.2373,9.2392,9.2508,9.2778,9.4267,9.5533,9.6529,9.7495,9.7987,9.7987,9.7987,9.7987,9.7987,9.7987,9.7987,9.7987,9.7987,9.7987,9.7987,9.7987,9.7987,9.7987,9.7987,9.7987,9.7987,9.7987,9.8141,9.8356,0.0,0.0,0.0,0.0,0.0,0.0,0.0,0.0,0.0,0.0,0.0,0.0,0.0,0.0,0.0,6.4669,6.5437,6.5895,6.5895,6.5895,6.624,6.6955,6.6989,6.7024,0.0,0.0,0.0,0.0,0.0,0.0,0.0,0.0,6.969,7.037,6.9656,6.9725,7.0404,0.0,7.037,7.0346,0.0,6.9749,7.0601,0.0,0.0,0.0,7.4065,7.4234,0.0,0.0,0.0,0.0,0.0,0.0,0.0,0.0,0.0,0.0,0.0,0.0,0.0,7.7846,7.8517,7.9621,8.1786,8.2327,8.2767,8.4242,8.5777,8.6859,8.6893,8.8091,8.9052,8.9086,8.9086,8.9086,8.9086,8.9086,8.9086,8.9086,8.9086,8.939,9.0106,9.0831,9.1575,9.2305,9.2373,9.2373,9.2373,9.2373,9.2745,9.362,9.5041,9.577,9.5838,9.7258,9.7987,9.7987,9.7987,9.7987,9.7987,9.7987,9.7987,9.7987,9.7987,9.7987,9.7987,9.7987,9.7987,9.7987,9.7987,9.7987,9.7987,9.7987,9.7987,9.8049,0.0,0.0,0.0,0.0,0.0,0.0,0.0,0.0,0.0,0.0,0.0,0.0,0.0,0.0,0.0,6.5506,6.5782,6.5895,6.5895,6.5895,6.624,6.6955,6.6989,6.7265,6.7773,0.0,0.0,0.0,0.0,6.6989,6.7024,0.0,0.0,0.0,7.0208,7.0197,7.0335,6.9197,0.0,0.0,6.9587,7.0302,0.0,0.0,0.0,0.0,0.0,7.4092,0.0,0.0,7.506,7.5251,0.0,0.0,0.0,0.0,0.0,0.0,7.4297,0.0,0.0,0.0,0.0,0.0,7.9621,8.0445,8.1224,8.2699,8.4187,8.5574,8.669,8.7685,8.8477,8.9018,8.9086,8.9086,8.9086,8.9086,8.9086,8.9086,8.9086,8.9187,8.939,9.0053,9.0831,0.0,9.1609,9.1609,9.1609,9.1609,9.2455,9.4349,9.4789,9.5533,9.6597,9.7003,9.7461,9.7987,9.7987,9.7987,9.7987,9.7987,9.7987,9.7987,9.7987,9.7987,9.7987,9.7987,9.7987,9.7987,9.7987,9.7987,9.7987,9.7987,9.7987,9.8003,0.0,0.0,0.0,0.0,0.0,0.0,0.0,0.0,0.0,0.0,0.0,0.0,0.0,0.0,0.0,0.0,6.6644,6.6817,6.6817,6.6817,6.7024,6.7438,6.7472,6.7679,6.8093,6.7591,0.0,0.0,0.0,0.0,0.0,0.0,0.0,0.0,0.0,0.0,0.0,0.0,0.0,0.0,7.0509,0.0,0.0,7.3367,7.3999,0.0,0.0,0.0,7.5548,7.6169,7.615,0.0,0.0,0.0,0.0,0.0,0.0,0.0,0.0,0.0,0.0,0.0,0.0,0.0,7.9228,8.0378,8.146,8.2611,8.4289,8.5845,8.6724,8.7753,8.8612,8.9018,8.9086,8.9086,8.9086,8.9086,8.9086,8.9086,8.9086,8.9221,8.9526,9.0222,9.0966,9.1696,9.1474,9.1305,9.1305,9.1305,9.2184,9.418,9.4537,9.5263,9.6428,9.6732,9.7274,9.7987,9.7987,9.7987,9.7987,9.7987,9.7987,9.7987,9.7987,9.7987,9.7987,9.7987,9.7987,9.7987,9.7987,9.7987,9.7987,9.7987,9.7987,9.7987,0.0,0.0,0.0,0.0,0.0,0.0,0.0,0.0,0.0,0.0,0.0,0.0,0.0,0.0,0.0,0.0,6.7788,6.8098,6.8221,6.8133,6.8088,6.8088,6.8088,6.8078,6.8014,6.7889,6.7889,0.0,0.0,0.0,0.0,0.0,0.0,0.0,0.0,0.0,0.0,0.0,0.0,7.0657,7.1742,7.2689,0.0,0.0,7.5424,0.0,7.7131,7.7501,7.7366,7.798,0.0,0.0,0.0,0.0,0.0,0.0,7.4943,0.0,0.0,0.0,0.0,0.0,0.0,0.0,7.9532,8.0987,8.2225,8.2983,8.4945,8.6555,8.6623,8.7854,8.8849,8.8849,8.8917,8.9018,8.9086,8.9086,8.9086,8.9086,8.9154,8.9492,9.014,9.0932,9.1677,9.2237,9.1677,9.1338,9.1406,9.1406,9.2097,9.3552,9.4248,9.4958,9.5804,9.6462,9.7206,9.7987,9.7987,9.7987,9.7987,9.7987,9.7987,9.7987,9.7987,9.7987,9.7987,9.7987,9.7987,9.7987,9.7987,9.7987,9.7987,9.7987,9.7987,9.8021,0.0,0.0,0.0,0.0,0.0,0.0,0.0,0.0,0.0,0.0,0.0,0.0,0.0,0.0,0.0,0.0,6.8589,6.819,6.9025,6.8313,6.7869,6.7869,6.7869,6.7789,6.7608,6.7739,6.7739,6.7608,0.0,0.0,0.0,0.0,0.0,0.0,0.0,0.0,0.0,0.0,0.0,7.1658,7.1512,0.0,7.3946,7.5421,7.6221,7.6699,7.7593,7.7907,7.7781,0.0,7.7232,7.6892,0.0,0.0,0.0,0.0,0.0,0.0,0.0,0.0,0.0,0.0,0.0,0.0,7.7468,7.8686,7.9959,8.0682,8.2611,8.4323,8.4931,8.6318,8.7347,8.7347,8.782,8.8409,8.9018,8.9086,8.9086,8.9086,8.9613,9.0053,9.0174,9.1392,9.2,9.1541,9.1372,9.1575,9.2136,9.2203,9.2624,9.3552,9.3755,9.4466,9.577,9.5939,9.6683,9.7987,9.7987,9.7987,9.7987,9.7987,9.7987,9.7987,9.7987,9.7987,9.7987,9.7987,9.7987,9.7987,9.7987,9.7987,9.7987,9.7987,9.7987,9.8089,0.0,0.0,0.0,0.0,0.0,0.0,0.0,0.0,0.0,0.0,0.0,0.0,0.0,0.0,0.0,0.0,0.0,0.0,0.0,6.8015,6.7759,6.7648,6.7749,6.7709,6.7486,6.752,6.752,6.752,6.7587,0.0,0.0,0.0,0.0,0.0,0.0,0.0,0.0,0.0,7.0916,7.2268,7.3229,0.0,7.5147,7.6512,7.7443,7.8044,7.8416,7.8788,7.8982,7.836,7.8159,0.0,0.0,7.6853,7.6539,0.0,0.0,7.5818,0.0,0.0,0.0,7.6183,0.0,0.0,0.0,7.916,8.031,8.0661,8.2218,8.3727,8.4444,8.554,8.6467,8.6825,8.7516,8.7989,8.7989,8.8646,8.9086,8.9086,8.9424,8.9782,9.014,9.0884,9.1155,9.0797,9.1102,9.1474,9.1831,9.1831,9.2387,9.3552,9.3958,9.4687,9.577,9.6157,9.6886,9.7987,9.7987,9.7987,9.7987,9.7987,9.7987,9.7987,9.7987,9.7987,9.7987,9.7987,9.7987,9.7987,9.7987,9.7987,9.7987,9.7987,9.7987,9.8104,0.0,0.0,0.0,0.0,0.0,0.0,0.0,0.0,0.0,0.0,0.0,0.0,0.0,0.0,0.0,0.0,0.0,0.0,0.0,0.0,6.7813,6.7663,6.7793,6.7885,6.7796,6.7695,6.7695,6.7796,6.7837,6.8213,6.8932,0.0,0.0,0.0,0.0,0.0,0.0,0.0,0.0,7.3229,0.0,7.6198,7.5982,7.7452,7.8382,7.8911,7.9215,7.9701,8.0073,7.935,0.0,7.8978,7.8225,7.7988,0.0,0.0,0.0,0.0,0.0,0.0,0.0,0.0,0.0,7.8314,0.0,0.0,0.0,8.0898,8.2048,8.3287,8.4052,8.4708,8.5351,8.5946,8.6771,8.711,8.6352,8.7651,8.8748,8.8883,8.9154,8.956,9.014,9.0208,9.0208,9.0208,9.0763,9.1135,9.1271,9.144,9.215,9.3552,9.4315,9.506,9.5804,9.6529,9.7274,9.7987,9.7987,9.7987,9.7987,9.7987,9.7987,9.7987,9.7987,9.7987,9.7987,9.7987,9.7987,9.7987,9.7987,9.7987,9.7987,9.7987,9.7987,9.8104,0.0,0.0,0.0,0.0,0.0,0.0,0.0,0.0,0.0,0.0,0.0,0.0,0.0,0.0,0.0,0.0,0.0,0.0,6.9449,0.0,0.0,6.8219,6.824,6.8451,6.8918,6.909,6.9056,6.8918,6.9111,6.9451,7.0023,7.0515,0.0,0.0,7.0697,0.0,0.0,0.0,7.3331,0.0,7.7099,7.6569,0.0,7.7188,7.8056,7.8293,7.96,8.0141,8.0073,0.0,7.9114,7.8978,0.0,7.7988,0.0,0.0,0.0,0.0,0.0,0.0,0.0,0.0,7.8416,0.0,0.0,0.0,8.0141,7.9486,0.0,8.1778,8.2496,0.0,0.0,8.2902,8.4086,8.4728,8.3998,8.579,8.738,8.8057,8.9275,9.0121,9.0174,9.0208,9.0208,9.0208,9.0275,9.0628,9.1271,9.1899,9.2677,9.3586,9.4315,9.506,9.5804,9.6529,9.7274,9.7987,9.7987,9.7987,9.7987,9.7987,9.7987,9.7987,9.7987,9.7987,9.7987,9.7987,9.7987,9.7987,9.7987,9.7987,9.7987,9.7987,9.7987,9.8104,0.0,0.0,0.0,0.0,0.0,0.0,0.0,0.0,0.0,6.9186,0.0,0.0,0.0,0.0,0.0,0.0,0.0,0.0,0.0,0.0,0.0,0.0,6.9111,0.0,6.9733,6.9414,6.9166,6.9113,6.9295,6.9669,7.0217,7.049,7.1114,7.1921,7.1717,0.0,7.3634,0.0,0.0,0.0,0.0,0.0,0.0,7.8247,7.9274,7.9375,7.9972,8.0209,8.0073,0.0,7.9384,0.0,0.0,0.0,0.0,0.0,0.0,0.0,0.0,0.0,0.0,0.0,0.0,0.0,0.0,0.0,8.0107,0.0,0.0,0.0,0.0,0.0,0.0,0.0,8.3646,8.4187,8.305,8.4809,8.6535,8.7279,8.7922,8.8449,8.8869,8.9715,9.0005,8.9579,8.9951,9.0512,9.1271,9.1609,9.2319,9.3552,9.4315,9.506,9.5804,9.6529,9.7274,9.7987,9.7987,9.7987,9.7987,9.7987,9.7987,9.7987,9.7987,9.7987,9.7987,9.7987,9.7987,9.7987,9.7987,9.7987,9.7987,9.7987,9.7987,9.8104,0.0,0.0,0.0,0.0,0.0,0.0,0.0,0.0,0.0,0.0,0.0,0.0,7.2326,7.2563,0.0,0.0,0.0,7.1921,0.0,0.0,7.0948,0.0,0.0,0.0,0.0,0.0,7.0195,6.9992,7.0157,7.0428,7.0815,7.0744,7.1434,7.2699,0.0,7.3341,7.4852,0.0,0.0,7.5867,7.642,7.686,7.7447,7.9228,8.0006,8.0209,8.0209,8.0209,8.0107,7.9587,7.9769,0.0,7.9553,0.0,0.0,0.0,0.0,0.0,7.88,0.0,0.0,0.0,0.0,0.0,0.0,0.0,0.0,0.0,0.0,0.0,0.0,0.0,0.0,0.0,0.0,8.3477,8.1989,8.3558,8.5215,8.6149,8.6623,8.7198,8.7922,8.897,8.9444,8.912,8.9579,9.0324,9.1237,9.1305,9.2029,9.3552,9.4315,9.506,9.5804,9.6529,9.7274,9.7987,9.7987,9.7987,9.7987,9.7987,9.7987,9.7987,9.7987,9.7987,9.7987,9.7987,9.7987,9.7987,9.7987,9.7987,9.7987,9.7987,9.8138,9.8341,0.0,6.6768,0.0,0.0,0.0,0.0,0.0,0.0,0.0,0.0,0.0,0.0,0.0,0.0,0.0,0.0,0.0,7.3116,7.236,0.0,7.2338,0.0,0.0,0.0,0.0,0.0,0.0,7.2293,7.2293,7.2304,7.2326,7.1616,7.2056,7.3421,7.271,7.3612,7.5676,7.5642,7.6927,7.8945,7.8978,7.9837,8.0966,0.0,7.9587,8.0209,8.0209,0.0,0.0,8.0175,8.0175,0.0,0.0,0.0,0.0,0.0,0.0,0.0,0.0,0.0,0.0,0.0,0.0,0.0,0.0,0.0,8.127,0.0,0.0,0.0,0.0,0.0,0.0,0.0,0.0,0.0,0.0,8.1562,8.3037,8.4512,8.598,8.7198,8.7922,8.8023,8.8361,8.9052,8.912,8.9763,9.1203,9.1305,9.2029,9.3552,9.4315,9.506,9.5804,9.6529,9.7274,9.7987,9.7987,9.7987,9.7987,9.7987,9.7987,9.7987,9.7987,9.7987,9.7987,9.7987,9.7987,9.7987,9.7987,9.7987,9.7987,9.7987,9.8442,9.895,0.0,0.0,0.0,0.0,0.0,0.0,0.0,6.9519,0.0,0.0,0.0,0.0,0.0,0.0,7.5168,0.0,0.0,7.5958,7.4661,7.5067,0.0,0.0,0.0,7.4695,0.0,0.0,0.0,0.0,0.0,7.3116,7.3116,7.2868,7.3274,7.4221,7.3984,7.51,0.0,0.0,0.0,0.0,0.0,7.9837,8.1934,0.0,0.0,8.1663,8.1663,8.1663,0.0,8.1663,8.1663,8.1663,8.1663,8.1663,8.1663,8.1663,8.182,0.0,0.0,0.0,8.234,8.0615,0.0,0.0,0.0,0.0,0.0,0.0,0.0,0.0,0.0,0.0,0.0,0.0,0.0,0.0,0.0,8.1372,8.2035,8.3037,8.4458,8.5675,8.6481,8.7428,8.8091,8.8342,8.8815,8.9526,9.0527,9.1034,9.1744,9.2778,9.3571,9.4552,9.577,9.6056,9.6785,9.7987,9.7987,9.7987,9.7987,9.7987,9.8273,9.8713,9.8713,9.8713,9.8781,9.9239,9.9171,9.8781,9.9273,9.9476,9.934,9.8359,9.8172,9.8476,6.8233,0.0,0.0,0.0,0.0,0.0,0.0,0.0,0.0,0.0,7.3364,0.0,7.598,0.0,7.6736,0.0,7.7718,7.7582,7.6589,7.6995,0.0,7.7299,7.6804,0.0,0.0,0.0,0.0,0.0,0.0,7.4436,7.3883,7.3883,7.4289,7.4987,7.4717,7.5879,7.7954,7.7481,7.7887,0.0,0.0,8.0627,0.0,0.0,8.2205,8.2395,0.0,8.2395,8.2395,8.2395,8.2395,8.2395,8.2395,8.2395,8.2395,8.2395,8.2598,8.2733,8.2462,8.2949,0.0,0.0,8.1697,0.0,0.0,0.0,0.0,0.0,0.0,0.0,0.0,0.0,0.0,0.0,0.0,0.0,0.0,8.0898,8.127,8.2293,8.3477,8.4728,8.6061,8.6805,8.755,8.8342,8.8578,8.9154,9.014,9.0899,9.1643,9.2358,9.3436,9.4552,9.577,9.6056,9.6785,9.7987,9.7987,9.7987,9.7987,9.7987,9.8273,9.8713,9.8713,9.8848,9.9135,9.9611,9.9678,9.9525,9.9712,9.9814,9.9712,9.9036,9.8765,9.8968,0.0,0.0,0.0,0.0,6.98,0.0,0.0,0.0,7.3827,0.0,7.598,7.6927,7.7063,7.7684,7.8124,7.8191,7.8225,0.0,7.8225,7.8225,0.0,0.0,7.8225,7.8191,7.8157,0.0,0.0,0.0,0.0,7.6137,7.4717,7.4683,7.5033,7.5676,7.4999,7.5946,7.7988,7.8022,7.8936,8.0378,8.1067,8.2251,8.3592,8.3558,0.0,8.2598,8.253,8.2496,8.2496,8.2496,8.2496,8.2496,8.2496,8.2496,8.2496,8.2496,8.3016,8.3389,8.2699,8.3016,8.3389,8.2665,0.0,0.0,0.0,0.0,8.3524,0.0,0.0,0.0,0.0,0.0,0.0,0.0,0.0,0.0,0.0,0.0,8.075,8.2225,8.3016,8.4302,8.6521,8.6163,8.665,8.8781,8.8342,8.8632,9.0073,9.0831,9.1575,9.2339,9.3861,9.506,9.5804,9.6529,9.7274,9.7987,9.7987,9.7987,9.7987,9.7987,9.8021,9.8055,9.8055,9.8442,9.9085,9.9153,9.9559,10.0084,9.9424,9.9153,9.9221,9.9881,10.0186,10.0321,6.9936,7.0804,7.1548,0.0,7.1278,7.1447,0.0,0.0,0.0,0.0,7.6284,7.7536,7.916,7.9498,8.0073,8.1177,8.1257,0.0,0.0,0.0,0.0,8.1257,8.1257,8.1021,8.0458,7.9917,0.0,7.8234,0.0,0.0,7.6318,7.5709,7.5506,7.5709,7.6149,7.6927,7.8022,7.8585,7.9993,8.1853,8.2035,8.3355,0.0,0.0,8.4898,8.5608,8.4458,8.4039,8.4039,8.4039,8.4039,8.4039,8.4039,8.4039,8.4039,8.4039,8.4187,8.4289,8.4086,8.4187,8.4275,8.4072,8.4039,8.3883,0.0,0.0,0.0,0.0,0.0,0.0,0.0,0.0,0.0,0.0,0.0,0.0,0.0,0.0,0.0,8.2225,8.2564,8.3152,8.4268,8.5229,8.6041,8.6582,8.7496,8.8395,8.9323,9.0087,9.0831,9.1575,9.3605,9.506,9.5804,9.6529,9.7274,9.7987,9.7987,9.7987,9.7987,9.7987,9.8307,9.8815,9.8815,9.8916,9.9153,9.9678,9.9712,9.9424,9.978,9.9915,9.9881,9.9525,9.9712,10.0321,7.1627,0.0,0.0,7.3781,0.0,0.0,7.407,0.0,0.0,7.6779,7.7963,0.0,8.056,8.0987,8.1481,8.2327,8.2395,0.0,0.0,0.0,0.0,8.2395,8.2395,8.2192,8.1799,8.1359,0.0,7.9587,0.0,0.0,7.6893,7.6758,7.6352,7.5743,7.6555,7.7312,7.809,7.9464,8.1346,8.3375,8.3375,0.0,0.0,8.5777,8.5946,8.6298,8.5452,8.51,8.5067,8.4715,8.4614,8.4614,8.4614,8.4614,8.4614,8.4614,8.4614,8.4681,8.5033,8.51,8.51,8.51,8.5371,8.5405,8.4674,8.508,8.5506,0.0,0.0,0.0,0.0,0.0,0.0,0.0,0.0,0.0,0.0,0.0,0.0,0.0,8.2395,8.2699,8.3422,8.4573,8.5554,8.623,8.7042,8.7854,8.8578,8.9918,9.0865,9.1271,9.3808,9.5364,9.5804,9.6853,9.7597,9.7987,9.7987,9.7987,9.7987,9.7987,9.824,9.8612,9.8612,9.8815,9.9119,9.9559,9.9645,9.9593,9.9678,9.9509,9.9273,9.9491,10.01,10.0811,0.0,0.0,0.0,0.0,0.0,0.0,0.0,7.7547,0.0,7.862,0.0,8.146,8.1523,8.2145,8.2564,0.0,0.0,8.2699,8.2699,8.2699,8.2699,8.2699,8.2699,8.2699,8.2699,8.2598,0.0,0.0,0.0,0.0,7.7063,7.7481,7.7041,7.5879,7.669,7.757,7.8563,8.0695,8.2707,8.4493,8.4696,8.5581,8.6761,8.6707,8.6302,8.5843,8.5783,8.5655,8.5425,8.4723,8.4419,8.4352,8.4352,8.4392,8.4453,8.4554,8.4615,8.4811,8.5615,8.5817,8.5851,8.5966,8.6459,8.675,8.6121,8.6459,8.6885,8.6817,8.6811,0.0,0.0,0.0,0.0,0.0,0.0,0.0,0.0,0.0,0.0,0.0,0.0,0.0,8.3592,8.4323,8.527,8.6521,8.669,8.711,0.0,0.0,9.1116,9.1271,9.4214,9.5804,9.5804,0.0,9.7987,9.7987,9.7987,9.7987,9.7987,9.7987,9.7987,9.7987,9.7987,9.8375,9.895,9.895,9.9322,9.9848,9.9221,9.8578,9.8156,9.9543,10.0608,10.13,0.0,0.0,0.0,0.0,0.0,7.8258,7.747,7.8969,8.0215,8.0405,8.1457,0.0,8.2742,8.3109,8.3558,8.414,8.4208,0.0,0.0,0.0,0.0,8.4208,8.4208,8.4208,8.4208,8.3625,8.2881,0.0,0.0,0.0,7.7785,7.6635,7.6318,7.6724,7.7481,7.8902,8.083,8.2421,0.0,8.3951,8.5192,8.5915,8.6185,8.5553,8.562,8.5981,8.5673,8.4924,8.4059,8.3925,8.3515,8.3112,8.3112,8.3293,8.3649,8.4269,8.4637,8.4999,8.577,8.5971,8.6105,8.6723,8.6958,8.7025,8.6891,8.6958,8.6877,8.6259,8.6335,8.6299,8.5679,0.0,0.0,0.0,0.0,0.0,0.0,0.0,0.0,0.0,0.0,8.4979,0.0,8.5114,8.5418,8.5019,8.5621,8.6582,0.0,0.0,9.0033,0.0,9.4214,0.0,0.0,0.0,9.7987,9.7987,9.7987,9.7987,9.7987,9.7987,9.7987,9.7987,9.7987,9.8055,9.819,9.819,9.8273,9.8359,9.8224,9.8104,9.8104,9.8984,9.9762,10.0592,0.0,0.0,0.0,0.0,0.0,0.0,0.0,8.0138,0.0,8.0329,8.1565,8.2656,8.3073,8.3677,8.4221,8.458,8.4614,8.4614,8.4614,8.4999,8.5033,8.4614,8.4999,0.0,8.4614,0.0,8.3511,8.2395,0.0,0.0,0.0,7.7638,7.7266,7.6961,7.8462,8.0065,8.1747,0.0,0.0,8.47,8.5625,8.6279,8.6641,8.6453,8.6378,8.6374,8.6326,8.5492,8.4426,8.4768,8.4704,8.4464,8.4464,8.4577,8.477,8.5138,8.5336,8.565,8.6353,8.6554,8.6626,8.6789,8.6997,8.7004,8.643,8.6615,8.6869,8.6841,8.7089,8.72,8.6767,8.6066,0.0,0.0,0.0,0.0,0.0,0.0,0.0,0.0,0.0,0.0,0.0,0.0,8.5466,8.4647,8.5351,0.0,0.0,0.0,8.9763,0.0,0.0,0.0,0.0,0.0,0.0,9.7987,9.7987,9.7987,9.8021,9.8409,9.8578,9.8578,9.8968,9.9137,9.9137,9.9137,9.8901,9.8612,9.9002,9.8901,9.8713,9.9879,10.0506,10.0912,0.0,7.7714,0.0,0.0,7.9416,0.0,8.0388,8.0596,8.0542,8.0115,8.1508,8.2611,8.2721,8.3638,8.4312,8.4548,8.4467,8.4568,8.4959,8.5493,8.5561,8.5006,8.5662,8.5723,8.5087,8.4931,8.4187,0.0,0.0,0.0,0.0,7.8754,7.8379,7.7586,7.9512,0.0,0.0,0.0,8.451,8.5567,8.5957,8.6441,8.6891,8.6861,8.6538,8.6115,8.632,8.5659,8.4826,8.5565,8.562,8.5387,8.5387,8.5344,8.532,8.5452,8.5577,8.58,8.6499,8.6655,8.6552,8.6255,8.6387,8.635,8.552,8.5815,8.6436,8.6975,8.7633,8.8032,8.7832,8.7284,0.0,0.0,0.0,0.0,0.0,0.0,0.0,0.0,0.0,0.0,8.4965,0.0,0.0,8.4647,8.5351,0.0,8.6859,0.0,0.0,0.0,0.0,9.4992,9.5567,0.0,9.7987,0.0,9.7987,9.7987,9.8037,9.8747,9.9085,9.9153,9.9881,10.022,10.022,10.022,9.9848,9.939,9.9983,9.9848,9.9491,10.0894,10.1402,10.1402,0.0,0.0,0.0,0.0,0.0,0.0,0.0,7.9642,8.0087,8.1106,8.1929,8.221,8.1611,8.2382,8.335,8.4344,8.404,8.4469,8.6109,8.5959,8.5919,8.6204,8.6587,8.6758,8.669,8.6027,8.5249,0.0,0.0,0.0,0.0,0.0,0.0,0.0,0.0,0.0,0.0,8.4091,8.4835,8.5621,8.603,8.6101,8.5811,8.454,8.4217,8.44,8.4137,8.3932,8.3965,8.4954,8.4429,8.3374,8.3374,8.3161,8.3045,8.3737,8.4148,8.4542,8.5176,8.5168,8.4933,8.4902,8.4681,8.4459,8.4347,8.4618,8.4999,8.5344,8.6648,8.7622,8.7171,8.781,8.8065,0.0,0.0,0.0,0.0,0.0,0.0,0.0,0.0,0.0,0.0,8.577,0.0,0.0,8.5351,0.0,0.0,0.0,0.0,9.0275,0.0,9.474,9.4808,9.6954,9.7987,9.7987,9.7987,9.7987,9.8037,9.8747,9.9085,9.9153,9.9881,10.022,10.022,10.022,10.0186,10.0118,10.0186,10.0186,10.0186,10.1097,10.1402,10.1503,0.0,0.0,0.0,0.0,0.0,0.0,0.0,8.0237,8.0713,8.1214,8.1809,8.213,8.2053,8.2917,8.3629,8.4072,8.3924,8.4139,8.4832,8.5583,8.5759,8.5277,8.6202,8.6406,8.5772,8.5472,8.4937,0.0,0.0,0.0,0.0,0.0,0.0,0.0,0.0,8.2555,8.303,8.4558,8.5399,8.5715,8.5687,8.5725,8.5708,8.4713,8.4439,8.4549,8.458,8.4886,8.5322,8.5707,8.5171,8.4378,8.4378,8.4284,8.424,8.4514,8.4705,8.4863,8.5122,8.4951,8.465,8.4443,8.3994,8.3539,8.3341,8.3391,8.3652,8.4123,8.5436,8.6702,8.7291,8.7419,8.7458,0.0,0.0,0.0,0.0,0.0,0.0,0.0,0.0,0.0,0.0,0.0,0.0,0.0,0.0,0.0,0.0,0.0,0.0,9.0831,0.0,9.4909,9.5364,9.7123,9.7987,9.7987,9.7987,9.7987,9.8037,9.9205,10.0303,10.1099,10.098,10.1183,10.1489,10.1115,10.0912,10.0996,10.1403,10.1302,10.1014,10.1792,10.2112,10.2096,7.8862,0.0,7.9257,0.0,8.0187,8.0595,8.0444,8.087,8.1218,8.1218,8.1711,8.206,8.2127,8.2865,8.3495,8.3814,8.3709,8.391,8.4545,8.5426,8.5714,8.5181,8.6192,0.0,8.567,8.5438,8.5059,8.4548,8.4014,0.0,0.0,0.0,0.0,0.0,8.2902,8.3443,8.3464,8.5055,8.5925,8.6216,8.5567,8.5614,8.6002,8.5133,8.4989,8.5246,8.5214,8.5567,8.5969,8.5647,8.5342,8.5133,8.5438,8.5149,8.478,8.5021,8.4844,8.4636,8.486,8.4361,8.3766,8.3759,8.3153,8.2513,8.2276,8.2324,8.2561,8.3195,8.4347,8.5591,8.6738,8.6611,8.663,0.0,0.0,0.0,0.0,0.0,0.0,0.0,0.0,8.6724,8.5405,8.527,0.0,0.0,0.0,0.0,0.0,0.0,0.0,0.0,0.0,0.0,0.0,9.7142,9.7987,9.7987,9.7987,9.8104,9.8375,9.9848,10.1318,10.2502,10.1893,10.1995,10.2502,10.1893,10.169,10.1808,10.2299,10.2198,10.1808,10.2299,10.2486,10.2486,7.9361,7.981,8.0096,8.0096,8.0696,8.1202,8.1186,8.1186,8.1218,8.1218,8.1771,8.1945,8.1281,8.1761,8.2553,8.3604,8.3286,8.3909,8.6034,8.5824,8.5923,0.0,0.0,8.719,8.719,8.6461,8.6097,8.6063,0.0,0.0,8.2282,0.0,8.1804,8.2923,8.3599,8.4546,8.5656,8.5694,8.6356,8.726,8.5855,8.5886,8.666,8.5301,8.5411,8.6183,8.5532,8.5311,8.5166,8.4103,8.4204,8.4989,8.5951,8.5107,8.384,8.4582,8.4058,8.336,8.403,8.2961,8.1787,8.2469,8.1852,8.1131,8.1131,8.1375,8.1819,8.2575,8.3474,8.4347,8.5093,8.5499,8.5918,8.6526,0.0,0.0,0.0,0.0,0.0,0.0,8.7761,8.7685,8.6927,8.6859,0.0,0.0,0.0,0.0,0.0,0.0,0.0,9.0208,9.3117,0.0,9.4706,9.6905,9.7987,9.7987,9.7987,9.8375,9.9135,10.0691,10.1808,10.2486,10.2502,10.2502,10.2486,10.2502,10.2502,10.2502,10.2486,10.2486,10.2502,10.2486,10.2486,10.2486,7.9874,8.0428,8.087,8.087,8.1407,8.1881,8.1881,8.2276,8.256,8.256,8.275,8.2813,8.2592,8.274,8.2982,0.0,8.3241,8.3418,0.0,8.4457,8.4679,8.4699,8.5268,8.5455,8.5236,8.4994,8.4974,8.5224,0.0,0.0,0.0,8.2877,8.3138,8.3827,8.4247,8.4932,8.5758,8.5772,8.6394,8.7268,8.5883,8.5776,8.6335,8.5214,8.4817,8.4836,8.4645,8.4841,8.5185,8.4827,8.4886,8.5223,8.6041,8.5275,8.4105,8.4324,8.4144,8.3933,8.4151,8.3594,8.3006,8.3223,8.2868,8.2451,8.2451,8.2199,8.2155,8.2827,8.2843,8.303,8.3994,8.4825,8.5512,8.5928,0.0,0.0,0.0,0.0,0.0,0.0,0.0,8.7719,0.0,8.7333,0.0,0.0,0.0,0.0,0.0,0.0,0.0,0.0,9.3876,0.0,9.5466,9.7157,9.7987,9.7987,9.7987,9.863,9.9881,10.0912,10.1792,10.2502,10.2011,10.1995,10.2502,10.2011,10.1978,10.2486,10.2486,10.2486,10.2486,10.2486,10.2486,10.2486,8.0846,8.1465,8.1927,8.1797,8.2194,8.2576,8.2576,8.2939,8.3224,8.3224,8.3445,8.3619,8.3619,8.3824,0.0,8.3255,8.3224,8.3241,8.3421,8.3814,8.4153,8.4359,8.4748,8.5005,8.5051,0.0,0.0,8.5358,8.4684,8.4439,8.4544,8.4176,8.4262,8.4812,8.5309,8.5691,8.6023,8.6275,8.6797,8.7284,8.6176,8.603,8.6381,8.5496,8.5091,8.5011,8.5011,8.526,8.5555,8.513,8.5188,8.5388,8.545,8.5055,8.4559,8.473,8.4491,8.4231,8.4479,8.3993,8.3477,8.3724,8.3441,8.3036,8.2789,8.2605,8.2512,8.2686,8.2586,8.2804,8.3884,8.4596,8.5262,8.5997,0.0,8.7018,0.0,0.0,0.0,0.0,0.0,0.0,0.0,8.8632,0.0,0.0,0.0,0.0,0.0,0.0,0.0,9.2165,9.4518,0.0,9.6225,9.7394,9.7987,9.8003,9.8562,9.9306,10.0204,10.1318,10.2112,10.2502,10.1995,10.2096,10.2502,10.1995,10.2096,10.2486,10.2486,10.2486,10.2486,10.2486,10.2486,10.2486,8.2103,8.2694,0.0,0.0,8.3005,0.0,8.33,8.33,8.3317,8.3333,8.3935,8.4363,8.4363,8.4915,8.4772,8.346,0.0,0.0,0.0,8.3892,8.4324,8.5257,8.5305,8.5576,8.6232,8.6232,8.6232,8.6232,8.5264,8.5281,8.6119,8.52,8.5114,8.5812,8.6511,8.6642,8.6366,8.6995,8.7279,8.7279,8.6602,8.6486,8.6655,8.6045,8.5974,8.6237,8.6237,8.6237,8.6041,8.5064,8.5139,8.547,8.448,8.4588,8.5184,8.5557,8.495,8.4311,8.4926,8.4188,8.3405,8.4003,8.3695,8.3097,8.2451,8.2759,8.3005,8.2358,8.2697,8.3415,8.4444,8.4667,8.5161,8.6545,8.6501,8.6542,8.7231,0.0,0.0,0.0,0.0,0.0,0.0,9.0512,9.1595,0.0,0.0,0.0,0.0,0.0,9.2131,9.3552,9.5075,9.6225,9.6902,9.7631,9.7987,9.8021,9.9509,10.022,10.0287,10.1809,10.2486,10.2486,10.2486,10.2486,10.2486,10.2504,10.252,10.2486,10.2504,10.252,10.2486,10.2486,10.2486,10.2486,0.0,0.0,8.2648,8.3349,8.3325,8.3479,8.4318,8.4415,8.4517,8.477,8.493,8.5073,8.5073,8.5183,8.5151,8.4835,8.4803,8.4837,8.4938,8.4938,8.5034,8.5308,8.5308,8.5372,8.553,8.553,8.553,8.553,8.5033,8.4779,8.4771,8.453,8.4796,8.5459,8.5882,8.6277,8.6631,8.6003,8.6037,8.651,8.5755,8.5684,8.5939,8.5783,8.5582,8.5382,8.5382,8.5382,8.5352,8.5089,8.5115,8.5189,8.4945,8.4988,8.5129,8.5202,8.506,8.4896,8.508,8.4865,8.4649,8.4834,8.4742,8.4588,8.4434,8.4126,8.3818,8.3664,8.3344,8.3256,8.3849,8.4372,8.5062,8.6233,8.6356,8.6621,8.7555,8.7879,0.0,0.0,8.9665,9.0432,9.0103,9.1319,9.1629,0.0,0.0,0.0,0.0,9.2827,9.3214,9.3586,9.5582,9.6732,9.6902,9.7631,9.7987,9.8021,9.9509,10.022,10.0287,10.1809,10.2486,10.2486,10.2486,10.2486,10.252,10.2193,10.2192,10.2504,10.2193,10.2192,10.2486,10.2486,10.2486,10.2486,8.1875,8.2555,8.3233,8.3593,8.3669,8.3846,8.4444,8.4679,8.4867,8.5055,8.5508,8.5749,8.5561,8.5982,8.6205,8.6017,8.5554,8.5309,8.5309,8.5309,8.5452,8.5785,8.58,8.5926,8.6242,8.6257,8.6257,8.6257,8.6081,8.5807,8.545,8.545,8.5553,8.5758,8.5944,8.6127,8.6263,8.5884,8.5841,8.601,8.5796,8.5699,8.5701,8.5701,8.5437,8.5111,8.5111,8.5111,8.5111,8.5111,8.5111,8.5111,8.5111,8.5111,8.5111,8.5111,8.5111,8.5111,8.5111,8.5111,8.5111,8.5111,8.5111,8.5019,8.4711,8.4588,8.4465,8.4157,8.4034,8.4159,8.4533,8.4921,8.5307,8.5783,8.5838,8.6033,8.659,8.7229,0.0,8.8511,8.9936,9.0828,9.0697,9.1901,9.2238,9.1106,0.0,0.0,9.3421,9.418,9.4695,9.4883,9.6065,9.6841,9.7178,9.7723,9.8001,9.8075,9.9329,10.0105,10.0297,10.1492,10.1997,10.1997,10.1997,10.1997,10.1981,10.18,10.18,10.2014,10.18,10.1898,10.2209,10.2096,10.2193,10.2504,8.2358,8.3253,8.4002,8.3784,8.399,8.4244,8.439,8.4734,8.4958,8.5027,8.5822,8.6269,8.5923,8.6669,8.7148,8.6892,8.6137,8.5669,8.5625,8.5625,8.5895,8.6529,8.6561,8.6828,8.738,8.7412,8.7377,8.7325,8.7251,8.7028,8.6543,8.6613,8.6451,8.6063,8.6157,8.5987,8.5629,8.5987,8.5934,8.5647,8.5987,8.5916,8.5611,8.5611,8.5382,8.5111,8.5111,8.5111,8.5111,8.5111,8.5111,8.5111,8.5111,8.5111,8.5111,8.5111,8.5111,8.5111,8.5111,8.5111,8.5111,8.5111,8.5111,8.4957,8.4372,8.468,8.4957,8.4372,8.4711,8.522,8.5629,8.5701,8.5663,8.5477,8.5324,8.521,8.5207,0.0,8.7081,8.8039,8.9804,9.096,9.1101,9.2242,9.2935,9.2718,9.3324,9.4019,0.0,9.5492,9.6016,9.6333,9.6464,9.6835,9.7409,9.7809,9.8057,9.8123,9.9186,9.9892,10.02,10.0902,10.1304,10.1303,10.1304,10.1304,10.1303,10.1203,10.1187,10.1187,10.1187,10.1403,10.17,10.1503,10.18,10.2308,8.333,8.3335,8.353,8.4365,8.4298,8.4412,8.5334,8.5534,8.5694,8.6,8.6199,8.6311,8.624,8.6387,8.6668,8.719,8.739,8.7365,8.711,8.7064,8.7127,8.7222,8.7254,8.7285,8.7412,8.7412,8.7224,8.6875,8.6673,8.6183,8.5469,8.5801,8.5609,8.4971,8.5561,8.5575,8.5202,8.5256,8.5256,8.5202,8.5256,8.5256,8.5184,8.5184,8.5147,8.5111,8.5111,8.5111,8.5111,8.5111,8.5111,8.5111,8.5111,8.5111,8.5111,8.5111,8.5111,8.5111,8.5111,8.5111,8.5111,8.5111,8.5111,8.508,8.4957,8.5019,8.508,8.4957,8.5019,8.522,8.5629,8.5701,8.5792,8.6105,8.5364,8.4807,8.4862,0.0,8.6352,8.7418,8.9342,9.0815,9.1461,9.2224,9.2803,9.3099,9.3717,9.4417,9.5173,9.5899,9.6216,9.599,9.686,9.7245,9.708,9.7748,9.8085,9.8107,9.92,9.9735,9.9819,10.0315,10.0598,10.0918,10.0597,10.0598,10.0801,10.0291,10.0205,10.0512,10.0512,10.0699,10.1003,10.1303,10.1503,10.1585,8.3847,8.4036,8.4334,8.4822,8.4758,8.4796,8.5315,8.5867,8.6313,8.648,8.702,8.7292,8.7063,8.7256,8.7417,8.7529,8.7886,8.8138,8.8215,8.8412,8.836,8.7963,8.8328,8.8518,8.8518,8.8324,8.8113,8.7935,8.7604,8.6958,8.6014,8.6192,8.581,8.4932,8.5241,8.5274,8.5111,8.5111,8.5111,8.5111,8.5111,8.5111,8.5111,8.5111,8.5111,8.5111,8.5111,8.5111,8.5111,8.5111,8.5111,8.5111,8.5111,8.5111,8.5111,8.5111,8.5111,8.5111,8.5111,8.5111,8.5111,8.5111,8.5111,8.5111,8.5111,8.5111,8.5111,8.5111,8.5111,8.5166,8.5328,8.5364,8.5328,8.5147,8.4536,0.0,0.0,8.5426,8.6492,8.7534,8.9382,9.0762,9.13,9.1606,9.1923,9.2304,9.297,9.3755,9.4708,9.5413,9.5842,9.5956,9.6434,9.644,9.5853,9.6976,9.7541,9.7575,9.8601,9.9227,9.9452,9.9627,9.9655,9.962,9.9446,9.9359,9.9273,9.894,9.9043,9.9359,9.9359,9.9845,10.0496,10.0513,10.0885,10.1387,8.4342,8.4742,8.5111,8.5111,8.5234,8.5308,8.5308,8.618,8.6826,8.6826,8.7533,8.7917,8.7623,8.7862,8.7979,8.784,8.8184,8.8593,8.9059,8.9488,8.9361,8.8549,8.8951,8.9199,8.9199,8.8926,8.8697,8.8625,8.8408,8.7703,8.6547,8.6669,8.6134,8.5111,8.5265,8.5265,8.5111,8.5265,8.5234,8.5111,8.5111,8.5203,8.5327,8.5173,8.5203,8.5327,8.5173,8.5111,8.5111,8.5111,8.5203,8.5327,8.5142,8.5203,8.5296,8.5142,8.5111,8.5111,8.5111,8.5111,8.5111,8.5111,8.5111,8.5111,8.5111,8.5111,8.5111,8.5111,8.5111,8.5111,8.5111,8.5111,8.4914,8.4344,0.0,0.0,0.0,8.5251,8.6496,8.7523,8.9317,9.0669,9.1207,9.1384,9.1643,9.2057,9.2673,9.3369,9.4268,9.4934,9.5323,9.5325,9.5623,9.5557,9.5136,9.6397,9.7071,9.7178,9.8071,9.8607,9.881,9.8722,9.8562,9.8347,9.8257,9.8063,9.7883,9.7792,9.7919,9.8239,9.8508,9.9113,9.9913,9.9911,10.041,10.112,8.5019,8.508,8.5111,8.5111,8.5616,8.6016,8.6016,8.6669,8.7168,8.7168,8.7217,8.7266,8.7229,8.7248,8.7513,8.8122,8.8508,8.9048,8.9687,9.0122,8.9867,8.8913,8.8571,8.8372,8.8372,8.8354,8.8172,8.7794,8.8136,8.7575,8.6164,8.6511,8.6134,8.5142,8.5739,8.5678,8.5142,8.5739,8.5665,8.5111,8.5111,8.5462,8.5955,8.5357,8.5511,8.5924,8.5308,8.5111,8.5111,8.5111,8.5493,8.5924,8.5296,8.5542,8.5893,8.5278,8.5111,8.5111,8.5111,8.5111,8.5111,8.5111,8.5111,8.5111,8.5111,8.5111,8.5111,8.5111,8.5111,8.5111,8.5111,8.5111,8.5004,8.4683,0.0,0.0,8.367,8.4591,8.5661,8.6752,8.8741,9.0464,9.155,9.2204,9.286,9.3596,9.396,9.4189,9.4288,9.498,9.4792,9.3456,9.4435,9.5285,9.5906,9.6695,9.7211,9.7478,9.7925,9.7973,9.7606,9.7254,9.7272,9.7551,9.7199,9.7236,9.7497,9.7144,9.7015,9.7144,9.8203,9.8636,9.8864,9.9878,10.0308,10.0377,8.5111,8.5111,8.5111,8.5111,8.5327,8.5616,8.6047,8.6743,8.7346,8.7777,8.8189,8.8436,8.8436,8.8436,8.8528,8.8805,8.8956,8.9268,8.976,8.9716,8.9712,8.983,8.9233,8.911,8.9597,8.9338,8.9153,8.9004,8.8892,8.8149,8.6773,8.6921,8.6335,8.5111,8.5388,8.5357,8.5111,8.537,8.5555,8.5708,8.5708,8.6158,8.6743,8.6496,8.6281,8.6139,8.6342,8.6096,8.577,8.625,8.6558,8.665,8.5924,8.5893,8.5955,8.5296,8.5111,8.5111,8.5111,8.5111,8.5111,8.5111,8.5111,8.5111,8.5111,8.5111,8.5111,8.5111,8.5111,8.5111,8.5111,8.5111,8.5073,8.4953,0.0,8.4211,8.449,8.5259,8.6295,8.7642,8.9291,9.0879,9.2243,9.2213,9.2375,9.3106,9.3071,9.3191,9.366,9.3925,9.377,9.3229,9.3334,9.3807,9.4573,9.5563,9.6311,9.683,9.7193,9.7291,9.7125,9.6978,9.6848,9.6742,9.6575,9.6463,9.6369,9.6219,9.6425,9.6978,9.7643,9.8365,9.9058,9.9755,10.0102,10.0308,8.5111,8.5111,8.5111,8.5111,8.548,8.5911,8.6373,8.7235,8.7974,8.8436,8.8928,8.9205,8.9205,8.9205,8.9205,8.9205,8.9205,8.9319,8.9603,8.9357,8.9452,8.9985,8.9538,8.9507,9.0004,8.9772,8.9622,8.9622,8.9338,8.8497,8.7192,8.7192,8.6435,8.5111,8.5308,8.5296,8.5142,8.5573,8.5838,8.5925,8.614,8.6662,8.7295,8.708,8.6877,8.6804,8.7081,8.6866,8.6527,8.702,8.7346,8.7327,8.6404,8.6109,8.6016,8.5555,8.5573,8.5727,8.548,8.5401,8.5339,8.5142,8.5111,8.5111,8.5111,8.5265,8.5357,8.5142,8.5265,8.5401,8.5401,8.5401,8.5401,8.5401,8.5019,8.4834,8.508,8.613,8.7276,8.8275,9.0056,9.1652,9.2697,9.2522,9.2571,9.3072,9.264,9.2469,9.2713,9.2572,9.2549,9.263,9.2456,9.2734,9.3586,9.4638,9.55,9.6173,9.6407,9.65,9.65,9.65,9.6369,9.6107,9.6107,9.5956,9.571,9.571,9.6031,9.6588,9.7093,9.7879,9.874,9.9389,9.9842,10.0187,8.5111,8.5111,8.5111,8.5111,8.625,8.7192,8.7223,8.8343,8.9205,8.9205,8.9205,8.9205,8.9205,8.9205,8.9205,8.9205,8.9205,8.9205,8.9205,8.9205,8.9205,8.9205,8.9205,8.9205,8.9205,8.9205,8.9205,8.9205,8.9205,8.8528,8.7223,8.7223,8.6453,8.5142,8.5801,8.5739,8.5203,8.6589,8.6532,8.5591,8.6233,8.6935,8.7535,8.6783,8.723,8.8097,8.7469,8.7223,8.7223,8.7223,8.7666,8.7974,8.6539,8.6109,8.6109,8.6109,8.6619,8.702,8.6293,8.6078,8.5924,8.5265,8.5111,8.5111,8.5111,8.5634,8.5893,8.5247,8.5647,8.6109,8.6109,8.6109,8.6109,8.6109,8.6109,8.5862,8.5203,8.6998,8.8391,8.8391,9.1018,9.2779,9.2796,9.3394,9.3783,9.3783,9.3104,9.2329,9.1538,9.1088,9.1047,9.1406,9.178,9.2438,9.3403,9.4184,9.4977,9.571,9.5691,9.5691,9.5691,9.5691,9.5691,9.5691,9.5691,9.571,9.571,9.571,9.571,9.5786,9.6561,9.7148,9.7624,9.8775,9.9459,9.984,8.6466,8.6558,8.6558,8.6558,8.6915,8.7377,8.7839,8.822,8.8682,8.9144,8.9205,8.9205,8.9205,8.9205,8.9205,8.9205,8.9205,8.9205,8.9205,8.9205,8.9205,8.9205,8.9205,8.9205,8.9205,8.9205,8.9205,8.9205,8.9205,8.8743,8.7881,8.7881,8.7143,8.5832,8.6558,8.6466,8.5862,8.6804,8.7104,8.6985,8.7199,8.7676,8.8276,8.8062,8.8065,8.822,8.8497,8.8282,8.7974,8.8436,8.8743,8.8743,8.7851,8.6896,8.6109,8.6109,8.5924,8.5665,8.548,8.5419,8.5357,8.5142,8.5111,8.5111,8.5111,8.5634,8.6047,8.5832,8.6373,8.6866,8.6866,8.6866,8.6712,8.617,8.6109,8.6016,8.5832,8.6807,8.792,8.8902,9.022,9.1276,9.1814,9.2077,9.2204,9.2204,9.1989,9.1393,9.0377,9.042,9.075,9.1356,9.1419,9.2064,9.3395,9.3931,9.4561,9.5285,9.4966,9.4882,9.4882,9.4882,9.4882,9.485,9.517,9.5285,9.5304,9.5577,9.5862,9.6144,9.6388,9.6723,9.7167,9.7723,9.7832,9.7832,8.7112,8.7192,8.7192,8.7192,8.7438,8.7728,8.8128,8.8436,8.8743,8.9144,8.9205,8.9205,8.9205,8.9205,8.9205,8.9205,8.9205,8.9205,8.9205,8.9205,8.9205,8.9205,8.9205,8.9205,8.9205,8.9205,8.9205,8.9205,8.9205,8.8866,8.8189,8.8189,8.7604,8.6558,8.6989,8.6958,8.6589,8.7297,8.7501,8.7368,8.7611,8.7851,8.81,8.8274,8.8338,8.8412,8.8994,8.8774,8.8251,8.8682,8.862,8.8343,8.7912,8.7389,8.6927,8.6927,8.665,8.6281,8.6004,8.5727,8.5432,8.5173,8.5111,8.5173,8.545,8.6035,8.6466,8.6139,8.6681,8.7192,8.7192,8.7192,8.7161,8.6958,8.6927,8.6835,8.6589,8.739,8.8347,8.9198,9.0167,9.096,9.1465,9.1502,9.1375,9.1033,9.1046,9.0711,8.9993,9.0163,9.071,9.1672,9.1624,9.216,9.3316,9.3538,9.3988,9.4611,9.4378,9.4339,9.4495,9.4495,9.4495,9.4514,9.4766,9.4862,9.4882,9.5119,9.5368,9.5596,9.5748,9.6069,9.6487,9.6992,9.7139,9.7263,8.7377,8.7377,8.7377,8.7377,8.7881,8.8282,8.8282,8.8805,8.9205,8.9205,8.9205,8.9205,8.9205,8.9205,8.9205,8.9205,8.9205,8.9205,8.9205,8.9205,8.9205,8.9205,8.9205,8.9205,8.9205,8.9205,8.9205,8.9205,8.9205,8.8897,8.8282,8.8282,8.7912,8.7284,8.7346,8.7346,8.7346,8.7906,8.768,8.7015,8.7553,8.7562,8.734,8.77,8.8128,8.8582,8.8957,8.8691,8.8187,8.8164,8.777,8.7284,8.7284,8.7685,8.8128,8.8189,8.8159,8.7974,8.7377,8.665,8.5955,8.5419,8.5234,8.5308,8.5893,8.6589,8.6896,8.6232,8.6681,8.7192,8.7192,8.7254,8.7451,8.8005,8.8159,8.7974,8.7377,8.839,8.9206,8.9268,9.0473,9.1302,9.1302,9.1302,9.1009,9.0271,9.0246,9.027,9.0179,9.0263,9.0898,9.2211,9.2241,9.2589,9.3295,9.3286,9.3444,9.383,9.387,9.4085,9.4456,9.4475,9.4495,9.4495,9.4533,9.4553,9.4553,9.4592,9.4611,9.465,9.4978,9.5311,9.5748,9.6481,9.6946,9.7405,8.8651,8.8774,8.8774,8.8774,8.8897,8.899,8.899,8.9113,8.9205,8.9205,8.9205,8.9205,8.9205,8.9205,8.9205,8.9205,8.9205,8.9205,8.9205,8.9205,8.9205,8.9205,8.9205,8.9205,8.9205,8.9205,8.9205,8.9205,8.9205,8.9144,8.899,8.899,8.862,8.8023,8.8528,8.8466,8.7955,8.7808,8.7726,8.7633,8.694,8.6896,8.732,8.7398,8.7681,8.807,8.8147,8.8075,8.795,8.7787,8.7834,8.7974,8.7974,8.7728,8.7512,8.8035,8.7839,8.7408,8.7254,8.665,8.6201,8.6619,8.6312,8.577,8.5419,8.585,8.6293,8.6139,8.6681,8.7192,8.7192,8.7623,8.7851,8.75,8.7851,8.8159,8.8005,8.8247,8.8637,8.9162,8.9498,8.9685,8.9685,8.9685,8.9628,8.944,8.9915,9.0209,9.019,9.0694,9.1496,9.2629,9.268,9.3176,9.4191,9.3909,9.3602,9.3365,9.3732,9.3948,9.4046,9.4358,9.4495,9.4514,9.4824,9.4978,9.4997,9.5311,9.5444,9.5425,9.5189,9.5151,9.5266,9.5438,9.5361,9.5406,8.9144,8.9205,8.9205,8.9205,8.9205,8.9205,8.9205,8.9205,8.9205,8.9205,8.9205,8.9205,8.9205,8.9205,8.9205,8.9205,8.9205,8.9205,8.9205,8.9205,8.9205,8.9205,8.9205,8.9205,8.9205,8.9205,8.9205,8.9205,8.9205,8.9205,8.9205,8.9015,8.8724,8.8398,8.8525,8.8399,8.8062,8.7821,8.7708,8.7553,8.6987,8.6851,8.7045,8.7222,8.7438,8.7622,8.7837,8.7683,8.7357,8.6929,8.7158,8.7611,8.7831,8.7876,8.7963,8.8502,8.8189,8.7685,8.7685,8.7143,8.6712,8.71,8.6896,8.6619,8.6589,8.6866,8.7112,8.7112,8.7143,8.7315,8.7623,8.7697,8.7839,8.8097,8.8436,8.8682,8.8682,8.8682,8.8805,8.9174,8.9205,8.9205,8.9205,8.9482,8.9698,8.9698,9.0294,9.0817,9.1156,9.1494,9.2085,9.2937,9.3214,9.3615,9.4203,9.4203,9.4066,9.3819,9.387,9.3987,9.4183,9.4397,9.4495,9.4514,9.4727,9.4804,9.4824,9.5023,9.5119,9.5119,9.5112,9.5093,9.5112,9.5323,9.5501,9.5824,8.9205,8.9205,8.9205,8.9205,8.9205,8.9205,8.9205,8.9205,8.9205,8.9205,8.9205,8.9205,8.9205,8.9205,8.9205,8.9205,8.9205,8.9205,8.9205,8.9205,8.9205,8.9205,8.9129,8.911,8.911,8.9034,8.9034,8.911,8.911,8.9072,8.8965,8.864,8.8486,8.8467,8.807,8.7895,8.7895,8.7696,8.7512,8.73,8.7101,8.6885,8.6748,8.7084,8.7202,8.7241,8.7564,8.7376,8.6888,8.6172,8.6381,8.6951,8.7356,8.7856,8.8391,8.8839,8.8596,8.8155,8.8261,8.7788,8.7314,8.7512,8.7469,8.7562,8.822,8.8189,8.8035,8.8035,8.7592,8.7377,8.7912,8.7685,8.7728,8.8866,8.9144,8.9205,8.9205,8.9205,8.9205,8.9205,8.9297,8.9421,8.9544,9.0048,9.0356,9.0356,9.1002,9.1617,9.2152,9.2325,9.2672,9.3295,9.3771,9.4027,9.4105,9.4436,9.4611,9.4592,9.4183,9.4203,9.4611,9.4669,9.4708,9.4708,9.4708,9.4708,9.4708,9.4708,9.4708,9.4746,9.5074,9.5208,9.5247,9.5577,9.6126,9.6779,8.9205,8.9205,8.9205,8.9205,8.9205,8.9205,8.9205,8.9205,8.9205,8.9205,8.9205,8.9205,8.9205,8.9205,8.9205,8.9205,8.9205,8.9205,8.9205,8.9205,8.9205,8.9205,8.885,8.8678,8.8678,8.8263,8.8263,8.8678,8.8678,8.8486,8.807,8.8011,8.7992,8.7992,8.7934,8.7895,8.7845,8.6901,8.6797,8.722,8.6296,8.6239,8.6728,8.6768,8.6788,8.6807,8.6837,8.7044,8.7138,8.6474,8.6544,8.6913,8.6951,8.705,8.7232,8.7868,8.8009,8.8025,8.846,8.8047,8.7786,8.8679,8.8497,8.822,8.8928,8.8159,8.7346,8.7346,8.7254,8.7223,8.7315,8.7728,8.8128,8.8312,8.8836,8.9205,8.9205,8.9205,8.9205,8.9205,8.9709,9.0294,9.0879,9.1002,9.1063,9.1063,9.171,9.209,9.2182,9.2745,9.3293,9.3791,9.4203,9.4592,9.4939,9.4997,9.5016,9.5016,9.4611,9.463,9.5036,9.5368,9.5539,9.5539,9.5539,9.5539,9.5539,9.5539,9.5539,9.5539,9.5596,9.5615,9.5634,9.5691,9.5786,9.6031,8.9205,8.9205,8.9205,8.9205,8.9205,8.9205,8.9205,8.9205,8.9205,8.9205,8.9205,8.9205,8.9205,8.9205,8.911,8.8869,8.9072,8.911,8.8869,8.885,8.8755,8.8505,8.8282,8.8205,8.8205,8.8011,8.7895,8.7886,8.8089,8.8089,8.7895,8.7661,8.7544,8.7575,8.7329,8.7231,8.7211,8.6714,8.6695,8.6936,8.6438,8.6439,8.6708,8.6708,8.6708,8.6708,8.6708,8.6827,8.6925,8.6605,8.6633,8.6829,8.7063,8.7121,8.724,8.7746,8.7895,8.7953,8.8147,8.8176,8.8253,8.8751,8.8788,8.8836,8.9144,8.8743,8.8312,8.8312,8.8005,8.7851,8.8251,8.8251,8.8312,8.8713,8.902,8.9205,8.9205,8.9544,8.9894,9.0263,9.0571,9.0879,9.1186,9.1556,9.1771,9.1771,9.2387,9.2776,9.2776,9.3053,9.3306,9.3504,9.3948,9.4242,9.4417,9.465,9.4766,9.4766,9.4572,9.4708,9.5112,9.5304,9.5482,9.571,9.571,9.571,9.571,9.571,9.571,9.571,9.571,9.571,9.571,9.571,9.571,9.5843]},{"header":{"parameterUnit":"m.s-1","parameterCategory":1,"la1":30.6,"la2":28.766,"lo1":-90.7593,"lo2":-88.6598,"dy":0.0162,"dx":0.0183,"nx":116,"ny":114,"refTime":"2023-03-15T12:00:00:Z","depth":0,"parameterNumber":3,"parameterNumberName":"V-component_of_WINDS"},"data":[0.0,0.0,0.0,0.0,0.0,0.0,0.0,0.0,0.0,0.0,0.0,0.0,0.0,0.0,0.0,0.0,0.0,0.0,0.0,0.0,0.0,0.0,0.0,0.0,0.0,0.0,0.0,0.0,0.0,0.0,0.0,0.0,0.0,0.0,0.0,0.0,0.0,0.0,0.0,0.0,0.0,0.0,0.0,0.0,0.0,0.0,0.0,0.0,0.0,0.0,0.0,0.0,0.0,0.0,0.0,0.0,0.0,0.0,0.0,0.0,0.0,0.0,0.0,0.0,0.0,0.0,0.0,0.0,0.0,0.0,0.0,0.0,0.0,0.0,0.0,0.0,0.0,0.0,0.0,0.0,0.0,0.0,0.0,0.0,0.0,0.0,0.0,0.0,0.0,0.0,0.0,0.0,0.0,0.0,0.0,0.0,0.0,0.0,0.0,0.0,0.0,0.0,0.0,0.0,0.0,0.0,0.0,0.0,0.0,0.0,0.0,0.0,0.0,0.0,0.0,0.0,0.0,0.0,0.0,0.0,0.0,0.0,0.0,0.0,0.0,0.0,0.0,0.0,0.0,0.0,0.0,0.0,0.0,0.0,0.0,0.0,0.0,0.0,0.0,0.0,0.0,0.0,0.0,0.0,0.0,0.0,0.0,0.0,0.0,0.0,0.0,0.0,0.0,0.0,0.0,0.0,0.0,0.0,0.0,0.0,0.0,0.0,0.0,0.0,0.0,0.0,0.0,0.0,0.0,0.0,0.0,0.0,0.0,0.0,0.0,0.0,0.0,0.0,0.0,0.0,0.0,0.0,0.0,0.0,0.0,0.0,0.0,0.0,0.0,0.0,0.0,0.0,0.0,0.0,0.0,0.0,0.0,0.0,0.0,0.0,0.0,0.0,0.0,0.0,0.0,0.0,0.0,0.0,0.0,0.0,0.0,0.0,0.0,0.0,0.0,0.0,0.0,0.0,0.0,0.0,0.0,0.0,0.0,0.0,0.0,0.0,0.0,0.0,0.0,0.0,0.0,0.0,0.0,0.0,0.0,0.0,0.0,0.0,0.0,0.0,0.0,0.0,0.0,0.0,0.0,0.0,0.0,0.0,0.0,0.0,0.0,0.0,0.0,0.0,0.0,0.0,0.0,0.0,0.0,0.0,0.0,0.0,0.0,0.0,0.0,0.0,0.0,0.0,0.0,0.0,0.0,0.0,0.0,0.0,0.0,0.0,0.0,0.0,0.0,0.0,0.0,0.0,0.0,0.0,0.0,0.0,0.0,0.0,0.0,0.0,0.0,0.0,0.0,0.0,0.0,0.0,0.0,0.0,0.0,0.0,0.0,0.0,0.0,0.0,0.0,0.0,0.0,0.0,0.0,0.0,0.0,0.0,0.0,0.0,0.0,0.0,0.0,0.0,0.0,0.0,0.0,0.0,0.0,0.0,0.0,0.0,0.0,0.0,0.0,0.0,0.0,0.0,0.0,0.0,0.0,0.0,0.0,0.0,0.0,0.0,0.0,0.0,0.0,0.0,0.0,0.0,0.0,0.0,0.0,0.0,0.0,0.0,0.0,0.0,0.0,0.0,0.0,0.0,0.0,0.0,0.0,0.0,0.0,0.0,0.0,0.0,0.0,0.0,0.0,0.0,0.0,0.0,0.0,0.0,0.0,0.0,0.0,0.0,0.0,0.0,0.0,0.0,0.0,0.0,0.0,0.0,0.0,0.0,0.0,0.0,0.0,0.0,0.0,0.0,0.0,0.0,0.0,0.0,0.0,0.0,0.0,0.0,0.0,0.0,0.0,0.0,0.0,0.0,0.0,0.0,0.0,0.0,0.0,0.0,0.0,0.0,0.0,0.0,0.0,0.0,0.0,0.0,0.0,0.0,0.0,0.0,0.0,0.0,0.0,0.0,0.0,0.0,0.0,0.0,0.0,0.0,0.0,0.0,0.0,0.0,0.0,0.0,0.0,0.0,0.0,0.0,0.0,0.0,0.0,0.0,0.0,0.0,0.0,0.0,0.0,0.0,0.0,0.0,0.0,0.0,0.0,0.0,0.0,0.0,0.0,0.0,0.0,0.0,0.0,0.0,0.0,0.0,0.0,0.0,0.0,0.0,0.0,0.0,0.0,0.0,0.0,0.0,0.0,0.0,0.0,0.0,0.0,0.0,0.0,0.0,0.0,0.0,0.0,0.0,0.0,0.0,0.0,0.0,0.0,0.0,0.0,0.0,0.0,0.0,0.0,0.0,0.0,0.0,0.0,0.0,0.0,0.0,0.0,0.0,0.0,0.0,0.0,0.0,0.0,0.0,0.0,0.0,0.0,0.0,0.0,0.0,0.0,0.0,0.0,0.0,0.0,0.0,0.0,0.0,0.0,0.0,0.0,0.0,0.0,0.0,0.0,0.0,0.0,0.0,0.0,0.0,0.0,0.0,0.0,0.0,0.0,0.0,0.0,0.0,0.0,0.0,0.0,0.0,0.0,0.0,0.0,0.0,0.0,0.0,0.0,0.0,0.0,0.0,0.0,0.0,0.0,0.0,0.0,0.0,0.0,0.0,0.0,0.0,0.0,0.0,0.0,0.0,0.0,0.0,0.0,0.0,0.0,0.0,0.0,0.0,0.0,0.0,0.0,0.0,0.0,0.0,0.0,0.0,0.0,0.0,0.0,0.0,0.0,0.0,0.0,0.0,0.0,0.0,0.0,0.0,0.0,0.0,0.0,0.0,0.0,0.0,0.0,0.0,0.0,0.0,0.0,0.0,0.0,0.0,0.0,0.0,0.0,0.0,0.0,0.0,0.0,0.0,0.0,0.0,0.0,0.0,0.0,0.0,0.0,0.0,0.0,0.0,0.0,0.0,0.0,0.0,0.0,0.0,0.0,0.0,0.0,0.0,0.0,0.0,0.0,0.0,0.0,0.0,0.0,0.0,0.0,0.0,0.0,0.0,0.0,0.0,0.0,0.0,0.0,0.0,0.0,0.0,0.0,0.0,0.0,0.0,0.0,0.0,0.0,0.0,0.0,0.0,0.0,0.0,0.0,0.0,0.0,0.0,0.0,0.0,0.0,0.0,0.0,0.0,0.0,0.0,0.0,0.0,0.0,0.0,0.0,0.0,0.0,0.0,0.0,0.0,0.0,0.0,0.0,0.0,0.0,0.0,0.0,0.0,0.0,0.0,0.0,0.0,0.0,0.0,0.0,0.0,0.0,0.0,0.0,0.0,0.0,0.0,0.0,0.0,0.0,0.0,0.0,0.0,0.0,0.0,0.0,0.0,0.0,0.0,0.0,0.0,0.0,0.0,0.0,0.0,0.0,0.0,0.0,0.0,0.0,0.0,0.0,0.0,0.0,0.0,0.0,0.0,0.0,0.0,0.0,0.0,0.0,0.0,0.0,0.0,0.0,0.0,0.0,0.0,0.0,0.0,0.0,0.0,0.0,0.0,0.0,0.0,0.0,0.0,0.0,0.0,0.0,0.0,0.0,0.0,0.0,0.0,0.0,0.0,0.0,0.0,0.0,0.0,0.0,0.0,0.0,0.0,0.0,0.0,0.0,0.0,0.0,0.0,0.0,0.0,0.0,0.0,0.0,0.0,0.0,0.0,0.0,0.0,0.0,0.0,0.0,0.0,0.0,0.0,0.0,0.0,0.0,0.0,0.0,0.0,0.0,0.0,0.0,0.0,0.0,0.0,0.0,0.0,0.0,0.0,0.0,0.0,0.0,0.0,0.0,0.0,0.0,0.0,0.0,0.0,0.0,0.0,0.0,0.0,0.0,0.0,0.0,0.0,0.0,0.0,0.0,0.0,0.0,0.0,0.0,0.0,0.0,0.0,0.0,0.0,0.0,0.0,0.0,0.0,0.0,0.0,0.0,0.0,0.0,0.0,0.0,0.0,0.0,0.0,0.0,0.0,0.0,0.0,0.0,0.0,0.0,0.0,0.0,0.0,0.0,0.0,0.0,0.0,0.0,0.0,0.0,0.0,0.0,0.0,0.0,0.0,0.0,0.0,0.0,0.0,0.0,0.0,0.0,0.0,0.0,0.0,0.0,0.0,0.0,0.0,0.0,0.0,0.0,0.0,0.0,0.0,0.0,0.0,0.0,0.0,0.0,0.0,0.0,0.0,0.0,0.0,0.0,0.0,0.0,0.0,0.0,0.0,0.0,0.0,0.0,0.0,0.0,0.0,0.0,0.0,0.0,0.0,0.0,0.0,0.0,0.0,0.0,0.0,0.0,0.0,0.0,0.0,0.0,0.0,0.0,0.0,0.0,0.0,0.0,0.0,0.0,0.0,0.0,0.0,0.0,0.0,0.0,0.0,0.0,0.0,0.0,0.0,0.0,0.0,0.0,0.0,0.0,0.0,0.0,0.0,0.0,0.0,0.0,0.0,0.0,0.0,0.0,0.0,0.0,0.0,0.0,0.0,0.0,0.0,0.0,0.0,0.0,0.0,0.0,0.0,0.0,0.0,0.0,0.0,0.0,0.0,0.0,0.0,0.0,0.0,0.0,0.0,0.0,0.0,0.0,0.0,0.0,0.0,0.0,0.0,0.0,0.0,0.0,0.0,0.0,0.0,0.0,0.0,0.0,0.0,0.0,0.0,0.0,0.0,0.0,0.0,0.0,0.0,0.0,0.0,0.0,0.0,0.0,0.0,0.0,0.0,0.0,0.0,0.0,0.0,0.0,0.0,0.0,0.0,0.0,0.0,0.0,0.0,0.0,0.0,0.0,0.0,0.0,0.0,0.0,0.0,0.0,0.0,0.0,0.0,0.0,0.0,0.0,0.0,0.0,0.0,0.0,0.0,0.0,0.0,0.0,0.0,0.0,0.0,0.0,0.0,0.0,0.0,0.0,0.0,0.0,0.0,0.0,0.0,0.0,0.0,0.0,0.0,0.0,0.0,0.0,0.0,0.0,0.0,0.0,0.0,0.0,0.0,0.0,0.0,0.0,0.0,0.0,0.0,0.0,0.0,0.0,0.0,0.0,0.0,0.0,0.0,0.0,0.0,0.0,0.0,0.0,0.0,0.0,0.0,0.0,0.0,0.0,0.0,0.0,0.0,0.0,0.0,0.0,0.0,0.0,0.0,0.0,0.0,0.0,0.0,0.0,0.0,0.0,0.0,0.0,0.0,0.0,0.0,0.0,0.0,0.0,0.0,0.0,0.0,0.0,0.0,0.0,0.0,0.0,0.0,0.0,0.0,0.0,0.0,0.0,0.0,0.0,0.0,0.0,0.0,0.0,0.0,0.0,0.0,0.0,0.0,0.0,0.0,0.0,0.0,0.0,0.0,0.0,0.0,0.0,0.0,0.0,0.0,0.0,0.0,0.0,0.0,0.0,0.0,0.0,0.0,0.0,0.0,0.0,0.0,0.0,0.0,0.0,0.0,0.0,0.0,0.0,0.0,0.0,0.0,0.0,0.0,0.0,0.0,0.0,0.0,0.0,0.0,0.0,0.0,0.0,0.0,0.0,0.0,0.0,0.0,0.0,0.0,0.0,0.0,0.0,0.0,0.0,0.0,0.0,0.0,0.0,0.0,0.0,0.0,0.0,0.0,0.0,0.0,0.0,0.0,0.0,0.0,0.0,0.0,0.0,0.0,0.0,0.0,0.0,0.0,0.0,0.0,0.0,0.0,0.0,0.0,0.0,0.0,0.0,0.0,0.0,0.0,0.0,0.0,0.0,0.0,0.0,0.0,0.0,0.0,0.0,0.0,0.0,0.0,0.0,0.0,0.0,0.0,0.0,0.0,0.0,0.0,0.0,0.0,0.0,0.0,0.0,0.0,0.0,0.0,0.0,0.0,0.0,0.0,0.0,0.0,0.0,0.0,0.0,0.0,0.0,0.0,0.0,0.0,0.0,0.0,0.0,0.0,0.0,0.0,0.0,0.0,0.0,0.0,0.0,0.0,0.0,0.0,0.0,0.0,0.0,0.0,0.0,0.0,0.0,0.0,0.0,0.0,0.0,0.0,0.0,0.0,0.0,0.0,0.0,0.0,0.0,0.0,0.0,0.0,0.0,0.0,0.0,0.0,0.0,0.0,0.0,0.0,0.0,0.0,0.0,0.0,0.0,0.0,0.0,0.0,0.0,0.0,0.0,0.0,0.0,0.0,2.1708,0.0,0.0,0.0,0.0,0.0,0.0,0.0,0.0,0.0,0.0,0.0,0.0,0.0,0.0,0.0,0.0,0.0,0.0,0.0,0.0,0.0,0.0,0.0,0.0,0.0,0.0,0.0,0.0,0.0,0.0,0.0,0.0,0.0,0.0,0.0,0.0,0.0,0.0,0.0,2.3374,2.3525,2.3715,2.3893,2.3711,2.3219,0.0,0.0,0.0,0.0,0.0,0.0,0.0,0.0,0.0,0.0,0.0,0.0,0.0,0.0,0.0,0.0,0.0,0.0,0.0,0.0,0.0,0.0,0.0,0.0,0.0,0.0,0.0,0.0,0.0,0.0,0.0,0.0,0.0,0.0,0.0,0.0,0.0,0.0,0.0,0.0,0.0,0.0,0.0,0.0,0.0,0.0,0.0,0.0,0.0,0.0,0.0,0.0,0.0,0.0,0.0,0.0,0.0,0.0,0.0,0.0,0.0,0.0,0.0,0.0,0.0,0.0,0.0,0.0,0.0,0.0,0.0,2.2298,0.0,0.0,0.0,0.0,0.0,0.0,0.0,0.0,0.0,0.0,0.0,0.0,0.0,0.0,0.0,0.0,0.0,0.0,0.0,0.0,0.0,0.0,0.0,0.0,2.2416,2.3009,2.3074,2.3245,0.0,0.0,0.0,0.0,0.0,0.0,0.0,2.3481,2.3668,2.3668,2.3943,2.4279,2.4677,2.4905,2.4738,2.4229,2.3921,0.0,0.0,0.0,0.0,0.0,0.0,0.0,0.0,0.0,0.0,0.0,0.0,0.0,0.0,0.0,0.0,0.0,0.0,0.0,0.0,0.0,0.0,0.0,0.0,0.0,0.0,0.0,0.0,0.0,0.0,0.0,0.0,0.0,0.0,0.0,0.0,0.0,0.0,0.0,0.0,0.0,0.0,0.0,0.0,0.0,0.0,0.0,0.0,0.0,0.0,0.0,0.0,0.0,0.0,0.0,0.0,0.0,0.0,0.0,0.0,0.0,0.0,0.0,0.0,2.3361,2.3582,2.3785,2.3714,2.347,2.3563,2.3394,2.3081,0.0,0.0,0.0,0.0,0.0,0.0,0.0,0.0,0.0,0.0,0.0,0.0,0.0,0.0,0.0,0.0,0.0,0.0,0.0,0.0,0.0,0.0,2.2962,2.3351,2.3736,2.3769,2.3913,0.0,0.0,0.0,0.0,0.0,0.0,2.343,2.4048,2.4383,2.4383,2.4697,2.5024,2.535,2.5123,2.5221,2.5615,2.5051,2.4787,2.4771,0.0,0.0,0.0,0.0,0.0,0.0,0.0,0.0,0.0,0.0,0.0,0.0,0.0,0.0,0.0,0.0,0.0,0.0,0.0,0.0,0.0,0.0,0.0,0.0,0.0,0.0,0.0,0.0,0.0,0.0,0.0,0.0,0.0,0.0,0.0,0.0,0.0,0.0,0.0,0.0,0.0,2.101,2.1027,0.0,0.0,0.0,0.0,0.0,0.0,0.0,0.0,0.0,0.0,0.0,0.0,0.0,0.0,2.3794,2.4974,2.5621,2.572,2.4989,2.4654,2.4693,2.4314,2.4128,2.4115,2.4641,0.0,2.3679,2.3705,0.0,0.0,0.0,0.0,0.0,0.0,0.0,0.0,0.0,0.0,0.0,0.0,0.0,0.0,0.0,0.0,0.0,0.0,0.0,0.0,0.0,2.3294,2.3769,2.4139,2.4172,2.4242,2.4398,2.3977,0.0,0.0,0.0,2.3725,2.3725,2.4381,2.4906,2.5297,2.5902,2.6264,2.6415,2.6672,2.6951,2.7179,2.692,2.6369,2.5616,2.5624,0.0,0.0,0.0,0.0,0.0,0.0,0.0,0.0,0.0,0.0,0.0,0.0,0.0,0.0,0.0,0.0,0.0,0.0,0.0,0.0,0.0,0.0,0.0,0.0,0.0,0.0,0.0,0.0,0.0,0.0,0.0,0.0,0.0,0.0,0.0,0.0,0.0,0.0,0.0,2.1556,2.1969,2.1937,2.2214,2.2247,0.0,0.0,0.0,0.0,0.0,0.0,0.0,0.0,0.0,2.42,2.4471,2.4887,2.5458,2.6082,2.6564,2.6949,2.6587,2.6492,2.6628,2.6421,2.6344,2.6321,2.6153,2.5836,2.5419,2.4597,2.4155,2.4008,0.0,0.0,0.0,0.0,0.0,2.4548,0.0,0.0,0.0,0.0,0.0,0.0,0.0,0.0,0.0,0.0,0.0,0.0,2.3115,2.3698,2.4175,2.4476,2.4608,2.4608,2.451,2.4284,0.0,2.4019,2.4033,2.4082,2.4151,2.5012,2.5744,2.6341,2.7039,2.7379,2.7379,2.7945,2.8186,2.8203,2.8322,2.77,2.6647,2.6741,2.6485,2.5977,0.0,0.0,0.0,0.0,0.0,0.0,0.0,0.0,0.0,0.0,0.0,0.0,0.0,0.0,0.0,0.0,0.0,0.0,0.0,0.0,0.0,0.0,0.0,0.0,0.0,0.0,0.0,0.0,0.0,0.0,0.0,0.0,0.0,0.0,0.0,0.0,0.0,2.2448,2.2966,2.2898,2.3154,2.3154,0.0,0.0,0.0,0.0,0.0,0.0,2.4851,2.4662,2.4899,2.5749,2.5927,2.6376,2.7134,2.7404,2.7812,2.8293,2.8104,2.8111,2.8311,2.8159,2.8152,2.8221,2.7698,2.7515,2.7452,2.559,2.4711,2.4543,2.4543,2.4543,2.4596,2.5037,2.5197,2.5224,0.0,0.0,0.0,0.0,0.0,0.0,0.0,0.0,0.0,0.0,0.0,2.3479,2.4067,2.4501,2.4754,2.4771,2.5124,2.5189,2.4805,2.4828,2.4707,2.4384,2.4384,2.4522,2.4844,2.6259,2.7158,2.7503,2.7929,2.8134,2.815,2.8169,2.8186,2.8219,2.8596,2.8527,2.8067,2.7706,2.7498,2.7344,2.6695,0.0,0.0,0.0,0.0,0.0,0.0,0.0,0.0,0.0,0.0,0.0,0.0,0.0,0.0,0.0,0.0,0.0,0.0,0.0,0.0,0.0,0.0,0.0,0.0,0.0,0.0,0.0,0.0,0.0,0.0,0.0,0.0,0.0,0.0,0.0,0.0,0.0,0.0,2.3933,2.3928,0.0,0.0,0.0,0.0,2.4976,2.5233,2.5857,2.6974,2.6326,2.6413,2.7524,2.8188,2.8542,2.8591,2.9596,3.0121,3.0153,2.9461,2.914,2.9118,2.8604,2.8588,2.8968,2.9178,2.9446,2.9521,2.663,2.5445,2.5432,2.5432,2.5432,2.5432,2.5459,2.5472,2.5472,0.0,0.0,0.0,0.0,0.0,0.0,0.0,0.0,2.2629,2.2686,2.3383,2.3955,2.4172,2.4562,2.4799,2.4799,2.5169,2.5337,2.5203,2.5207,2.5255,2.536,2.5167,2.544,2.6291,2.6837,2.7379,2.798,2.839,2.869,2.8913,2.9123,2.9373,2.9616,2.9773,2.9756,2.9598,2.9195,2.8573,2.7885,2.7799,2.724,0.0,0.0,0.0,0.0,0.0,0.0,0.0,0.0,0.0,0.0,0.0,0.0,0.0,0.0,0.0,0.0,0.0,0.0,0.0,0.0,0.0,0.0,0.0,0.0,0.0,0.0,0.0,0.0,0.0,0.0,0.0,0.0,0.0,0.0,0.0,0.0,0.0,2.4955,2.5379,0.0,0.0,2.5345,2.5815,2.6064,2.6149,2.6698,2.7775,2.7782,2.8031,2.8645,2.9149,2.9638,3.01,3.071,3.1125,3.1328,3.1279,3.1257,3.1238,3.107,3.1057,3.1161,3.0748,3.063,3.061,2.8997,2.79,2.716,2.6381,2.5959,2.5844,2.6032,2.6079,2.6106,0.0,0.0,0.0,0.0,0.0,0.0,0.0,0.0,2.3125,2.3197,2.3788,2.4254,2.4391,2.4631,2.485,2.5001,2.5343,2.558,2.558,2.558,2.5669,2.5882,2.5943,2.6332,2.7071,2.7588,2.8064,2.8564,2.9089,2.9441,2.9683,2.9912,3.0149,3.0411,3.0411,3.0482,3.0571,3.0291,2.9661,2.8853,2.8768,2.8241,2.7461,0.0,0.0,0.0,0.0,0.0,0.0,0.0,0.0,0.0,0.0,0.0,0.0,0.0,0.0,0.0,0.0,0.0,0.0,0.0,0.0,0.0,0.0,0.0,0.0,0.0,0.0,0.0,0.0,0.0,0.0,0.0,0.0,0.0,0.0,0.0,2.6304,2.6101,2.6606,2.666,2.5881,2.6423,2.6988,2.7448,2.7605,2.8054,2.8866,2.9105,2.9458,2.9921,3.0304,3.0874,3.1629,3.1714,3.1934,3.231,3.236,3.2392,3.2392,3.2392,3.2475,3.2582,3.2047,3.1687,3.1452,3.056,2.9589,2.8529,2.7543,2.6838,2.6466,2.6633,2.67,2.674,0.0,0.0,0.0,0.0,0.0,0.0,0.0,2.2936,2.3378,2.41,2.419,2.4374,2.4764,2.4799,2.4967,2.5386,2.572,2.5899,2.5914,2.5914,2.5916,2.5948,2.6711,2.7152,2.717,2.8581,2.933,2.9331,3.0054,3.0411,3.0429,3.0429,3.0445,3.0461,3.0461,3.0674,3.1044,3.098,3.0731,3.032,2.9558,2.9442,2.9583,0.0,0.0,0.0,0.0,0.0,0.0,0.0,0.0,0.0,0.0,0.0,0.0,0.0,0.0,0.0,0.0,0.0,0.0,0.0,0.0,0.0,0.0,0.0,0.0,0.0,0.0,0.0,0.0,0.0,0.0,0.0,0.0,0.0,2.6525,2.7848,2.8543,2.7462,2.7601,2.7763,2.7672,2.8013,2.8513,2.9169,2.9601,2.9974,3.0312,3.0376,3.0737,3.1453,3.1803,3.2369,3.3145,3.2705,3.2686,3.3141,3.2682,3.2444,3.2444,3.2444,3.2654,3.3008,3.3008,3.2675,3.2066,3.1191,3.0317,2.9488,2.8844,2.8077,2.7302,2.7302,2.7302,2.7302,0.0,0.0,0.0,0.0,0.0,0.0,0.0,2.3143,2.3606,2.3798,2.4302,2.4679,2.4785,2.4799,2.505,2.5697,2.5849,2.5998,2.6258,2.6314,2.6473,2.6762,2.768,2.8357,2.8699,2.933,2.9805,3.0105,3.0309,3.0667,3.1199,3.1197,3.1329,3.1576,3.1849,3.1885,3.174,3.2019,3.2071,3.1871,3.079,3.0083,2.9668,0.0,0.0,0.0,0.0,0.0,0.0,0.0,0.0,0.0,0.0,0.0,0.0,0.0,0.0,0.0,0.0,0.0,0.0,0.0,0.0,0.0,0.0,0.0,0.0,0.0,0.0,0.0,0.0,0.0,0.0,0.0,0.0,3.0086,2.9416,2.9547,2.9882,3.0348,3.0207,2.9849,2.9241,2.9297,2.9427,2.9613,3.0222,3.0768,3.1146,3.222,3.2959,3.3196,3.3542,3.3951,3.4463,3.4001,3.3974,3.4409,3.3891,3.3621,3.3621,3.3333,3.3258,3.3354,3.3354,3.3274,3.3029,3.2123,3.1233,3.0303,2.8862,2.8012,2.7596,2.7596,2.7596,2.7623,0.0,0.0,0.0,0.0,0.0,0.0,0.0,2.3327,2.3743,2.3901,2.4573,2.5052,2.5052,2.5175,2.5503,2.6111,2.6147,2.6307,2.6668,2.6986,2.7258,2.7511,2.8542,2.9234,2.9487,3.0175,3.062,3.0854,3.1163,3.1526,3.196,3.1958,3.2057,3.2258,3.2496,3.257,3.2498,3.257,3.2698,3.279,3.1891,3.1208,3.0597,3.0106,2.9903,2.9828,2.9112,2.89,2.8868,2.8281,0.0,0.0,0.0,0.0,0.0,0.0,0.0,0.0,0.0,0.0,0.0,0.0,0.0,0.0,0.0,0.0,0.0,0.0,0.0,0.0,0.0,0.0,0.0,0.0,3.1768,3.2326,3.2417,3.2107,3.204,3.2516,3.2206,3.1845,3.1553,3.1364,3.1396,3.1706,3.2277,3.2717,3.2947,3.3809,3.4382,3.4574,3.4758,3.5123,3.5709,3.5276,3.5257,3.5657,3.5341,3.508,3.4875,3.4813,3.4792,0.0,3.4792,3.4693,3.4428,3.352,3.2619,0.0,0.0,0.0,0.0,0.0,2.7903,2.793,0.0,0.0,0.0,0.0,0.0,0.0,0.0,2.3481,2.3867,2.4169,2.4898,2.5406,2.5406,2.5689,2.608,2.6515,2.6565,2.6751,2.7159,2.7794,2.8169,2.8225,2.9299,2.9921,2.9924,3.0996,3.1555,3.1555,3.2271,3.2625,3.2661,3.2661,3.2661,3.2661,3.2716,3.2918,3.3194,3.2881,3.2955,3.3231,3.2845,3.2423,3.1946,3.0882,3.0744,3.1002,3.032,2.9889,2.9646,2.9583,0.0,0.0,0.0,0.0,0.0,0.0,0.0,0.0,0.0,0.0,0.0,0.0,0.0,0.0,0.0,0.0,0.0,0.0,0.0,0.0,0.0,0.0,0.0,0.0,3.2908,3.4267,3.5173,3.4951,3.4563,3.4194,3.3839,3.3739,3.406,3.3729,3.3758,3.4418,3.4854,3.5086,3.5138,0.0,0.0,0.0,0.0,3.6208,3.698,3.659,3.6587,3.697,3.6889,3.6614,3.6224,3.6537,3.6689,3.6689,3.6689,3.6426,3.5979,3.5067,3.4118,3.3059,3.0697,2.9327,2.8687,2.8645,2.8624,0.0,0.0,0.0,0.0,0.0,0.0,0.0,0.0,2.3714,2.4131,2.4203,2.4898,2.5406,2.5406,2.5689,2.6184,2.6843,2.6907,2.7168,2.7792,2.8193,2.8587,2.8957,3.0043,3.0635,3.0689,3.1502,3.1902,3.1902,3.2371,3.2771,3.3084,3.3084,3.3084,3.3103,3.3414,3.3433,3.3231,3.3451,3.3598,3.3653,3.3249,3.2828,3.2459,3.2221,3.2188,3.2217,3.1795,3.1775,3.1875,3.1344,3.1191,3.1096,3.0245,2.9691,0.0,0.0,0.0,0.0,0.0,0.0,0.0,0.0,0.0,0.0,0.0,0.0,0.0,0.0,0.0,0.0,0.0,0.0,0.0,3.4159,3.4373,3.4859,3.6269,3.6115,3.5833,3.5757,3.5683,3.5528,3.5299,3.4917,3.474,3.4857,3.5264,3.5618,3.5948,3.6578,0.0,3.75,3.7824,3.8222,3.8696,3.8329,3.8326,3.8715,0.0,0.0,3.7508,3.7283,3.7151,3.7151,3.7151,3.711,3.6926,3.5693,3.4625,3.3621,3.2048,3.1571,3.1685,3.1315,3.1187,3.1187,0.0,0.0,0.0,0.0,0.0,0.0,0.0,2.3964,2.4257,2.4437,2.529,2.5809,2.5622,2.6221,2.6743,2.6917,2.7123,2.7552,2.8238,2.88,2.9362,2.9975,3.089,3.1407,3.1445,3.2195,3.2608,3.2608,3.2993,3.3304,3.3506,3.3506,3.3506,3.3524,3.3909,3.3982,3.3818,3.4001,3.411,3.4073,3.3653,3.3378,3.3156,3.2753,3.2716,3.2884,3.2715,3.2766,3.285,3.2512,3.2267,3.1998,3.1419,3.1021,3.0607,0.0,0.0,0.0,0.0,0.0,0.0,0.0,0.0,0.0,0.0,0.0,0.0,0.0,0.0,3.2007,0.0,0.0,3.4266,3.5512,3.5502,3.5752,3.6948,3.6918,3.6871,3.7083,3.6911,3.688,3.708,3.6742,3.6569,3.6802,3.6997,3.7204,3.7381,3.7957,3.8395,3.8593,3.9015,3.9356,3.9558,3.9352,3.9359,3.9543,3.931,3.909,3.8861,3.9042,3.9046,3.8866,3.9278,3.9476,3.9423,3.8494,3.7437,3.6327,3.5636,3.4645,3.353,3.3078,3.2758,3.2517,0.0,0.0,0.0,0.0,0.0,0.0,0.0,2.4293,2.45,2.4758,2.5656,2.619,2.5936,2.68,2.7338,2.7216,2.7582,2.8084,2.8753,2.9496,3.0176,3.0772,3.1488,3.1928,3.2001,3.2718,3.3121,3.3213,3.3598,3.3799,3.3799,3.3799,3.3836,3.3928,3.4257,3.444,3.4532,3.4532,3.4477,3.4367,3.4055,3.3873,3.3726,3.3083,3.3029,3.3323,3.3323,3.3323,3.3323,3.3323,3.2916,3.2421,3.2332,3.2132,3.1779,3.1044,3.0907,0.0,0.0,0.0,0.0,0.0,0.0,0.0,0.0,0.0,3.158,3.2808,3.2823,3.3057,3.4457,3.4673,3.5019,3.6195,3.6307,3.6502,3.7404,3.7464,3.7582,3.8067,3.7832,3.7905,3.8545,3.8308,3.829,3.8692,3.871,3.8747,3.8858,3.9151,3.9355,3.9355,3.9781,4.0038,4.0111,4.0203,4.0297,4.0389,4.0699,4.0654,4.0319,4.0971,4.1076,4.0823,4.1438,4.1756,4.1768,4.1337,4.0521,3.9543,3.9568,3.8083,3.5838,3.5115,3.4618,3.4232,0.0,0.0,0.0,0.0,0.0,0.0,0.0,0.0,2.5096,2.5141,2.5573,2.595,2.6229,2.6948,2.7653,2.8277,2.8684,2.907,2.9456,3.0233,3.0704,3.0806,3.1228,3.1616,3.2001,3.2441,3.2845,3.3213,3.3598,3.3799,3.3799,3.3799,3.3982,3.433,3.4385,3.4587,3.4918,3.4918,3.4734,3.4403,3.4348,3.4128,3.3781,3.3689,3.3689,3.3726,3.3726,3.3726,3.3726,3.3726,3.369,3.3546,3.3181,3.3104,3.2941,3.2134,3.1529,3.1064,3.0874,3.0631,3.0647,3.1652,3.1962,3.2204,0.0,0.0,3.3676,3.4181,3.4223,3.4416,3.5327,3.5478,3.5741,3.6607,3.645,3.6612,3.7752,3.7628,3.7674,3.8431,3.849,3.8508,3.86,3.8563,3.8692,3.9095,3.9131,3.9298,3.9726,3.9781,3.9817,3.9817,4.0221,4.0607,4.0956,4.132,4.1687,4.2035,4.2072,4.2069,4.2004,4.2096,4.2114,4.2077,4.2169,4.2193,4.214,4.2138,4.2018,4.1868,4.2279,4.1734,4.0528,3.885,3.8229,3.8135,0.0,0.0,0.0,0.0,0.0,0.0,0.0,0.0,0.0,2.5472,2.5835,2.6208,2.6489,2.7233,2.7814,2.8108,2.852,2.901,2.9616,3.0166,3.066,3.1118,3.1761,3.2183,3.2349,3.2973,3.3378,3.3543,3.3708,3.3799,3.3799,3.4055,3.4238,3.4422,3.4899,3.5192,3.5357,3.5357,3.5247,3.5064,3.4844,3.4642,3.4514,3.4514,3.4349,3.4128,3.3873,3.3946,0.0,3.4147,3.4147,3.4147,3.4239,3.4097,3.3867,3.3587,3.2966,3.2314,3.2053,3.2035,3.2139,0.0,3.2781,3.3287,3.387,3.4273,3.4715,3.5367,3.5269,3.5327,3.6153,3.6123,3.6287,0.0,3.7165,3.7238,3.8208,3.8008,3.7964,3.8522,3.8801,3.8856,3.8618,3.882,3.9021,3.9186,3.9447,3.9707,3.9893,4.0331,4.0588,4.0588,4.1231,4.1632,4.1797,4.1962,4.2127,4.2292,4.2292,4.2292,4.2311,4.2531,4.2898,4.332,4.2843,4.277,4.2976,4.3231,4.2885,4.2207,4.2921,4.2822,4.2136,4.113,4.0106,3.9171,0.0,0.0,0.0,0.0,0.0,0.0,0.0,0.0,0.0,0.0,2.6044,2.6518,2.7118,2.769,2.8089,2.8198,2.8672,2.9231,2.9808,3.0262,3.0788,3.1357,3.2056,3.2478,3.2588,3.3285,3.3689,3.3799,3.3799,3.3799,3.3799,3.411,3.4348,3.4587,3.5174,3.5559,3.576,3.576,3.5705,3.5577,3.5266,3.5083,3.4991,3.4991,3.4881,3.4661,3.4147,3.4074,3.4221,3.4133,3.415,3.4294,3.4609,3.4644,3.4553,3.4486,3.3982,3.3373,3.2967,3.3251,0.0,3.3408,3.3935,3.4572,3.4907,3.5158,3.5501,3.6093,3.5953,3.5972,3.6666,3.6652,3.685,3.7831,3.7765,3.7805,3.8501,3.8433,3.8446,3.8725,3.9133,3.9281,3.8986,3.9206,3.9447,3.9536,3.9962,4.0297,4.0387,4.1066,4.1433,4.1433,4.1999,4.2347,4.2457,4.2457,4.2568,4.2806,4.2806,4.2843,4.2971,4.3246,4.3705,4.4237,4.365,4.3632,4.4013,4.4201,4.3755,4.3054,4.3674,4.361,4.3122,4.3072,4.1893,4.0317,0.0,0.0,0.0,0.0,0.0,0.0,0.0,0.0,0.0,0.0,0.0,0.0,0.0,2.8374,2.8553,2.8938,2.9675,3.0152,3.0188,3.0919,3.1357,3.1394,3.1799,3.2203,3.2588,3.3011,3.3414,3.3799,3.3799,3.3799,3.3799,3.3799,3.4239,3.4973,3.5009,3.5449,3.6164,3.6164,3.5962,3.5595,3.5595,3.5357,3.4991,3.4991,3.5229,3.5467,3.4678,3.4147,3.3765,3.3435,3.354,3.3839,3.3924,3.4412,3.4901,3.4523,3.4162,3.3784,3.3393,0.0,3.4551,3.4936,3.5642,3.62,3.6162,3.6144,3.6177,3.6195,3.6201,3.6307,3.6721,3.7119,3.7508,3.7944,3.7984,3.8123,3.854,3.893,3.9168,3.9168,3.9595,3.9875,0.0,3.9875,4.0038,4.0421,4.0845,4.1228,4.1632,4.2035,4.2256,4.2256,4.2292,4.2476,4.2883,4.2879,4.3265,4.4054,4.4054,4.4256,4.4623,4.4641,4.4659,4.4678,4.4659,4.4879,4.5223,4.4843,4.4875,4.52,4.5237,4.4703,4.4048,4.4891,4.4043,4.2389,0.0,0.0,0.0,0.0,0.0,0.0,0.0,0.0,0.0,0.0,0.0,0.0,0.0,0.0,0.0,0.0,2.9247,2.9617,3.0167,3.0442,3.0956,3.1763,3.2184,3.2588,3.2993,3.3396,3.3653,3.3799,3.4073,3.4056,3.3799,3.4349,3.4752,3.5009,3.5284,3.5705,3.6201,3.6201,3.6109,3.5999,3.5999,3.5907,3.5797,3.5797,3.5559,3.5174,0.0,3.4716,3.4533,3.4171,3.4096,3.424,3.4537,3.4791,3.4937,3.4559,3.474,3.4957,3.4594,0.0,3.533,3.573,3.6225,3.6701,3.6936,3.6988,3.7056,3.7331,3.7181,3.7051,3.717,3.7536,3.7916,3.8327,3.8624,3.8954,3.9392,3.9577,3.965,3.965,4.0038,0.0,0.0,0.0,0.0,4.0901,4.1525,4.1944,4.2091,4.2476,4.2696,4.2696,4.321,4.3558,4.3687,4.3962,4.4219,4.4494,4.4494,4.4568,4.4696,4.4696,4.4843,4.5077,4.4824,4.4934,4.5297,4.515,4.5026,4.4934,4.5187,4.4947,4.4498,4.4686,4.4371,4.38,0.0,0.0,0.0,0.0,0.0,0.0,0.0,0.0,0.0,0.0,0.0,0.0,0.0,0.0,0.0,0.0,0.0,2.9504,3.0167,3.0332,3.0827,3.1744,3.2166,3.2514,3.2773,3.3304,3.3579,3.3579,3.3982,3.4037,3.3799,3.4331,3.4661,3.4807,3.5211,3.5614,3.5999,3.6146,3.6201,3.6201,3.6201,3.6109,3.598,3.598,3.5577,0.0,3.4844,3.4789,3.4716,3.4171,3.4188,3.4459,3.4719,3.4992,3.5193,3.5121,3.5431,3.5815,3.5721,3.6083,3.6518,3.679,3.7158,3.7467,3.7587,3.7607,3.7645,3.7765,3.7705,3.7625,3.7625,3.7944,3.835,3.8751,3.9153,3.9538,3.9836,4.015,4.0334,4.0334,4.068,4.1081,0.0,0.0,0.0,4.1543,4.2127,4.2568,4.2733,4.31,4.3393,4.3522,4.4035,4.4311,4.4311,4.4568,4.4769,4.4916,4.5063,4.5136,4.5136,4.5283,4.5485,4.5718,4.5613,4.57,4.5938,4.5938,4.57,4.5375,4.5632,4.5462,4.5127,4.5034,4.4867,4.4649,0.0,0.0,0.0,0.0,0.0,0.0,0.0,0.0,0.0,0.0,0.0,0.0,0.0,0.0,0.0,0.0,0.0,0.0,3.0167,3.0552,3.0972,3.1412,3.1799,3.2019,3.2021,3.2809,3.3213,3.3213,3.3616,3.3818,3.3799,3.3818,3.4055,3.4458,3.4826,3.5229,3.565,3.6054,3.6201,3.6182,3.6182,3.5925,3.5577,3.5577,3.5339,3.4954,3.4532,3.4422,3.4314,3.3598,3.3848,3.4479,3.454,3.5048,3.5705,3.6109,3.6237,3.631,3.675,3.7428,3.7997,3.8015,3.8327,3.8501,3.8123,3.8044,3.7924,3.7545,3.7765,3.8044,0.0,0.0,3.8765,3.9188,3.9591,3.9887,3.9964,4.0662,4.1158,0.0,0.0,0.0,0.0,0.0,0.0,4.2439,0.0,4.3136,4.3536,4.3903,4.4311,4.4678,4.4733,4.4751,4.4733,4.4751,4.4971,4.537,4.5737,4.5938,4.5957,4.6366,4.6531,4.6549,4.6929,4.7112,4.7112,4.7094,4.6837,4.6494,4.6476,4.6237,4.5883,4.5883,4.5577,4.5027,0.0,0.0,0.0,0.0,0.0,0.0,0.0,0.0,0.0,0.0,0.0,0.0,0.0,0.0,0.0,0.0,0.0,0.0,3.0149,3.0296,3.0791,3.1799,3.1946,3.2148,3.2441,3.2938,3.3213,3.3213,3.3891,3.4074,3.3799,3.411,3.4459,3.4862,3.4954,3.5394,3.6035,3.6164,3.6036,3.5742,3.5742,3.5522,3.5138,3.5138,3.5083,3.4954,3.4532,3.4587,3.4771,3.4279,3.4626,3.5284,3.5303,3.565,3.6146,3.653,3.6659,3.6786,3.7502,3.7832,3.807,3.8362,3.8527,3.856,3.8461,3.8441,3.8421,3.8322,3.8382,3.8441,0.0,0.0,0.0,3.9632,4.0292,0.0,4.1191,4.1669,0.0,4.198,0.0,4.2421,4.3136,4.3302,0.0,0.0,4.3907,4.3962,4.4366,4.4494,4.4586,4.4696,4.5283,4.5467,4.515,4.5425,4.5797,4.6201,4.6311,4.6489,4.68,4.691,4.6947,4.6947,4.7057,4.7112,4.7075,4.6788,4.6604,4.6476,4.6182,4.5975,4.5883,4.5883,4.5813,4.5653,0.0,0.0,0.0,0.0,0.0,0.0,0.0,0.0,0.0,0.0,0.0,0.0,0.0,0.0,0.0,0.0,0.0,0.0,0.0,3.0204,3.0662,3.1689,3.1742,3.1836,3.2072,3.2478,3.2681,3.2681,3.3303,3.3505,3.3285,3.3707,3.4001,3.4239,3.4587,3.4991,3.543,3.5595,3.554,0.0,0.0,3.5101,3.4752,3.4918,3.4771,3.4477,3.4422,3.4771,3.5266,3.521,3.5485,3.5925,3.6274,3.6549,3.6805,3.7208,3.7337,3.7465,3.8087,3.8252,3.8363,3.8765,3.8728,3.8655,3.882,3.8728,3.86,3.86,3.86,3.8655,3.882,3.904,3.9463,0.0,0.0,0.0,4.1907,4.2311,4.2549,0.0,4.2714,0.0,4.3701,4.3903,4.4292,0.0,4.4604,4.4549,4.4953,4.4948,4.5045,4.5228,4.5834,4.6122,4.6085,4.6305,4.6544,4.6764,4.6764,4.6874,4.7112,4.7295,4.7369,4.7369,0.0,4.7534,4.7351,4.732,4.6989,4.6494,4.6457,4.6213,4.5883,4.5883,4.5883,4.5883,0.0,0.0,0.0,0.0,0.0,0.0,0.0,0.0,0.0,0.0,0.0,0.0,0.0,0.0,0.0,0.0,0.0,0.0,0.0,0.0,3.0552,3.1357,3.1394,3.1394,3.1394,3.1799,3.2001,3.2001,3.2404,3.2588,3.2606,3.2956,3.3176,3.3323,3.4018,3.4385,3.4513,3.4862,3.4954,3.4918,3.4918,3.4679,3.4367,0.0,3.4441,3.3928,3.4403,3.4972,3.5614,3.6164,3.6384,3.6549,3.7208,3.7447,3.7557,3.796,3.8033,3.8107,3.8638,3.8728,3.8783,3.9188,3.8966,3.8765,3.9113,3.8893,3.86,3.86,3.86,3.8728,3.9133,3.9261,3.9703,4.0898,4.1522,4.198,4.2329,4.2806,4.3122,4.3085,4.3412,4.3811,4.4219,4.4623,4.5008,4.5352,4.5173,4.5136,4.537,4.5388,4.559,4.603,4.6402,4.6764,4.7185,4.713,4.713,4.7185,4.7185,4.7222,4.7277,4.7607,4.7772,4.7791,0.0,0.0,4.7791,4.8054,4.7558,4.6696,4.6984,4.6672,4.6048,4.6048,4.6048,4.6048,0.0,0.0,0.0,0.0,0.0,0.0,0.0,0.0,0.0,0.0,2.7251,2.7948,0.0,0.0,0.0,0.0,0.0,0.0,0.0,0.0,0.0,3.1357,3.1394,3.1394,3.1394,3.1799,3.2001,3.2001,3.2404,3.2588,3.2588,3.2661,3.3065,3.3708,3.3836,3.4276,3.4899,3.4954,3.4807,3.4496,3.4496,3.4257,3.3909,3.3982,0.0,0.0,3.5119,3.5266,3.5321,3.6732,3.741,3.7648,3.7465,3.763,3.7978,3.838,3.8272,3.8255,3.9377,3.9392,3.9206,3.965,3.9428,3.9113,3.9168,3.8893,3.86,3.86,3.86,3.8728,3.9133,3.9522,4.0074,4.0956,4.2002,4.2736,4.2791,4.3705,4.4256,4.3925,4.4256,4.4659,4.504,4.5443,0.0,0.0,0.0,4.6415,4.5828,4.5792,4.6122,4.6874,4.6965,4.7185,4.7589,4.7277,4.7277,4.7589,4.7589,4.7772,4.8084,4.8157,4.82,4.8182,0.0,0.0,4.8164,4.7552,4.7387,4.7461,4.7204,4.702,4.6892,4.6892,4.6892,4.6892,0.0,0.0,0.0,0.0,0.0,0.0,0.0,2.6049,2.6693,2.6938,2.7629,2.8202,2.8428,2.8597,0.0,0.0,0.0,0.0,0.0,0.0,0.0,3.1357,3.1394,3.1394,3.1394,3.1595,3.1706,3.1706,0.0,3.1981,3.1981,3.2184,3.2606,3.3193,3.3396,3.3818,3.4386,3.4386,3.4257,3.4092,3.4092,3.3964,3.3836,0.0,0.0,0.0,3.5157,3.5431,3.5775,3.6766,3.7629,3.829,3.8087,3.8142,3.838,3.8783,3.8785,3.8803,3.9671,3.9705,3.9573,3.9836,3.9558,3.9186,3.9186,3.8893,3.8655,3.8875,3.8747,3.8856,3.9722,3.9891,4.0295,4.1543,4.2201,4.2806,4.343,4.4017,4.4402,4.4402,4.4769,4.5168,4.5572,4.598,4.6287,0.0,0.0,4.6525,4.592,4.6109,4.6562,4.7387,4.7406,4.7607,4.7992,4.7809,4.7809,4.7992,4.7992,4.8102,4.8311,4.8311,4.8311,4.8292,4.8109,0.0,4.7956,4.7791,4.7589,4.7387,4.7406,4.7295,4.7112,4.7112,4.7112,4.7112,0.0,0.0,0.0,0.0,0.0,0.0,0.0,2.6359,2.6962,2.744,2.8037,2.8439,2.848,2.8727,2.8917,0.0,0.0,0.0,0.0,0.0,0.0,0.0,0.0,0.0,3.1394,0.0,0.0,3.1394,3.1394,0.0,0.0,0.0,0.0,0.0,3.2919,3.3341,3.3799,3.3799,3.3799,0.0,0.0,3.3928,3.4001,0.0,0.0,0.0,0.0,3.5467,3.6153,3.6747,3.7556,3.8362,3.8545,3.86,3.8692,3.9206,3.928,3.9335,3.9983,4.0054,3.9978,4.0111,3.9742,3.9335,3.9335,3.8968,3.871,3.9113,3.8875,3.9005,4.0274,4.0166,4.0444,4.2035,4.2366,4.2824,4.3944,4.4256,4.4453,4.4788,4.5168,4.559,4.5999,4.6379,0.0,0.0,0.0,0.0,4.603,4.6494,4.7063,4.7681,4.7772,4.7974,4.8311,4.8311,4.8311,4.8311,4.8311,4.8311,4.8311,4.8311,4.8311,4.8311,4.8219,0.0,0.0,4.809,4.7846,4.7387,4.7699,4.7626,4.7351,4.7351,4.7351,4.7351,0.0,0.0,0.0,0.0,0.0,0.0,0.0,2.6202,2.6702,2.7411,2.808,2.8495,2.8502,2.8472,2.8605,0.0,0.0,0.0,0.0,0.0,0.0,0.0,0.0,0.0,0.0,0.0,0.0,3.1394,3.1394,0.0,0.0,0.0,0.0,0.0,0.0,3.3083,3.3799,3.3799,0.0,0.0,0.0,0.0,0.0,0.0,0.0,0.0,0.0,3.5284,3.5815,3.697,3.7428,3.7648,3.8362,3.86,3.8747,3.9577,3.954,3.9463,4.0659,4.0735,4.0513,4.0901,4.0405,3.9856,3.9856,3.919,3.871,3.9113,3.8875,3.9005,4.0274,4.0166,4.0444,4.2035,4.2604,4.3136,4.398,4.4728,4.5205,4.5242,4.559,4.5993,4.6402,4.68,4.7057,0.0,0.0,0.0,4.6476,4.7167,4.7607,4.7699,4.8047,4.8274,4.8311,4.8311,4.8311,4.8311,4.8311,4.8311,4.8311,4.8311,4.8311,4.8292,0.0,0.0,0.0,4.7882,4.7919,4.82,4.8237,4.8212,4.82,4.82,4.82,4.82,0.0,0.0,0.0,0.0,0.0,0.0,2.6103,2.6313,2.6728,2.7686,2.8215,2.8576,2.8785,2.8773,2.8825,0.0,0.0,0.0,0.0,0.0,0.0,0.0,0.0,0.0,0.0,0.0,3.1394,3.1394,3.1394,0.0,0.0,0.0,0.0,0.0,0.0,3.2918,3.3451,3.3689,0.0,0.0,0.0,0.0,0.0,0.0,0.0,0.0,0.0,0.0,3.5354,3.6058,3.6475,3.679,3.733,3.768,3.8084,3.9146,3.9558,3.9779,4.0552,4.0809,4.0845,4.0772,4.0313,3.9838,3.9538,3.8843,3.8504,3.9424,3.908,3.907,4.0581,4.0533,4.0717,4.2072,4.2439,4.299,4.4274,4.4733,4.5118,4.559,4.6035,4.6329,4.6476,0.0,4.7461,0.0,0.0,0.0,4.724,4.7516,4.7809,4.8047,4.8237,4.8459,4.878,4.878,4.878,4.878,4.878,4.8607,4.8311,4.8311,4.8311,4.8292,0.0,0.0,0.0,4.8145,4.8164,4.8311,4.8311,4.8311,4.8311,4.8311,4.8311,4.8311,0.0,0.0,0.0,0.0,0.0,2.5697,2.638,2.6517,2.6877,2.7843,2.828,2.8591,2.883,2.8949,2.899,2.899,2.899,0.0,0.0,0.0,0.0,0.0,0.0,0.0,0.0,0.0,3.1394,3.1394,3.1394,3.1394,0.0,0.0,3.1614,3.2019,0.0,0.0,0.0,0.0,0.0,0.0,0.0,0.0,0.0,0.0,0.0,0.0,0.0,0.0,0.0,0.0,0.0,3.613,3.6788,3.7096,3.7474,3.8808,3.954,4.0003,4.0405,4.0788,4.1029,4.0754,4.0387,3.9964,3.9502,3.8857,3.8609,3.9498,3.9206,3.9229,4.0654,4.0699,4.0898,4.2109,4.2292,4.2861,4.4476,4.4696,4.499,4.5792,4.6164,4.6421,4.6635,4.7411,4.7938,0.0,0.0,0.0,0.0,4.8275,4.8355,4.8292,4.8311,4.8484,4.8854,4.8854,4.8854,4.8854,4.8984,4.8786,4.8286,4.8414,4.8396,4.8311,0.0,0.0,0.0,4.8311,4.8311,4.8311,4.8311,4.8311,4.8311,4.8311,4.8311,4.8311,0.0,0.0,0.0,0.0,0.0,0.0,2.6627,2.68,2.7153,2.7805,2.8249,2.8502,2.8502,2.88,2.899,2.899,2.899,0.0,0.0,0.0,0.0,0.0,0.0,0.0,0.0,0.0,0.0,3.1394,3.1394,3.1394,3.1394,3.1394,3.1614,3.2019,0.0,0.0,0.0,0.0,0.0,0.0,0.0,0.0,3.5504,0.0,0.0,0.0,0.0,0.0,0.0,0.0,0.0,0.0,0.0,3.7116,3.7118,3.8728,3.954,4.0003,4.0405,4.0788,4.1102,4.1102,4.079,4.0405,3.9964,3.954,3.9186,3.9186,3.9186,3.9463,4.0347,4.0494,4.0898,4.2109,4.2292,4.2861,4.4476,4.4696,4.499,4.5792,4.5902,4.6213,4.702,4.7809,4.8509,0.0,0.0,0.0,0.0,4.9587,4.9391,4.8335,4.8311,4.8311,4.8311,4.8311,4.8311,4.8311,4.8708,4.8689,4.8304,4.8708,4.8671,0.0,0.0,0.0,0.0,4.8311,4.8311,4.8311,4.8311,4.8311,4.8311,4.8311,4.8311,4.8311,0.0,0.0,0.0,0.0,0.0,0.0,0.0,2.6459,2.6836,2.7784,2.8011,2.8284,2.8793,2.8949,2.899,2.899,2.899,0.0,0.0,0.0,0.0,0.0,0.0,0.0,0.0,0.0,0.0,0.0,0.0,3.1669,3.141,3.1687,3.1873,3.2019,3.2423,3.2809,0.0,0.0,0.0,0.0,0.0,3.43,3.474,0.0,0.0,0.0,0.0,0.0,0.0,0.0,0.0,0.0,0.0,0.0,0.0,3.8234,3.9096,3.9445,3.9585,4.0125,4.0699,4.0699,4.0387,4.0058,3.993,3.9317,3.8957,3.9553,3.9424,3.9557,4.0709,4.0919,4.1231,4.2146,4.2531,4.3173,4.4512,4.4934,4.5297,4.5852,4.6471,4.7277,4.8348,0.0,4.917,0.0,0.0,0.0,0.0,4.9809,4.9735,4.9391,4.9046,4.9002,4.9391,4.9391,4.9391,4.9391,4.9803,4.9586,4.8848,4.8876,0.0,0.0,0.0,0.0,0.0,4.8311,4.8451,4.8689,4.8421,4.8469,4.8671,4.8396,4.8311,4.8311,0.0,0.0,0.0,0.0,0.0,0.0,0.0,2.6543,2.6937,2.7756,2.7988,2.833,2.8924,2.899,2.899,2.899,2.899,0.0,0.0,0.0,0.0,0.0,0.0,0.0,0.0,0.0,0.0,0.0,0.0,0.0,0.0,3.2177,3.223,3.2235,3.2655,3.2864,0.0,0.0,0.0,0.0,3.3982,3.4281,3.4631,0.0,0.0,0.0,0.0,0.0,0.0,0.0,0.0,0.0,0.0,0.0,0.0,0.0,3.8668,3.9008,3.9159,3.9832,4.0494,4.0494,4.0313,4.0095,3.993,3.9485,3.9179,3.9573,3.9664,3.9925,4.0728,4.0992,4.1359,4.2164,4.2623,4.332,4.4531,4.5063,4.5498,4.6072,4.6909,4.7821,0.0,4.9078,0.0,0.0,0.0,0.0,0.0,5.0078,5.0277,5.0424,4.9761,4.954,4.9813,4.986,4.986,4.9813,5.0275,5.0107,4.9409,4.9623,0.0,0.0,0.0,0.0,0.0,4.8624,4.8579,4.8653,4.8396,4.8543,4.8891,4.8616,4.8524,4.8524,0.0,0.0,0.0,0.0,0.0,0.0,0.0,2.6917,2.7316,2.7738,2.8091,2.8495,2.8953,2.8972,2.8972,2.899,0.0,0.0,0.0,0.0,0.0,0.0,0.0,0.0,0.0,0.0,0.0,3.2001,3.2001,3.2384,3.3119,0.0,0.0,3.2618,3.3033,3.3011,0.0,0.0,0.0,0.0,3.4238,3.4642,0.0,0.0,0.0,0.0,0.0,0.0,0.0,0.0,0.0,0.0,0.0,0.0,0.0,0.0,0.0,0.0,0.0,3.9777,4.0403,4.0403,4.0403,4.0292,3.9948,3.9875,0.0,3.9335,3.9905,4.0533,4.0568,4.0882,4.1378,4.2201,4.2678,4.3338,4.4531,4.51,4.5663,4.6457,4.7271,4.7943,4.8487,0.0,0.0,0.0,0.0,0.0,0.0,5.0416,5.0872,5.1226,5.0438,4.9925,4.9804,4.9895,4.987,4.9754,5.0315,5.0375,5.0015,5.0741,0.0,0.0,0.0,0.0,0.0,4.9197,4.8769,4.8439,4.8402,4.8634,4.8976,4.8939,4.8939,4.8939,0.0,0.0,0.0,0.0,0.0,0.0,0.0,0.0,0.0,0.0,2.761,2.7871,2.888,2.8733,2.8663,0.0,0.0,0.0,0.0,0.0,0.0,0.0,0.0,0.0,0.0,0.0,0.0,3.2001,3.2001,3.2105,3.228,3.2509,0.0,0.0,0.0,0.0,0.0,0.0,0.0,0.0,3.4238,3.4642,0.0,0.0,0.0,0.0,3.594,3.5717,0.0,0.0,0.0,0.0,0.0,0.0,0.0,0.0,3.8303,0.0,3.8635,0.0,3.95,3.95,3.95,3.9481,0.0,3.9632,3.9875,3.9762,4.0127,4.0678,4.1302,4.1228,4.147,4.2589,4.31,4.3687,4.4568,4.5577,4.6397,4.6892,4.777,4.8488,4.8909,0.0,0.0,0.0,0.0,5.0201,0.0,5.0511,5.0592,5.0706,5.0765,5.0792,5.0786,5.041,5.0184,5.0176,5.0999,5.1221,5.0804,5.0904,0.0,0.0,0.0,0.0,5.0151,5.0025,4.9851,4.9636,4.9349,4.9478,4.9782,4.9478,4.9368,4.9368,0.0,0.0,0.0,0.0,0.0,0.0,0.0,0.0,0.0,0.0,0.0,0.0,0.0,0.0,0.0,0.0,0.0,0.0,0.0,0.0,0.0,0.0,0.0,0.0,0.0,3.1394,0.0,0.0,0.0,3.2193,0.0,0.0,0.0,0.0,0.0,0.0,0.0,0.0,0.0,3.3853,3.4238,0.0,0.0,0.0,0.0,0.0,3.5996,3.5903,0.0,3.6095,3.5874,3.5712,0.0,0.0,0.0,0.0,3.8005,3.8307,3.8545,3.9041,3.9522,3.9522,3.9522,3.9557,3.9758,3.9834,3.9948,4.0129,4.0497,4.0919,4.1338,4.1393,4.1705,4.2714,4.3393,4.4201,4.5356,4.6256,4.691,4.7332,4.8005,4.8509,0.0,0.0,0.0,0.0,0.0,5.0299,0.0,5.0675,5.0931,5.1122,5.1315,5.1296,5.1018,5.0779,5.0646,5.0579,5.1157,5.1315,5.1088,5.1219,5.1472,0.0,0.0,0.0,5.0986,5.0706,5.0293,4.9801,4.9588,4.9753,5.0076,4.9856,4.979,4.979,0.0,0.0,0.0,0.0,0.0,0.0,0.0,0.0,0.0,0.0,0.0,0.0,0.0,0.0,0.0,0.0,0.0,0.0,0.0,0.0,0.0,0.0,0.0,3.0935,3.1375,3.1394,3.1595,0.0,0.0,0.0,0.0,0.0,3.3217,0.0,0.0,0.0,0.0,0.0,0.0,3.3836,3.4294,0.0,0.0,0.0,0.0,0.0,0.0,0.0,0.0,3.6589,3.6522,3.6346,3.6698,0.0,0.0,0.0,0.0,0.0,3.8582,3.9226,3.9854,3.9799,3.9781,3.9891,4.0292,4.0129,4.0001,4.0423,4.0827,4.1139,4.1268,4.1558,4.2072,4.2935,4.376,4.4806,4.6292,4.6837,4.7259,4.7644,4.8146,0.0,0.0,0.0,0.0,0.0,0.0,5.044,0.0,5.0845,5.1465,5.1862,5.1904,5.1654,5.1117,5.1143,5.1067,5.0861,5.1067,5.1227,5.1322,5.1554,5.2011,0.0,0.0,0.0,5.1833,5.1348,5.0606,4.9807,4.9705,4.9874,5.0204,5.0204,5.0204,5.0204,0.0,0.0,0.0,0.0,0.0,0.0,0.0,0.0,0.0,0.0,0.0,0.0,0.0,0.0,0.0,0.0,0.0,0.0,0.0,0.0,0.0,0.0,3.066,3.0626,3.1375,3.1394,3.1595,3.2001,3.2001,0.0,3.2706,3.3045,3.3394,3.3719,0.0,0.0,0.0,0.0,0.0,3.3854,3.4606,0.0,0.0,0.0,0.0,0.0,0.0,0.0,0.0,3.6273,3.6474,3.6731,3.6766,0.0,0.0,0.0,0.0,0.0,3.8508,3.9186,3.972,3.939,3.9298,3.9428,3.9891,3.9948,4.0001,4.0423,4.0827,4.1323,4.198,4.2164,4.2586,4.3742,4.4581,4.5425,4.6366,4.6837,4.7259,4.7644,0.0,4.8978,0.0,0.0,0.0,0.0,0.0,0.0,0.0,5.1091,5.1334,5.1802,5.2137,5.2262,5.2184,5.1678,5.1188,5.0737,5.1214,5.1711,5.2193,5.1742,5.2095,0.0,0.0,5.2344,5.2313,5.221,5.1767,5.1151,5.0678,5.0552,5.0607,5.0607,5.0607,5.0607,0.0,0.0,0.0,0.0,0.0,0.0,0.0,0.0,0.0,0.0,0.0,0.0,0.0,0.0,0.0,0.0,0.0,0.0,0.0,0.0,0.0,3.1063,3.0717,3.0806,3.1375,3.1394,3.1595,3.2001,3.2001,3.2203,3.2606,3.3011,3.3414,3.3799,0.0,0.0,0.0,0.0,0.0,3.4183,0.0,0.0,0.0,0.0,0.0,0.0,0.0,0.0,0.0,0.0,3.647,3.6767,3.654,0.0,0.0,0.0,0.0,0.0,3.8235,3.9061,3.9815,3.9632,3.974,4.0036,4.0442,4.0368,4.0331,4.0754,4.1136,4.154,4.1907,4.2513,4.3334,4.4545,4.5681,4.6589,4.7182,4.7849,4.8447,0.0,0.0,0.0,0.0,0.0,0.0,0.0,0.0,0.0,5.0879,0.0,5.196,5.2151,5.2616,5.2845,5.2845,5.2569,5.2157,5.1633,5.1892,5.195,5.1899,5.1622,5.1777,5.2286,0.0,5.2408,5.2408,5.2717,5.2312,5.1466,5.1226,5.0966,5.0699,5.0699,5.0699,5.0699,0.0,0.0,0.0,0.0,0.0,0.0,0.0,0.0,0.0,0.0,0.0,0.0,0.0,0.0,0.0,0.0,0.0,0.0,0.0,0.0,3.0935,3.0935,3.0935,3.1082,3.1394,3.1485,3.1706,3.2001,3.2203,3.2496,3.2881,3.3103,3.3414,3.3799,0.0,0.0,0.0,0.0,3.4403,3.444,0.0,0.0,0.0,0.0,0.0,0.0,0.0,0.0,0.0,0.0,0.0,0.0,0.0,0.0,0.0,3.6554,3.7124,3.8015,3.8107,3.9008,3.993,4.0021,4.0276,4.0623,4.1139,4.1021,4.0957,4.1455,4.1869,4.2186,4.2263,4.3273,4.4492,4.5714,4.6793,4.7632,4.8161,0.0,0.0,0.0,0.0,0.0,0.0,0.0,0.0,0.0,0.0,0.0,5.0665,5.182,5.2538,5.266,5.3115,5.339,5.339,5.339,5.3076,5.2408,5.2408,5.2176,5.1718,5.1544,5.1492,5.1518,5.1976,5.2202,5.2227,5.2621,5.2363,5.1692,5.1415,5.107,5.0699,5.0699,5.0699,5.0699,0.0,0.0,0.0,0.0,0.0,0.0,0.0,0.0,0.0,0.0,0.0,0.0,0.0,0.0,0.0,0.0,0.0,0.0,0.0,0.0,3.1373,3.1373,3.1373,3.1357,3.1394,3.1779,3.1983,3.2001,3.2754,3.3323,3.3725,3.3359,3.3414,3.3781,0.0,0.0,0.0,0.0,0.0,3.4477,3.5247,0.0,0.0,0.0,0.0,0.0,0.0,0.0,0.0,0.0,0.0,0.0,0.0,0.0,3.7318,3.6877,3.7354,3.807,3.8453,3.9208,4.0003,4.0368,4.0476,4.0696,4.1485,4.1677,4.1921,4.2702,4.3233,4.3647,4.3958,4.5001,4.6261,4.7592,4.7899,4.8244,4.9087,0.0,0.0,0.0,0.0,0.0,0.0,0.0,0.0,0.0,0.0,0.0,5.1063,5.1973,0.0,5.3128,5.3672,5.3947,5.3947,5.3947,5.341,5.2408,5.2408,5.2382,5.2305,5.177,5.1492,5.1492,5.1544,5.1544,5.157,5.1596,5.1899,5.2227,5.1167,5.0725,5.0699,5.0699,5.0699,5.0699,0.0,0.0,0.0,0.0,0.0,0.0,0.0,0.0,0.0,0.0,0.0,0.0,0.0,0.0,0.0,0.0,0.0,0.0,0.0,0.0,3.1027,3.1027,3.1265,3.1394,3.1394,3.1799,3.2129,3.2368,3.3176,3.3653,3.3799,3.3634,3.3653,3.3781,0.0,0.0,0.0,0.0,0.0,3.4844,3.565,3.5962,0.0,0.0,0.0,0.0,0.0,0.0,0.0,0.0,3.6585,3.6805,3.6805,3.7079,3.7428,3.752,3.7758,3.8088,3.849,3.9226,3.9948,4.0074,4.0699,4.1338,4.1629,4.1907,4.2278,4.2832,4.3724,0.0,0.0,4.6184,4.6762,4.7511,4.8119,4.8713,4.9287,4.9858,0.0,0.0,0.0,0.0,0.0,0.0,0.0,0.0,0.0,0.0,0.0,5.2266,5.2673,5.3185,5.339,5.3666,5.3998,5.3998,5.3793,5.3384,5.3384,5.323,5.2897,5.2312,5.2054,5.2054,5.2054,5.226,5.2569,5.2569,5.2492,5.2279,5.1167,5.0699,5.0699,5.0699,5.0699,5.0699,0.0,0.0,0.0,0.0,0.0,0.0,0.0,0.0,0.0,0.0,0.0,0.0,0.0,0.0,0.0,0.0,0.0,0.0,2.9962,3.0495,3.0861,3.099,3.1247,3.1449,3.1595,3.1983,3.2331,3.2588,3.3413,3.3799,3.3799,3.3671,3.3671,0.0,0.0,0.0,0.0,0.0,0.0,0.0,3.5925,3.6201,0.0,0.0,0.0,0.0,0.0,0.0,0.0,0.0,3.6585,3.6823,3.6951,3.7282,3.7648,3.7905,3.818,3.8437,3.871,3.9428,4.0115,4.0259,4.0997,4.1829,4.2407,4.2728,4.3081,4.3619,4.4625,4.5792,4.7018,0.0,0.0,0.0,4.8804,4.9426,4.9963,5.058,0.0,0.0,0.0,0.0,0.0,0.0,0.0,0.0,0.0,0.0,0.0,5.252,5.282,5.3185,5.3365,5.364,5.3998,5.3998,5.3998,5.3998,5.3998,5.3717,5.3185,5.282,5.2562,5.2408,5.2408,5.2511,5.2672,5.2672,5.2413,5.202,5.1552,5.1175,5.0882,5.0882,5.0809,5.0699,0.0,0.0,0.0,0.0,0.0,0.0,0.0,0.0,0.0,0.0,0.0,0.0,0.0,0.0,0.0,0.0,0.0,0.0,3.077,3.0806,3.099,3.1375,3.1394,3.1595,3.2001,3.2404,3.2623,3.2606,3.3413,3.3799,3.3781,3.3396,3.3414,0.0,0.0,0.0,0.0,0.0,0.0,0.0,0.0,3.6201,0.0,0.0,0.0,0.0,0.0,0.0,0.0,0.0,3.6786,3.686,3.7263,3.7667,3.8016,3.7997,3.8583,3.9206,3.9186,3.9832,4.058,4.0996,4.1416,4.2179,4.389,4.4301,4.4548,4.5356,4.6209,4.7086,4.8011,4.7835,0.0,0.0,0.0,5.0469,5.1284,5.1401,5.1558,0.0,0.0,0.0,0.0,0.0,0.0,0.0,0.0,0.0,0.0,5.2699,5.3211,5.3211,5.3717,5.3998,5.3998,5.3998,5.3998,5.3998,5.3998,5.3717,5.3211,5.3211,5.2903,5.2408,5.2408,5.2073,5.1518,5.1537,5.1441,5.1401,5.2406,5.2181,5.1312,5.1312,5.1047,5.0699,0.0,0.0,0.0,0.0,0.0,0.0,0.0,0.0,0.0,0.0,0.0,0.0,0.0,0.0,0.0,0.0,0.0,0.0,3.077,3.0806,3.099,3.1375,3.1669,3.1873,3.2001,3.2663,3.3158,3.3433,3.3671,3.3799,3.3799,3.3671,0.0,3.422,0.0,0.0,0.0,0.0,0.0,0.0,3.5907,3.6201,0.0,0.0,0.0,0.0,0.0,0.0,0.0,0.0,0.0,0.0,3.719,3.7483,3.774,3.8582,3.8801,3.8913,3.9522,3.9891,4.0232,4.0921,4.1866,4.2833,4.3641,4.4277,4.5221,4.6965,4.7527,4.7895,4.8564,0.0,0.0,0.0,0.0,0.0,5.0855,5.0972,5.1128,5.1558,0.0,0.0,0.0,0.0,0.0,0.0,0.0,0.0,0.0,5.3256,5.3365,5.3742,5.3921,5.3998,5.3998,5.3998,5.3998,5.3998,5.3998,5.3921,5.3742,5.3365,5.3314,5.3487,5.3128,5.3256,5.3718,5.3199,5.2732,5.2335,5.2199,5.1995,5.1725,5.1725,5.1652,5.1542,0.0,0.0,0.0,0.0,0.0,0.0,0.0,0.0,0.0,0.0,0.0,0.0,0.0,0.0,0.0,0.0,0.0,0.0,0.0,3.0898,3.1063,3.1614,3.1873,3.215,3.2461,3.3103,3.3561,3.3799,3.3799,3.3799,3.3799,3.3964,3.4165,3.4403,0.0,3.4716,0.0,0.0,3.5559,3.5522,3.5999,3.6201,3.6201,0.0,0.0,0.0,0.0,0.0,0.0,0.0,0.0,0.0,3.7245,3.763,3.805,3.893,3.9151,3.9263,3.9964,4.0363,4.0793,4.1657,4.2584,4.3557,4.4654,4.5321,4.6165,4.781,4.8153,4.8284,4.8805,4.8913,0.0,0.0,0.0,0.0,0.0,5.103,5.1187,5.1641,5.1519,0.0,0.0,0.0,0.0,0.0,0.0,0.0,0.0,5.362,5.3666,5.3972,5.3998,5.3998,5.3998,5.4173,5.4173,5.3998,5.4173,5.4297,5.4252,5.3743,5.3814,5.4245,5.3886,5.4073,5.4578,5.4085,5.3541,5.3001,5.2813,5.2481,5.2147,5.2147,5.2037,5.1909,0.0,0.0,0.0,0.0,0.0,0.0,0.0,0.0,0.0,0.0,0.0,0.0,0.0,0.0,0.0,0.0,0.0,0.0,0.0,0.0,3.1231,3.1983,3.2074,3.2461,3.3249,3.3616,3.3799,3.3799,3.3799,3.3799,3.3799,3.422,3.4422,3.4477,0.0,3.5266,3.5595,3.5632,3.5834,3.6164,3.6201,3.6201,3.6201,3.6201,0.0,0.0,0.0,0.0,0.0,0.0,0.0,0.0,3.7392,3.7922,3.8618,3.9021,3.9465,3.993,4.0391,4.1087,4.1933,4.285,4.3505,4.4472,4.6511,4.6988,4.7257,4.8092,4.8262,4.8398,4.8851,4.8949,4.9222,5.0121,5.0547,0.0,0.0,5.1401,5.1558,5.1997,5.1655,0.0,0.0,0.0,0.0,0.0,0.0,0.0,0.0,5.3808,5.3998,5.3998,5.3998,5.3998,5.3998,5.4414,5.4433,5.4076,5.4492,5.4733,5.4752,5.4271,5.4336,5.4765,5.466,5.4625,5.4611,5.4478,5.4108,5.3636,5.3948,5.3503,5.2712,5.2712,5.2464,5.2099,0.0,0.0,0.0,0.0,0.0,0.0,0.0,0.0,0.0,0.0,0.0,0.0,0.0,0.0,0.0,0.0,0.0,0.0,0.0,0.0,3.1818,3.1985,3.2608,3.3176,3.3653,3.3763,3.3799,3.3799,3.3799,3.3799,0.0,0.0,0.0,3.4899,0.0,3.5522,3.5614,3.5925,3.5925,3.576,3.6072,3.6201,3.6201,3.6201,0.0,0.0,0.0,0.0,0.0,0.0,0.0,0.0,3.7318,3.774,3.8217,3.86,3.9003,3.9507,4.0297,4.1132,4.2059,4.3252,4.4647,4.6043,4.7207,4.7706,4.8089,4.8633,4.8734,4.8871,4.9273,4.9352,4.9668,5.0527,5.0742,5.0933,5.1343,5.1401,5.144,5.1538,5.146,0.0,0.0,0.0,0.0,0.0,0.0,0.0,5.3861,5.3959,5.3998,5.3998,5.3998,5.3998,5.3998,5.4095,5.4271,0.0,5.4655,5.4889,5.5156,5.4726,5.4765,5.5195,5.5474,5.5616,5.5583,5.547,5.5322,5.5161,5.4844,5.4582,5.4399,5.4399,5.4046,5.3539,0.0,0.0,0.0,0.0,0.0,0.0,0.0,0.0,0.0,0.0,0.0,0.0,0.0,0.0,0.0,0.0,0.0,0.0,0.0,0.0,3.237,3.2571,3.3158,3.3579,3.3799,3.3799,3.3799,3.3799,3.3799,0.0,0.0,0.0,0.0,3.5284,0.0,3.5889,3.5889,3.6109,3.6072,3.5907,3.6127,3.6201,3.6201,0.0,0.0,0.0,0.0,0.0,0.0,0.0,0.0,0.0,0.0,0.0,3.8382,3.8765,3.9188,3.977,4.083,4.1755,4.2732,4.4273,4.5805,4.7053,4.7503,4.8089,4.8597,4.8855,4.9046,4.9258,4.9469,4.984,5.025,5.0742,5.0952,5.1148,5.1382,5.1401,5.1401,5.1401,5.1401,5.1577,0.0,0.0,0.0,0.0,0.0,5.392,5.373,5.3881,5.3998,5.3998,5.3998,5.3998,5.3998,5.4408,5.4648,5.4713,5.5098,5.539,5.5579,5.539,5.539,5.5599,5.6055,5.625,5.6243,5.6164,5.5966,5.5671,5.5375,5.5125,5.4909,5.4909,5.453,5.3989,0.0,0.0,0.0,0.0,0.0,0.0,0.0,0.0,0.0,0.0,0.0,0.0,0.0,0.0,0.0,0.0,0.0,0.0,0.0,0.0,0.0,3.3286,3.3616,3.3799,3.3799,3.3799,3.3799,3.3799,0.0,0.0,0.0,0.0,0.0,3.5614,0.0,3.6145,3.609,3.6164,3.6145,3.609,3.6164,3.6201,0.0,0.0,0.0,0.0,0.0,0.0,0.0,0.0,0.0,0.0,0.0,0.0,3.8673,3.8985,3.9485,4.0161,4.126,4.2377,4.3649,4.547,4.676,4.762,4.7698,4.8323,4.8913,4.8913,4.916,4.943,4.9586,5.0215,5.0742,5.0898,5.1187,5.1401,5.1401,5.1401,5.1401,5.1401,5.1401,5.1616,5.2148,5.25,0.0,0.0,0.0,5.3842,5.3521,5.3828,5.3998,5.3998,5.3998,5.3998,5.3998,5.4805,5.5058,5.4805,5.5618,5.6028,5.6028,5.6028,5.6028,5.6028,5.6426,5.6609,5.6609,5.6609,5.6314,5.5859,5.5859,5.559,5.5206,5.5206,5.4801,5.4287,0.0,0.0,0.0,0.0,0.0,0.0,0.0,0.0,0.0,0.0,0.0,0.0,0.0,0.0,0.0,0.0,0.0,0.0,0.0,0.0,0.0,3.3708,3.3763,3.3799,3.3799,3.3799,3.3799,3.3799,0.0,0.0,0.0,0.0,0.0,3.5614,0.0,0.0,3.5705,3.6035,3.5999,3.5705,3.6072,3.6201,0.0,0.0,0.0,0.0,0.0,0.0,0.0,0.0,3.73,0.0,0.0,0.0,3.8618,3.8673,3.9245,4.0011,4.0531,4.236,4.4553,4.6292,4.7168,4.7698,4.8047,4.8519,4.8913,4.8913,4.8929,4.9203,4.9984,5.0199,5.0508,5.1206,5.1362,5.1401,5.1401,5.1401,5.1401,5.1401,5.1401,5.1714,5.2539,5.2676,5.3002,0.0,5.3939,5.3978,5.392,5.3978,5.3998,5.3998,5.3998,5.3998,5.3998,5.4512,5.4922,5.5234,5.6094,5.6504,5.6504,5.6504,5.6504,5.6504,5.6562,5.6609,5.6609,5.6609,5.6555,5.6475,5.6475,5.6448,5.6368,5.6368,5.5993,5.5402,0.0,0.0,0.0,0.0,0.0,0.0,0.0,0.0,0.0,0.0,0.0,0.0,0.0,0.0,0.0,3.1701,3.2079,3.2533,0.0,0.0,0.0,3.3781,3.3799,3.3799,3.3799,3.3799,3.3799,3.3799,0.0,0.0,0.0,3.4991,3.5339,0.0,0.0,0.0,0.0,0.0,0.0,0.0,0.0,0.0,0.0,0.0,0.0,0.0,0.0,0.0,0.0,0.0,0.0,3.8033,3.8272,0.0,0.0,0.0,3.9208,4.0239,4.1851,4.3469,4.4986,4.6236,4.709,4.7659,4.7812,4.8574,4.9238,4.9238,4.9457,4.975,5.0121,5.0371,5.0723,5.1304,5.1206,5.1148,5.1382,5.1401,5.1401,5.1401,5.1616,5.1933,5.2324,5.2818,5.3267,5.3633,5.3861,5.3998,5.3998,5.3998,5.3998,5.3998,5.3998,5.4115,5.4394,5.4824,5.5371,5.6035,5.6433,5.6609,5.6609,5.6609,5.6609,5.6609,5.6609,5.6609,5.6609,5.6609,5.6609,5.6609,5.6609,5.6609,5.6609,5.6609,5.602,5.5233,0.0,0.0,0.0,0.0,0.0,0.0,0.0,0.0,0.0,0.0,0.0,0.0,0.0,0.0,0.0,0.0,3.2425,3.3046,3.3744,0.0,0.0,3.3963,3.3946,3.3946,3.3946,3.3946,3.3891,0.0,0.0,0.0,3.5009,3.5302,3.5779,0.0,3.6347,0.0,0.0,0.0,0.0,0.0,0.0,0.0,0.0,0.0,0.0,0.0,0.0,0.0,0.0,0.0,0.0,0.0,0.0,3.86,0.0,0.0,0.0,4.0427,4.2855,4.4086,4.4936,4.6041,4.6855,4.748,4.7718,4.8496,4.9195,4.9313,4.9785,5.0199,5.0199,5.0527,5.0937,5.1343,5.1148,5.105,5.1362,5.1401,5.1401,5.1401,5.1719,5.2012,5.2226,5.2837,5.3306,5.3541,5.3848,5.3998,5.3998,5.3998,5.3998,5.3998,5.3998,5.4238,5.4694,5.5195,5.584,5.6609,5.6609,5.6609,5.6609,5.6609,5.6609,5.6609,5.6609,5.6609,5.6609,5.6609,5.6609,5.6609,5.6609,5.6609,5.6609,5.6609,5.6047,5.5286,0.0,0.0,0.0,0.0,0.0,0.0,0.0,0.0,0.0,0.0,0.0,0.0,0.0,0.0,3.2438,3.2017,3.2699,3.3359,3.3763,3.3799,3.3964,3.4348,3.4367,0.0,3.4367,3.4367,0.0,0.0,0.0,0.0,3.5028,3.6163,3.6731,3.6768,3.6768,3.6567,3.6219,0.0,0.0,0.0,0.0,0.0,0.0,0.0,0.0,0.0,0.0,0.0,0.0,0.0,0.0,0.0,0.0,0.0,0.0,0.0,0.0,0.0,4.2474,4.3391,4.4181,4.5876,4.6618,4.7146,4.7988,4.8223,4.8398,4.8832,4.9613,5.0199,5.0199,5.0527,5.0937,5.1343,5.1382,5.1382,5.1401,5.1401,5.1401,5.1401,5.1421,5.1753,5.2598,5.2715,5.3086,5.39,5.3998,5.3998,5.3998,5.3998,5.3998,5.3998,5.3998,5.4238,5.4694,5.5488,5.6106,5.6609,5.6609,5.6609,5.6609,5.6609,5.6609,5.6609,5.6609,5.6609,5.6609,5.6609,5.6609,5.6609,5.6609,5.6609,5.6609,5.6609,5.6555,5.6368,0.0,0.0,0.0,0.0,0.0,0.0,0.0,0.0,0.0,0.0,0.0,0.0,0.0,0.0,3.3587,3.3179,3.3183,3.3378,3.3763,3.3799,3.3964,3.4385,3.4403,3.4532,3.4789,3.4532,0.0,0.0,0.0,3.4752,3.5009,3.598,3.6548,3.6805,3.6805,3.6713,3.6585,3.6457,0.0,0.0,0.0,0.0,0.0,0.0,0.0,0.0,0.0,0.0,0.0,0.0,0.0,0.0,0.0,0.0,0.0,0.0,3.9852,4.0687,4.2553,4.3396,4.4062,4.5554,4.6211,4.6658,4.7243,4.8027,4.8695,4.8874,4.9594,5.0278,5.0527,5.0703,5.0937,5.1343,5.1187,5.1109,5.1362,5.1401,5.1401,5.1401,5.168,5.1855,5.185,5.2358,5.2832,5.3139,5.3183,5.3301,5.3599,5.3594,5.3594,5.3594,5.416,5.4785,5.5442,5.6055,5.6426,5.6609,5.6609,5.6609,5.6609,5.6609,5.6609,5.6609,5.6609,5.6609,5.6609,5.6609,5.6609,5.6609,5.6609,5.6609,5.6609,5.6609,5.6341,5.5966,0.0,0.0,0.0,0.0,0.0,0.0,0.0,0.0,0.0,0.0,0.0,0.0,0.0,0.0,3.4142,3.4012,3.3864,3.3928,3.4184,3.4202,3.4386,3.4788,3.4807,3.4917,3.5211,0.0,0.0,0.0,0.0,0.0,0.0,3.6017,3.6622,3.6988,3.686,3.6878,0.0,0.0,0.0,3.6585,0.0,0.0,3.7024,0.0,0.0,0.0,0.0,0.0,0.0,0.0,0.0,0.0,0.0,0.0,0.0,0.0,0.0,4.1017,4.2465,4.3271,4.3983,4.5166,4.5781,4.6269,4.6992,4.7812,4.8561,4.8855,4.9594,5.0297,5.0547,5.082,5.1089,5.1362,5.1167,5.1089,5.1362,5.1401,5.1401,5.1401,5.168,5.1816,5.1636,5.2285,5.2773,5.291,5.293,0.0,5.3365,5.341,5.3443,5.3599,5.4459,5.5156,5.5696,5.6289,5.6609,5.6609,5.6609,5.6609,5.6609,5.6609,5.6609,5.6609,5.6609,5.6609,5.6609,5.6609,5.6609,5.6609,5.6609,5.6609,5.6609,5.6609,5.6341,5.5966,0.0,0.0,0.0,0.0,0.0,0.0,0.0,0.0,0.0,0.0,0.0,0.0,0.0,0.0,0.0,3.4385,3.4771,3.4991,3.4991,3.4991,3.5174,3.5577,3.5595,3.5614,0.0,0.0,0.0,0.0,0.0,0.0,0.0,0.0,3.7006,3.7392,3.6988,3.7024,3.741,0.0,3.7392,3.7354,0.0,3.7062,3.7539,0.0,0.0,0.0,3.9511,3.994,0.0,0.0,0.0,0.0,0.0,0.0,0.0,0.0,0.0,0.0,0.0,0.0,0.0,4.4775,4.5332,4.5998,4.7249,4.7561,4.7815,4.8698,4.9555,5.018,5.0199,5.0859,5.1382,5.1401,5.1401,5.1401,5.1401,5.1401,5.1401,5.1401,5.1401,5.1577,5.2056,5.2441,5.2871,5.3326,5.3365,5.3365,5.3365,5.3365,5.358,5.4017,5.4837,5.5293,5.5332,5.6152,5.6609,5.6609,5.6609,5.6609,5.6609,5.6609,5.6609,5.6609,5.6609,5.6609,5.6609,5.6609,5.6609,5.6609,5.6609,5.6609,5.6609,5.6609,5.6609,5.6502,0.0,0.0,0.0,0.0,0.0,0.0,0.0,0.0,0.0,0.0,0.0,0.0,0.0,0.0,0.0,3.4807,3.4954,3.4991,3.4991,3.4991,3.5174,3.5577,3.5595,3.5742,3.6036,0.0,0.0,0.0,0.0,3.5595,3.5614,0.0,0.0,0.0,3.7281,3.73,3.7373,3.6769,0.0,0.0,3.6951,3.7602,0.0,0.0,0.0,0.0,0.0,4.1096,0.0,0.0,4.1526,4.1097,0.0,0.0,0.0,0.0,0.0,0.0,4.2169,0.0,0.0,0.0,0.0,0.0,4.5998,4.6445,4.6894,4.7776,4.8636,4.9437,5.0082,5.0625,5.105,5.1362,5.1401,5.1401,5.1401,5.1401,5.1401,5.1401,5.1401,5.146,5.1577,5.1992,5.2441,0.0,5.2891,5.2891,5.2891,5.2891,5.3379,5.4473,5.4726,5.5156,5.5735,5.597,5.6269,5.6609,5.6609,5.6609,5.6609,5.6609,5.6609,5.6609,5.6609,5.6609,5.6609,5.6609,5.6609,5.6609,5.6609,5.6609,5.6609,5.6609,5.6609,5.6582,0.0,0.0,0.0,0.0,0.0,0.0,0.0,0.0,0.0,0.0,0.0,0.0,0.0,0.0,0.0,0.0,3.5412,3.5504,3.5504,3.5504,3.5614,3.5834,3.5852,3.5962,3.6182,3.6128,0.0,0.0,0.0,0.0,0.0,0.0,0.0,0.0,0.0,0.0,0.0,0.0,0.0,0.0,3.7712,0.0,0.0,4.0146,4.0781,0.0,0.0,0.0,4.2336,4.2985,4.2619,0.0,0.0,0.0,0.0,0.0,0.0,0.0,0.0,0.0,0.0,0.0,0.0,0.0,4.5742,4.6406,4.7031,4.7695,4.8695,4.9594,5.0102,5.0664,5.1128,5.1362,5.1401,5.1401,5.1401,5.1401,5.1401,5.1401,5.1401,5.1479,5.1655,5.209,5.2519,5.2974,5.2812,5.2715,5.2715,5.2715,5.3223,5.4375,5.4615,5.5,5.5638,5.5813,5.6126,5.6609,5.6609,5.6609,5.6609,5.6609,5.6609,5.6609,5.6609,5.6609,5.6609,5.6609,5.6609,5.6609,5.6609,5.6609,5.6609,5.6609,5.6609,5.6609,0.0,0.0,0.0,0.0,0.0,0.0,0.0,0.0,0.0,0.0,0.0,0.0,0.0,0.0,0.0,0.0,3.6091,3.6256,3.6274,3.6274,3.6275,3.6275,3.6275,3.6293,3.633,3.6645,3.6645,0.0,0.0,0.0,0.0,0.0,0.0,0.0,0.0,0.0,0.0,0.0,0.0,3.7767,3.8801,3.9595,0.0,0.0,4.1997,0.0,4.2947,4.3486,4.3883,4.4147,0.0,0.0,0.0,0.0,0.0,0.0,4.2455,0.0,0.0,0.0,0.0,0.0,0.0,0.0,4.5918,4.6758,4.7503,4.791,4.9043,5.0004,5.0043,5.0723,5.1265,5.1265,5.1304,5.1362,5.1401,5.1401,5.1401,5.1401,5.144,5.1636,5.2075,5.25,5.293,5.3287,5.293,5.2734,5.2773,5.2773,5.3139,5.3978,5.4414,5.4824,5.5312,5.5657,5.6087,5.6609,5.6609,5.6609,5.6609,5.6609,5.6609,5.6609,5.6609,5.6609,5.6609,5.6609,5.6609,5.6609,5.6609,5.6609,5.6609,5.6609,5.6609,5.6628,0.0,0.0,0.0,0.0,0.0,0.0,0.0,0.0,0.0,0.0,0.0,0.0,0.0,0.0,0.0,0.0,3.683,3.6664,3.6677,3.6682,3.6682,3.6682,3.6682,3.683,3.7163,3.6923,3.6923,3.7163,0.0,0.0,0.0,0.0,0.0,0.0,0.0,0.0,0.0,0.0,0.0,3.9364,3.8979,0.0,4.1518,4.2481,4.3289,4.3948,4.4432,4.4669,4.4653,0.0,4.3724,4.3531,0.0,0.0,0.0,0.0,0.0,0.0,0.0,0.0,0.0,0.0,0.0,0.0,4.4726,4.543,4.6194,4.6582,4.7695,4.8714,4.9066,4.9867,5.043,5.043,5.0703,5.1011,5.1362,5.1401,5.1401,5.1401,5.1738,5.1992,5.2095,5.2798,5.315,5.2851,5.2754,5.2871,5.3228,5.3267,5.3476,5.3978,5.4095,5.4505,5.5293,5.539,5.582,5.6609,5.6609,5.6609,5.6609,5.6609,5.6609,5.6609,5.6609,5.6609,5.6609,5.6609,5.6609,5.6609,5.6609,5.6609,5.6609,5.6609,5.6609,5.6667,0.0,0.0,0.0,0.0,0.0,0.0,0.0,0.0,0.0,0.0,0.0,0.0,0.0,0.0,0.0,0.0,0.0,0.0,0.0,3.6905,3.6886,3.7089,3.6904,3.6978,3.7384,3.7403,3.7403,3.7403,3.72,0.0,0.0,0.0,0.0,0.0,0.0,0.0,0.0,0.0,3.9893,4.0835,4.0879,0.0,4.257,4.3647,4.4458,4.5058,4.5273,4.5488,4.5543,4.49,4.47,0.0,0.0,4.3758,4.3441,0.0,0.0,4.3443,0.0,0.0,0.0,4.3984,0.0,0.0,0.0,4.5703,4.6367,4.654,4.7438,4.834,4.8815,4.9418,4.9922,5.016,5.0527,5.0801,5.0801,5.1148,5.1401,5.1401,5.1597,5.1836,5.2075,5.2505,5.2661,5.2422,5.2598,5.2812,5.3052,5.3052,5.334,5.3978,5.4213,5.4668,5.5293,5.5481,5.5937,5.6609,5.6609,5.6609,5.6609,5.6609,5.6609,5.6609,5.6609,5.6609,5.6609,5.6609,5.6609,5.6609,5.6609,5.6609,5.6609,5.6609,5.6609,5.664,0.0,0.0,0.0,0.0,0.0,0.0,0.0,0.0,0.0,0.0,0.0,0.0,0.0,0.0,0.0,0.0,0.0,0.0,0.0,0.0,3.7276,3.7627,3.7313,3.7388,3.787,3.813,3.813,3.787,3.7796,3.8006,3.848,0.0,0.0,0.0,0.0,0.0,0.0,0.0,0.0,4.2226,0.0,4.333,4.3235,4.452,4.5254,4.5588,4.5764,4.6016,4.623,4.5842,0.0,4.5627,4.5135,4.4998,0.0,0.0,0.0,0.0,0.0,0.0,0.0,0.0,0.0,4.5215,0.0,0.0,0.0,4.6677,4.7341,4.8086,4.8558,4.8906,4.9277,4.9652,5.0098,5.0293,4.9887,5.0605,5.1206,5.1284,5.144,5.1675,5.2075,5.2114,5.2114,5.2114,5.2402,5.2617,5.2695,5.2793,5.3203,5.3978,5.4453,5.4883,5.5312,5.5696,5.6126,5.6609,5.6609,5.6609,5.6609,5.6609,5.6609,5.6609,5.6609,5.6609,5.6609,5.6609,5.6609,5.6609,5.6609,5.6609,5.6609,5.6609,5.6609,5.664,0.0,0.0,0.0,0.0,0.0,0.0,0.0,0.0,0.0,0.0,0.0,0.0,0.0,0.0,0.0,0.0,0.0,0.0,3.8595,0.0,0.0,3.8474,3.8436,3.8777,3.9615,3.9313,3.9294,3.9615,3.9276,3.9469,4.0199,3.949,0.0,0.0,4.0202,0.0,0.0,0.0,4.2284,0.0,4.4429,4.4096,0.0,4.4509,4.5037,4.5174,4.5957,4.6269,4.623,0.0,4.5705,4.5627,0.0,4.4998,0.0,0.0,0.0,0.0,0.0,0.0,0.0,0.0,4.5273,0.0,0.0,0.0,4.6269,4.592,0.0,4.7185,4.7659,0.0,0.0,4.7894,4.8578,4.8949,4.8496,4.9531,5.0449,5.084,5.1543,5.2031,5.2095,5.2114,5.2114,5.2114,5.2153,5.2324,5.2695,5.3091,5.3541,5.3998,5.4453,5.4883,5.5312,5.5696,5.6126,5.6609,5.6609,5.6609,5.6609,5.6609,5.6609,5.6609,5.6609,5.6609,5.6609,5.6609,5.6609,5.6609,5.6609,5.6609,5.6609,5.6609,5.6609,5.664,0.0,0.0,0.0,0.0,0.0,0.0,0.0,0.0,0.0,3.9618,0.0,0.0,0.0,0.0,0.0,0.0,0.0,0.0,0.0,0.0,0.0,0.0,3.9276,0.0,4.0235,3.9849,3.9732,3.9902,3.9505,3.9718,4.0489,3.9932,4.0337,4.1523,4.1172,0.0,4.254,0.0,0.0,0.0,0.0,0.0,0.0,4.5176,4.574,4.5799,4.6172,4.6308,4.623,0.0,4.5861,0.0,0.0,0.0,0.0,0.0,0.0,0.0,0.0,0.0,0.0,0.0,0.0,0.0,0.0,0.0,4.625,0.0,0.0,0.0,0.0,0.0,0.0,0.0,4.8323,4.8636,4.7949,4.8965,4.9961,5.0391,5.0762,5.1098,5.1308,5.1797,5.1997,5.1719,5.1933,5.229,5.2695,5.2891,5.3301,5.3978,5.4453,5.4883,5.5312,5.5696,5.6126,5.6609,5.6609,5.6609,5.6609,5.6609,5.6609,5.6609,5.6609,5.6609,5.6609,5.6609,5.6609,5.6609,5.6609,5.6609,5.6609,5.6609,5.6609,5.664,0.0,0.0,0.0,0.0,0.0,0.0,0.0,0.0,0.0,0.0,0.0,0.0,4.1758,4.1894,0.0,0.0,0.0,4.1523,0.0,0.0,4.055,0.0,0.0,0.0,0.0,0.0,4.0527,4.041,4.0123,4.0279,4.086,4.0434,4.088,4.1973,0.0,4.2344,4.3243,0.0,0.0,4.3829,4.4121,4.4375,4.4686,4.5742,4.6191,4.6308,4.6308,4.6308,4.625,4.5979,4.6055,0.0,4.5959,0.0,0.0,0.0,0.0,0.0,4.5467,0.0,0.0,0.0,0.0,0.0,0.0,0.0,0.0,0.0,0.0,0.0,0.0,0.0,0.0,0.0,0.0,4.8226,4.7366,4.8242,4.9199,4.9769,5.0043,5.0375,5.0762,5.1367,5.1641,5.1421,5.1719,5.2148,5.2676,5.2715,5.31,5.3978,5.4453,5.4883,5.5312,5.5696,5.6126,5.6609,5.6609,5.6609,5.6609,5.6609,5.6609,5.6609,5.6609,5.6609,5.6609,5.6609,5.6609,5.6609,5.6609,5.6609,5.6609,5.6609,5.666,5.6777,0.0,3.8573,0.0,0.0,0.0,0.0,0.0,0.0,0.0,0.0,0.0,0.0,0.0,0.0,0.0,0.0,0.0,4.2187,4.1777,0.0,4.1738,0.0,0.0,0.0,0.0,0.0,0.0,4.1738,4.1738,4.1718,4.1758,4.1348,4.1601,4.2363,4.1953,4.25,4.3691,4.3672,4.4414,4.5607,4.5627,4.6094,4.6716,0.0,4.5979,4.6308,4.6308,0.0,0.0,4.6289,4.6289,0.0,0.0,0.0,0.0,0.0,0.0,0.0,0.0,0.0,0.0,0.0,0.0,0.0,0.0,0.0,4.6892,0.0,0.0,0.0,0.0,0.0,0.0,0.0,0.0,0.0,0.0,4.709,4.7972,4.8855,4.9672,5.0375,5.0762,5.082,5.1016,5.1382,5.1421,5.1792,5.2656,5.2715,5.31,5.3978,5.4453,5.4883,5.5312,5.5696,5.6126,5.6609,5.6609,5.6609,5.6609,5.6609,5.6609,5.6609,5.6609,5.6609,5.6609,5.6609,5.6609,5.6609,5.6609,5.6609,5.6609,5.6609,5.6836,5.7129,0.0,0.0,0.0,0.0,0.0,0.0,0.0,4.0137,0.0,0.0,0.0,0.0,0.0,0.0,4.3398,0.0,0.0,4.3827,4.3105,4.334,0.0,0.0,0.0,4.3125,0.0,0.0,0.0,0.0,0.0,4.2187,4.2187,4.207,4.2305,4.2851,4.2715,4.3359,0.0,0.0,0.0,0.0,0.0,4.6094,4.7305,0.0,0.0,4.7148,4.7148,4.7148,0.0,4.7148,4.7148,4.7148,4.7148,4.7148,4.7148,4.7148,4.7268,0.0,0.0,0.0,4.7539,4.6543,0.0,0.0,0.0,0.0,0.0,0.0,0.0,0.0,0.0,0.0,0.0,0.0,0.0,0.0,0.0,4.695,4.7363,4.7972,4.8792,4.9496,4.9898,5.0445,5.0859,5.0972,5.1245,5.1655,5.2266,5.2558,5.2969,5.3599,5.4023,5.459,5.5293,5.5423,5.5879,5.6609,5.6609,5.6609,5.6609,5.6609,5.6738,5.6992,5.6992,5.6992,5.7031,5.7332,5.7293,5.7031,5.7351,5.7468,5.739,5.6824,5.668,5.6855,3.9394,0.0,0.0,0.0,0.0,0.0,0.0,0.0,0.0,0.0,4.2383,0.0,4.3867,0.0,4.4276,0.0,4.4842,4.4764,4.4219,4.4453,0.0,4.4629,4.4315,0.0,0.0,0.0,0.0,0.0,0.0,4.2948,4.2656,4.2656,4.2891,4.3321,4.3165,4.3808,4.4979,4.4705,4.494,0.0,0.0,4.6521,0.0,0.0,4.7461,4.76,0.0,4.76,4.76,4.76,4.76,4.76,4.76,4.76,4.76,4.76,4.7718,4.7796,4.764,4.7891,0.0,0.0,4.7168,0.0,0.0,0.0,0.0,0.0,0.0,0.0,0.0,0.0,0.0,0.0,0.0,0.0,0.0,4.6677,4.6892,4.7542,4.8226,4.8949,4.9687,5.0117,5.0547,5.0972,5.1109,5.144,5.2075,5.248,5.291,5.339,5.3945,5.459,5.5293,5.5423,5.5879,5.6609,5.6609,5.6609,5.6609,5.6609,5.6738,5.6992,5.6992,5.707,5.7199,5.7547,5.7586,5.7461,5.7605,5.7664,5.7605,5.7214,5.7058,5.7175,0.0,0.0,0.0,0.0,4.0274,0.0,0.0,0.0,4.2597,0.0,4.3867,4.4414,4.4492,4.4822,4.5076,4.5115,4.5135,0.0,4.5135,4.5135,0.0,0.0,4.5135,4.5115,4.5096,0.0,0.0,0.0,0.0,4.3986,4.3165,4.3145,4.332,4.3691,4.3301,4.3848,4.4998,4.5018,4.5545,4.6406,4.6775,4.7458,4.8262,4.8242,0.0,4.7718,4.7679,4.7659,4.7659,4.7659,4.7659,4.7659,4.7659,4.7659,4.7659,4.7659,4.793,4.8144,4.7776,4.793,4.8144,4.7757,0.0,0.0,0.0,0.0,4.8223,0.0,0.0,0.0,0.0,0.0,0.0,0.0,0.0,0.0,0.0,0.0,4.6621,4.7503,4.793,4.8672,4.9984,4.9746,4.9996,5.1226,5.0972,5.1172,5.2036,5.2441,5.2871,5.3345,5.4225,5.4883,5.5312,5.5696,5.6126,5.6609,5.6609,5.6609,5.6609,5.6609,5.6628,5.6648,5.6648,5.6836,5.7207,5.7246,5.748,5.782,5.7402,5.7246,5.7285,5.7703,5.7879,5.7957,4.0352,4.0879,4.1308,0.0,4.1152,4.125,0.0,0.0,0.0,0.0,4.4043,4.4766,4.5703,4.5898,4.623,4.6897,4.6914,0.0,0.0,0.0,0.0,4.6914,4.6914,4.6777,4.6423,4.6111,0.0,4.5197,0.0,0.0,4.4062,4.3711,4.3594,4.3711,4.3965,4.4414,4.5018,4.5371,4.6213,4.7288,4.7363,4.8125,0.0,0.0,4.9046,4.9457,4.8792,4.8581,4.8581,4.8581,4.8581,4.8581,4.8581,4.8581,4.8581,4.8581,4.8636,4.8695,4.8578,4.8636,4.8718,4.86,4.8581,4.846,0.0,0.0,0.0,0.0,0.0,0.0,0.0,0.0,0.0,0.0,0.0,0.0,0.0,0.0,0.0,4.7503,4.7698,4.8008,4.8652,4.9176,4.9644,4.9957,5.0484,5.1035,5.1538,5.2012,5.2441,5.2871,5.4043,5.4883,5.5312,5.5696,5.6126,5.6609,5.6609,5.6609,5.6609,5.6609,5.6758,5.7051,5.7051,5.7109,5.7246,5.7586,5.7605,5.7402,5.7644,5.7722,5.7703,5.7461,5.7605,5.7957,4.1328,0.0,0.0,4.2598,0.0,0.0,4.3576,0.0,0.0,4.5057,4.5353,0.0,4.6482,4.6758,4.7073,4.7561,4.76,0.0,0.0,0.0,0.0,4.76,4.76,4.7483,4.7226,4.6973,0.0,4.5979,0.0,0.0,4.4394,4.4316,4.4082,4.373,4.4199,4.4608,4.5057,4.5879,4.6995,4.8167,4.8167,0.0,0.0,4.9555,4.9652,4.9824,4.9336,4.9164,4.9144,4.8972,4.8913,4.8913,4.8913,4.8913,4.8913,4.8913,4.8913,4.8952,4.9125,4.9164,4.9164,4.9164,4.932,4.934,4.8887,4.9121,4.9398,0.0,0.0,0.0,0.0,0.0,0.0,0.0,0.0,0.0,0.0,0.0,0.0,0.0,4.76,4.7776,4.8164,4.8828,4.9394,4.9785,5.0254,5.0723,5.1109,5.1914,5.2461,5.2695,5.416,5.5058,5.5312,5.5918,5.6348,5.6609,5.6609,5.6609,5.6609,5.6609,5.6719,5.6933,5.6933,5.7051,5.7226,5.748,5.7566,5.75,5.7586,5.7488,5.7351,5.7441,5.7793,5.8203,0.0,0.0,0.0,0.0,0.0,0.0,0.0,4.5907,0.0,4.7007,0.0,4.7031,4.7156,4.7486,4.7698,0.0,0.0,4.7776,4.7776,4.7776,4.7776,4.7776,4.7776,4.7776,4.7776,4.7718,0.0,0.0,0.0,0.0,4.4492,4.4705,4.4452,4.3808,4.4277,4.4785,4.533,4.656,4.7841,4.9121,4.9239,4.9815,5.0661,5.0598,5.0361,5.0062,4.9933,4.9765,4.9538,4.9192,4.917,4.9285,4.9285,4.9216,4.919,4.9249,4.9222,4.9274,4.9679,4.9797,4.9816,4.9852,5.0169,5.0369,4.9973,5.0169,5.0448,5.0408,5.0341,0.0,0.0,0.0,0.0,0.0,0.0,0.0,0.0,0.0,0.0,0.0,0.0,0.0,4.8262,4.8714,4.9261,4.9984,5.0082,5.0293,0.0,0.0,5.2573,5.2695,5.4394,5.5312,5.5312,0.0,5.6609,5.6609,5.6609,5.6609,5.6609,5.6609,5.6609,5.6609,5.6609,5.6797,5.7129,5.7129,5.7344,5.7683,5.7285,5.6914,5.6706,5.7507,5.8086,5.8449,0.0,0.0,0.0,0.0,0.0,4.828,4.888,4.8392,4.7841,4.7599,4.7504,0.0,4.8557,4.8316,4.8242,4.864,4.8679,0.0,0.0,0.0,0.0,4.8679,4.8679,4.8679,4.8679,4.8281,4.7851,0.0,0.0,0.0,4.4881,4.4217,4.4062,4.4297,4.4705,4.5525,4.6638,4.7556,0.0,5.0194,5.0936,5.2006,5.3138,5.2749,5.279,5.2948,5.218,5.1154,5.0165,5.0085,5.0616,5.1275,5.1275,5.098,5.0697,5.1104,5.0949,5.0726,5.1186,5.1306,5.1386,5.1723,5.1863,5.1903,5.1823,5.1863,5.1847,5.151,5.1077,5.0676,5.0343,0.0,0.0,0.0,0.0,0.0,0.0,0.0,0.0,0.0,0.0,4.9062,0.0,4.9141,4.9316,4.9148,4.9433,4.9957,0.0,0.0,5.1948,0.0,5.4394,0.0,0.0,0.0,5.6609,5.6609,5.6609,5.6609,5.6609,5.6609,5.6609,5.6609,5.6609,5.6648,5.6726,5.6726,5.6738,5.6824,5.6745,5.664,5.664,5.7148,5.7598,5.8113,0.0,0.0,0.0,0.0,0.0,0.0,0.0,5.1454,0.0,4.9982,4.916,4.8779,4.8995,4.8738,4.8656,4.8894,4.8913,4.8913,4.8913,4.9105,4.9125,4.8913,4.9105,0.0,4.8913,0.0,4.8245,4.76,0.0,0.0,0.0,4.4824,4.4609,4.4433,4.5271,4.64,4.7704,0.0,0.0,5.1524,5.2407,5.3358,5.4107,5.3596,5.342,5.3352,5.2609,5.2101,5.1673,5.1186,5.1368,5.176,5.176,5.1575,5.1408,5.1631,5.1529,5.1463,5.1886,5.2007,5.2114,5.26,5.3084,5.3447,5.3485,5.3632,5.3592,5.2891,5.2329,5.1686,5.0728,5.0224,0.0,0.0,0.0,0.0,0.0,0.0,0.0,0.0,0.0,0.0,0.0,0.0,4.9313,4.8933,4.9277,0.0,0.0,0.0,5.1792,0.0,0.0,0.0,0.0,0.0,0.0,5.6609,5.6609,5.6609,5.6628,5.6816,5.6914,5.6914,5.7175,5.7273,5.7273,5.7273,5.7136,5.6933,5.7195,5.7136,5.6992,5.7629,5.8027,5.8262,0.0,4.7449,0.0,0.0,5.0624,0.0,5.2861,5.4171,5.439,5.2494,5.1117,5.0222,5.0042,4.9728,4.9509,4.9492,4.9321,4.9226,4.933,4.9422,4.9461,4.9326,4.9519,4.9492,4.9187,4.9066,4.8636,0.0,0.0,0.0,0.0,4.5469,4.5337,4.4992,4.6109,0.0,0.0,0.0,5.1535,5.295,5.3875,5.4573,5.4957,5.464,5.4272,5.3843,5.3514,5.3688,5.391,5.3175,5.279,5.2646,5.2646,5.2716,5.283,5.2912,5.286,5.2869,5.3299,5.3493,5.3658,5.4062,5.4803,5.5443,5.5504,5.5696,5.5598,5.4678,5.3767,5.2732,5.1383,5.1158,0.0,0.0,0.0,0.0,0.0,0.0,0.0,0.0,0.0,0.0,4.9086,0.0,0.0,4.8933,4.9277,0.0,5.018,0.0,0.0,0.0,0.0,5.4844,5.5176,0.0,5.6609,0.0,5.6609,5.6609,5.6601,5.7012,5.7207,5.7246,5.7703,5.7898,5.7898,5.7898,5.7683,5.7383,5.7762,5.7683,5.7441,5.8215,5.8507,5.8507,0.0,0.0,0.0,0.0,0.0,0.0,0.0,5.5701,5.5882,5.397,5.2857,5.2563,5.3347,5.2294,5.1484,5.1433,5.0653,5.0316,5.0691,4.9942,4.9855,5.0683,5.0338,5.0121,5.0082,4.9668,4.9219,0.0,0.0,0.0,0.0,0.0,0.0,0.0,0.0,0.0,0.0,5.1248,5.2722,5.4481,5.5436,5.6115,5.6629,5.7056,5.6906,5.6494,5.6885,5.7047,5.7069,5.7,5.638,5.5709,5.5709,5.6027,5.6477,5.6848,5.6659,5.6422,5.6879,5.7312,5.766,5.7706,5.8098,5.8489,5.8514,5.819,5.7772,5.7261,5.5267,5.3334,5.2345,5.2112,5.168,0.0,0.0,0.0,0.0,0.0,0.0,0.0,0.0,0.0,0.0,4.9488,0.0,0.0,4.9277,0.0,0.0,0.0,0.0,5.2153,0.0,5.4733,5.4772,5.5976,5.6609,5.6609,5.6609,5.6609,5.6601,5.7012,5.7207,5.7246,5.7703,5.7898,5.7898,5.7898,5.7879,5.784,5.7879,5.7879,5.7879,5.8332,5.8507,5.8566,0.0,0.0,0.0,0.0,0.0,0.0,0.0,5.7563,5.7838,5.7065,5.5376,5.4264,5.431,5.3847,5.3535,5.3495,5.3144,5.3024,5.317,5.2477,5.2264,5.2675,5.2212,5.195,5.2016,5.1834,5.151,0.0,0.0,0.0,0.0,0.0,0.0,0.0,0.0,5.0466,5.1851,5.3967,5.526,5.6064,5.7661,5.8231,5.8117,5.8052,5.7898,5.7669,5.7554,5.7729,5.7991,5.798,5.7517,5.6947,5.6947,5.7085,5.729,5.7442,5.737,5.7275,5.745,5.7841,5.8281,5.858,5.9223,5.9863,6.0204,6.0136,5.9772,5.8972,5.7053,5.5036,5.3427,5.2917,5.255,0.0,0.0,0.0,0.0,0.0,0.0,0.0,0.0,0.0,0.0,0.0,0.0,0.0,0.0,0.0,0.0,0.0,0.0,5.2441,0.0,5.483,5.5058,5.6074,5.6609,5.6609,5.6609,5.6609,5.6601,5.7312,5.791,5.8406,5.8301,5.8418,5.8669,5.8379,5.8262,5.8273,5.8582,5.8524,5.832,5.8769,5.8917,5.8945,5.4359,0.0,5.4886,0.0,5.6148,5.6926,5.8212,5.8755,5.9008,5.9008,5.7648,5.6464,5.5951,5.5696,5.5527,5.5541,5.5275,5.5112,5.5068,5.4422,5.4114,5.4299,5.3794,0.0,5.3597,5.3452,5.3248,5.296,5.1673,0.0,0.0,0.0,0.0,0.0,5.1835,5.2808,5.4008,5.6497,5.7515,5.7573,5.9153,5.9566,5.9211,5.9025,5.8959,5.8931,5.884,5.9084,5.9396,5.9381,5.9204,5.8956,5.8514,5.859,5.8848,5.8981,5.903,5.9056,5.9213,5.938,5.9612,6.0159,6.0796,6.1335,6.1718,6.1719,6.1336,6.0341,5.865,5.682,5.5125,5.4449,5.3903,0.0,0.0,0.0,0.0,0.0,0.0,0.0,0.0,5.0102,4.934,4.9261,0.0,0.0,0.0,0.0,0.0,0.0,0.0,0.0,0.0,0.0,0.0,5.612,5.6609,5.6609,5.6609,5.664,5.6797,5.7683,5.8496,5.918,5.8828,5.8887,5.918,5.8828,5.8711,5.8742,5.9062,5.9004,5.8742,5.9062,5.9207,5.9207,5.664,5.7488,5.816,5.816,5.8596,5.8963,5.8985,5.8985,5.9008,5.9008,5.9376,5.9468,5.8987,5.8118,5.7536,5.7459,5.6608,5.6033,5.6004,5.5105,5.4805,0.0,0.0,5.4482,5.4482,5.4027,5.3799,5.3778,0.0,0.0,5.2451,0.0,5.2618,5.398,5.4517,5.5496,5.6863,5.8416,5.9039,5.9031,5.956,5.979,5.9839,6.0284,6.0467,6.0592,6.1574,6.1947,6.1947,6.1879,6.2201,6.2388,6.092,6.1162,6.2038,6.248,6.2662,6.2745,6.3285,6.3014,6.2686,6.3209,6.3305,6.3279,6.3279,6.2901,6.2322,6.1382,5.9954,5.8582,5.7633,5.7028,5.5896,5.3479,0.0,0.0,0.0,0.0,0.0,0.0,5.1117,5.0625,5.0219,5.018,0.0,0.0,0.0,0.0,0.0,0.0,0.0,5.2114,5.3795,0.0,5.4713,5.5983,5.6609,5.6609,5.6609,5.6797,5.7199,5.8097,5.8742,5.9207,5.918,5.918,5.9207,5.918,5.918,5.918,5.9207,5.9207,5.918,5.9207,5.9207,5.9207,5.7733,5.83,5.8755,5.8755,5.9146,5.949,5.949,5.9811,6.0018,6.0018,6.0156,6.0202,6.0041,5.977,5.9567,0.0,5.9272,5.909,0.0,5.8148,5.7825,5.828,5.7514,5.7234,5.756,5.743,5.7181,5.6878,0.0,0.0,0.0,5.4337,5.4865,5.5945,5.6792,5.7591,5.8391,5.9954,6.0564,6.054,6.1083,6.1502,6.1796,6.1947,6.2226,6.2596,6.292,6.3245,6.3502,6.3524,6.3641,6.3712,6.3594,6.3316,6.3055,6.3219,6.3263,6.3284,6.3448,6.3602,6.3728,6.3895,6.4163,6.4381,6.4381,6.4005,6.3361,6.2415,6.1546,6.0567,5.9223,5.8026,5.6868,5.5736,0.0,0.0,0.0,0.0,0.0,0.0,0.0,5.0644,0.0,5.0453,0.0,0.0,0.0,0.0,0.0,0.0,0.0,0.0,5.4199,0.0,5.5117,5.6094,5.6609,5.6609,5.6609,5.698,5.7703,5.8262,5.8769,5.918,5.8859,5.8887,5.918,5.8859,5.8914,5.9207,5.9207,5.9207,5.9207,5.9207,5.9207,5.9207,5.9516,5.9596,5.9626,5.9805,5.9923,5.9995,5.9995,6.0293,6.05,6.05,6.0661,6.0753,6.0753,6.0937,0.0,6.0523,6.05,6.0409,6.0227,5.9612,5.9404,5.9722,5.9169,5.9073,5.9553,0.0,0.0,5.9112,5.8508,5.7898,5.7328,5.7314,5.7743,5.8528,5.9319,5.9932,6.0479,6.1611,6.209,6.208,6.2217,6.2684,6.3264,6.3083,6.3432,6.406,6.406,6.4248,6.4507,6.4551,6.4668,6.4857,6.5162,6.4971,6.4592,6.4431,6.4358,6.4377,6.4567,6.4559,6.4525,6.4716,6.4826,6.4838,6.4646,6.4502,6.4176,6.3375,6.312,6.2575,6.112,6.0063,5.9114,5.804,0.0,5.5704,0.0,0.0,0.0,0.0,0.0,0.0,0.0,5.1172,0.0,0.0,0.0,0.0,0.0,0.0,0.0,5.3178,5.457,0.0,5.5521,5.623,5.6609,5.6582,5.6941,5.7371,5.7926,5.8496,5.8917,5.918,5.8887,5.8945,5.918,5.8887,5.8945,5.9207,5.9207,5.9207,5.9207,5.9207,5.9207,5.9207,6.1623,6.1156,0.0,0.0,6.0932,0.0,6.066,6.066,6.0637,6.0615,6.0983,6.1258,6.1258,6.1694,6.1626,6.0707,0.0,0.0,0.0,5.9839,5.9905,5.994,5.9939,6.0165,6.0591,6.0591,6.0591,6.0591,6.0538,6.0515,6.0547,6.0562,6.0816,6.1386,6.1886,6.2373,6.2821,6.3351,6.3558,6.3558,6.3028,6.3451,6.4341,6.3852,6.4273,6.5095,6.5095,6.5095,6.5094,6.5088,6.544,6.5843,6.5781,6.6087,6.6403,6.5985,6.5812,6.5871,6.6352,6.5775,6.5127,6.563,6.539,6.4886,6.4381,6.4622,6.4814,6.4309,6.4574,6.4478,6.3058,6.2758,6.2086,6.0143,5.8966,5.7928,5.6886,0.0,0.0,0.0,0.0,0.0,0.0,5.229,5.2915,0.0,0.0,0.0,0.0,0.0,5.3158,5.3978,5.4857,5.5521,5.5911,5.6367,5.6609,5.6628,5.7488,5.7898,5.7937,5.8817,5.9207,5.9207,5.9207,5.9207,5.9207,5.9255,5.9227,5.9207,5.9255,5.9227,5.9207,5.9207,5.9207,5.9207,0.0,0.0,6.1611,6.1781,6.201,6.2195,6.2179,6.2179,6.2041,6.1695,6.174,6.1809,6.1809,6.1924,6.1901,6.1672,6.1649,6.1602,6.1463,6.1463,6.1463,6.1484,6.1484,6.153,6.1644,6.1644,6.1644,6.1644,6.0863,6.0681,6.1027,6.1028,6.1326,6.1876,6.2755,6.3406,6.3848,6.4039,6.432,6.46,6.4109,6.4531,6.5423,6.5305,6.5632,6.6147,6.6147,6.6147,6.6123,6.6143,6.6238,6.6333,6.6329,6.64,6.6473,6.638,6.6307,6.6328,6.6472,6.6304,6.6135,6.628,6.6208,6.6087,6.5967,6.5727,6.5486,6.5366,6.5079,6.4682,6.3977,6.3219,6.2156,6.0521,5.9178,5.781,5.6385,5.5515,0.0,0.0,5.3577,5.3435,5.3606,5.3389,5.3169,0.0,0.0,0.0,0.0,5.3594,5.3783,5.3998,5.515,5.5813,5.5911,5.6367,5.6609,5.6628,5.7488,5.7898,5.7937,5.8817,5.9207,5.9207,5.9207,5.9207,5.9227,5.9634,5.9559,5.9255,5.9634,5.9559,5.9207,5.9207,5.9207,5.9207,6.2119,6.2386,6.272,6.2956,6.3049,6.3075,6.3058,6.2874,6.2619,6.2365,6.2339,6.2407,6.2664,6.2685,6.2776,6.3034,6.2409,6.2016,6.2016,6.2016,6.2085,6.2291,6.2337,6.2429,6.2659,6.2705,6.2705,6.2705,6.2148,6.2128,6.2618,6.2618,6.2874,6.3385,6.3922,6.446,6.493,6.4718,6.4906,6.5329,6.4836,6.5093,6.5798,6.5798,6.6078,6.6496,6.6496,6.6496,6.6496,6.6496,6.6496,6.6496,6.6496,6.6496,6.6496,6.6496,6.6496,6.6496,6.6496,6.6496,6.6496,6.6496,6.6496,6.6424,6.6183,6.6087,6.5991,6.5751,6.5654,6.5494,6.5011,6.4502,6.3665,6.2361,6.0945,5.944,5.7926,5.6817,0.0,5.4873,5.4642,5.4676,5.4969,5.4404,5.4062,5.4135,0.0,0.0,5.3971,5.4375,5.481,5.5265,5.5953,5.6405,5.6602,5.6598,5.6974,5.7699,5.8109,5.8562,5.9006,5.9672,5.9969,5.9969,5.9969,5.9969,5.9996,6.0302,6.0227,6.0016,6.0302,6.006,5.9607,5.9877,5.9634,5.9255,6.4056,6.3919,6.384,6.4254,6.4049,6.3844,6.3845,6.3454,6.3153,6.306,6.3035,6.3219,6.3688,6.373,6.3936,6.448,6.3267,6.2385,6.2246,6.2246,6.2406,6.2795,6.2818,6.3048,6.3485,6.3508,6.3556,6.3627,6.3464,6.3702,6.4295,6.42,6.4483,6.5,6.5071,6.5423,6.5891,6.5423,6.5494,6.5868,6.5423,6.5517,6.5915,6.5915,6.6147,6.6496,6.6496,6.6496,6.6496,6.6496,6.6496,6.6496,6.6496,6.6496,6.6496,6.6496,6.6496,6.6496,6.6496,6.6496,6.6496,6.6496,6.6496,6.6376,6.5919,6.6159,6.6376,6.5919,6.6183,6.6357,6.5891,6.5798,6.5398,6.4156,6.2921,6.1554,6.001,0.0,5.7399,5.5919,5.6048,5.6185,5.6032,5.5356,5.5187,5.5779,5.4835,5.4419,0.0,5.5306,5.596,5.6886,5.6893,5.7111,5.7521,5.7148,5.7652,5.8994,5.9119,5.9614,6.0467,6.0966,6.1133,6.1057,6.1133,6.1133,6.1057,6.1223,6.1251,6.1175,6.1175,6.0816,6.0318,6.0726,6.0302,5.9515,6.4267,6.4452,6.4712,6.4845,6.5123,6.5359,6.5442,6.5374,6.5164,6.4695,6.4625,6.4671,6.4766,6.4765,6.4976,6.5516,6.4923,6.4168,6.3325,6.3256,6.3302,6.337,6.3393,6.3416,6.3508,6.3508,6.37,6.4174,6.3261,6.3336,6.4296,6.3852,6.4109,6.5017,6.5468,6.5961,6.638,6.631,6.631,6.638,6.631,6.631,6.6403,6.6403,6.645,6.6496,6.6496,6.6496,6.6496,6.6496,6.6496,6.6496,6.6496,6.6496,6.6496,6.6496,6.6496,6.6496,6.6496,6.6496,6.6496,6.6496,6.6496,6.6472,6.6376,6.6424,6.6472,6.6376,6.6424,6.6357,6.5891,6.5798,6.5164,6.3243,6.2735,6.2041,6.0497,0.0,6.0009,5.8445,5.8297,5.796,5.7082,5.6066,5.5865,5.6807,5.5859,5.5443,5.5852,5.6313,5.6852,5.7463,5.7375,5.7568,5.8151,5.8479,5.8754,5.9021,6.0233,6.0931,6.1094,6.2001,6.2138,6.1692,6.2214,6.2138,6.1733,6.2707,6.2843,6.2426,6.2426,6.2049,6.1479,6.1057,6.0801,6.0587,6.5068,6.5398,6.5778,6.5787,6.5997,6.6138,6.617,6.6223,6.6156,6.5873,6.5872,6.5966,6.6204,6.6014,6.606,6.6559,6.6152,6.5554,6.4793,6.4457,6.4197,6.3945,6.4174,6.4312,6.4312,6.4577,6.4866,6.5106,6.4897,6.5045,6.5518,6.5283,6.5399,6.5836,6.6075,6.6287,6.6496,6.6496,6.6496,6.6496,6.6496,6.6496,6.6496,6.6496,6.6496,6.6496,6.6496,6.6496,6.6496,6.6496,6.6496,6.6496,6.6496,6.6496,6.6496,6.6496,6.6496,6.6496,6.6496,6.6496,6.6496,6.6496,6.6496,6.6496,6.6496,6.6496,6.6496,6.6496,6.6496,6.6426,6.6217,6.6171,6.5771,6.4528,6.3847,0.0,0.0,6.1321,6.0492,5.974,5.9161,5.8836,5.8867,5.766,5.7301,5.831,5.7391,5.6857,5.6941,5.7436,5.8087,5.8874,5.8842,5.9207,6.0078,5.9974,6.0323,6.1156,6.18,6.2418,6.2939,6.3393,6.364,6.3694,6.3966,6.4101,6.4161,6.4675,6.4588,6.4101,6.4101,6.3341,6.2303,6.2351,6.1747,6.0919,6.5895,6.6208,6.6496,6.6496,6.6592,6.6688,6.6688,6.684,6.6963,6.6963,6.6939,6.7081,6.7464,6.7153,6.7128,6.7631,6.7246,6.6836,6.6541,6.6029,6.541,6.4667,6.511,6.5366,6.5366,6.5802,6.6045,6.6142,6.6432,6.6653,6.6748,6.6654,6.658,6.6496,6.6616,6.6616,6.6496,6.6616,6.6592,6.6496,6.6496,6.6568,6.6664,6.6544,6.6568,6.6664,6.6544,6.6496,6.6496,6.6496,6.6568,6.6664,6.652,6.6568,6.664,6.652,6.6496,6.6496,6.6496,6.6496,6.6496,6.6496,6.6496,6.6496,6.6496,6.6496,6.6496,6.6496,6.6496,6.6496,6.6496,6.6496,6.6305,6.5638,0.0,0.0,0.0,6.2294,6.1165,6.0788,6.0033,5.9693,6.0083,5.9169,5.8912,5.9783,5.8968,5.8379,5.8264,5.8747,5.96,6.0912,6.0589,6.084,6.1782,6.1412,6.1953,6.3372,6.3574,6.4113,6.5014,6.5149,6.5391,6.5713,6.5847,6.6067,6.6334,6.6467,6.628,6.5874,6.5472,6.448,6.3307,6.3383,6.2515,6.1361,6.6424,6.6472,6.6496,6.6496,6.6928,6.7241,6.7241,6.7675,6.7988,6.7988,6.7988,6.7988,6.8036,6.8012,6.8181,6.8733,6.8299,6.8174,6.8625,6.8182,6.7221,6.5755,6.6214,6.648,6.648,6.6504,6.6745,6.7177,6.6793,6.682,6.7243,6.6795,6.658,6.652,6.7025,6.6976,6.652,6.7025,6.6929,6.6496,6.6496,6.6808,6.7193,6.6688,6.6809,6.7169,6.6688,6.6496,6.6496,6.6496,6.6832,6.7169,6.664,6.6833,6.7145,6.6664,6.6496,6.6496,6.6496,6.6496,6.6496,6.6496,6.6496,6.6496,6.6496,6.6496,6.6496,6.6496,6.6496,6.6496,6.6496,6.6496,6.6189,6.52,0.0,0.0,6.4275,6.4033,6.3386,6.1951,6.1705,6.1126,5.9702,5.9914,6.034,6.0855,6.0292,5.9933,5.9923,6.0363,6.1595,6.3744,6.2283,6.1768,6.2319,6.2682,6.3393,6.4481,6.5431,6.62,6.6809,6.7389,6.7362,6.6889,6.7469,6.7416,6.6969,6.7548,6.7733,6.7548,6.5928,6.5208,6.4934,6.3362,6.2679,6.2495,6.6496,6.6496,6.6496,6.6496,6.6664,6.6928,6.7265,6.7771,6.8204,6.854,6.8901,6.9093,6.9093,6.9093,6.9166,6.9382,6.9188,6.9041,6.8914,6.9036,6.8528,6.727,6.709,6.7188,6.7516,6.7858,6.8101,6.8295,6.8441,6.8253,6.7795,6.7605,6.715,6.6496,6.6713,6.6688,6.6496,6.6736,6.688,6.7,6.7,6.7314,6.7771,6.7578,6.741,6.7337,6.7458,6.7266,6.7049,6.7386,6.7626,6.7699,6.7169,6.7145,6.7193,6.664,6.6496,6.6496,6.6496,6.6496,6.6496,6.6496,6.6496,6.6496,6.6496,6.6496,6.6496,6.6496,6.6496,6.6496,6.6496,6.6496,6.6354,6.6,0.0,6.5682,6.5641,6.509,6.4366,6.3457,6.3031,6.2459,6.1489,6.1324,6.1432,6.1955,6.2078,6.1828,6.1115,6.2205,6.3211,6.4075,6.4748,6.4887,6.4393,6.4534,6.4962,6.5659,6.6721,6.7336,6.7575,6.7786,6.7971,6.8054,6.8292,6.845,6.8581,6.8791,6.8502,6.7786,6.6756,6.5687,6.4637,6.3628,6.3007,6.2679,6.6496,6.6496,6.6496,6.6496,6.6785,6.7121,6.7482,6.8155,6.8733,6.9093,6.9478,6.9695,6.9695,6.9695,6.9695,6.9695,6.9695,6.9549,6.9183,6.95,6.9378,6.862,6.824,6.8217,6.8596,6.8963,6.9158,6.9158,6.9524,6.9142,6.8084,6.8084,6.753,6.6496,6.6688,6.664,6.652,6.6857,6.7215,6.7548,6.7717,6.8127,6.8586,6.8417,6.8105,6.7819,6.8035,6.7867,6.7602,6.7987,6.8204,6.8228,6.7506,6.7313,6.7241,6.688,6.6857,6.6977,6.6785,6.676,6.6712,6.652,6.6496,6.6496,6.6496,6.6616,6.6688,6.652,6.6616,6.676,6.676,6.676,6.676,6.676,6.6424,6.628,6.6472,6.5495,6.4618,6.4246,6.3572,6.299,6.2635,6.2407,6.2403,6.2778,6.3484,6.3663,6.3237,6.4407,6.5256,6.5616,6.6866,6.7414,6.7101,6.6768,6.6831,6.7302,6.8055,6.8397,6.8397,6.8397,6.8581,6.8948,6.8948,6.9158,6.9498,6.9498,6.9053,6.8341,6.7552,6.6409,6.5122,6.4198,6.3492,6.2946,6.6496,6.6496,6.6496,6.6496,6.7386,6.8084,6.8108,6.9021,6.9695,6.9695,6.9695,6.9695,6.9695,6.9695,6.9695,6.9695,6.9695,6.9695,6.9695,6.9695,6.9695,6.9695,6.9695,6.9695,6.9695,6.9695,6.9695,6.9695,6.9695,6.9166,6.8108,6.8108,6.7507,6.652,6.7073,6.7025,6.6568,6.765,6.8102,6.8158,6.8669,6.9229,6.9668,6.9107,6.8921,6.8829,6.83,6.8108,6.8108,6.8108,6.8492,6.8733,6.765,6.7313,6.7313,6.7313,6.7675,6.7987,6.7458,6.7289,6.7169,6.6616,6.6496,6.6496,6.6496,6.6905,6.7145,6.664,6.6952,6.7313,6.7313,6.7313,6.7313,6.7313,6.7313,6.7121,6.6568,6.5187,6.422,6.422,6.3289,6.2654,6.2629,6.3069,6.3332,6.3332,6.4325,6.5365,6.6468,6.7018,6.7795,6.8879,6.838,6.887,7.0384,6.9335,6.9045,6.9498,6.9524,6.9524,6.9524,6.9524,6.9524,6.9524,6.9524,6.9498,6.9498,6.9498,6.9498,6.9393,6.8243,6.7473,6.6782,6.5068,6.409,6.3567,6.7554,6.7626,6.7626,6.7626,6.7867,6.8228,6.8588,6.8925,6.9286,6.9647,6.9695,6.9695,6.9695,6.9695,6.9695,6.9695,6.9695,6.9695,6.9695,6.9695,6.9695,6.9695,6.9695,6.9695,6.9695,6.9695,6.9695,6.9695,6.9695,6.9334,6.8661,6.8661,6.8083,6.7097,6.7626,6.7554,6.7121,6.7819,6.8513,6.923,6.94,6.9741,7.0179,7.0009,6.9502,6.8925,6.9142,6.8973,6.8733,6.9093,6.9334,6.9334,6.8636,6.7891,6.7313,6.7313,6.7169,6.6929,6.6785,6.6737,6.6688,6.652,6.6496,6.6496,6.6496,6.6905,6.7265,6.7097,6.7482,6.7867,6.7867,6.7867,6.7747,6.7361,6.7313,6.7241,6.7097,6.6987,6.6818,6.6424,6.6417,6.6164,6.5415,6.5451,6.5541,6.5541,6.5842,6.6668,6.8104,6.7982,6.8192,6.8881,6.9832,7.0404,7.0458,6.9743,6.9613,7.0146,7.0512,7.069,7.069,7.069,7.069,7.0667,7.0302,7.0146,7.012,6.968,6.9289,6.8896,6.8555,6.8081,6.7446,6.6499,6.6339,6.6339,6.8059,6.8084,6.8084,6.8084,6.8276,6.854,6.8853,6.9093,6.9334,6.9647,6.9695,6.9695,6.9695,6.9695,6.9695,6.9695,6.9695,6.9695,6.9695,6.9695,6.9695,6.9695,6.9695,6.9695,6.9695,6.9695,6.9695,6.9695,6.9695,6.943,6.8901,6.8901,6.8444,6.7626,6.7963,6.7939,6.765,6.8204,6.9019,7.0002,7.0198,7.0586,7.1024,7.0808,7.0227,6.9503,6.9647,6.9358,6.8949,6.9286,6.9238,6.9021,6.8685,6.8276,6.7915,6.7915,6.7699,6.741,6.7194,6.6977,6.6784,6.6544,6.6496,6.6544,6.6761,6.7218,6.7554,6.7337,6.7723,6.8084,6.8084,6.8084,6.806,6.7939,6.7915,6.7843,6.765,6.7702,6.7676,6.733,6.7407,6.7192,6.6568,6.6518,6.6693,6.7092,6.714,6.7853,6.9445,6.9223,6.9408,7.0144,7.1103,7.1559,7.1402,7.1047,7.0905,7.1052,7.1361,7.1413,7.1207,7.1207,7.1207,7.1181,7.0845,7.0716,7.069,7.0304,6.9967,6.9654,6.9446,6.9001,6.8348,6.7561,6.7349,6.7238,6.8228,6.8228,6.8228,6.8228,6.8661,6.8973,6.8973,6.9382,6.9695,6.9695,6.9695,6.9695,6.9695,6.9695,6.9695,6.9695,6.9695,6.9695,6.9695,6.9695,6.9695,6.9695,6.9695,6.9695,6.9695,6.9695,6.9695,6.9695,6.9695,6.9454,6.8973,6.8973,6.8685,6.8156,6.8204,6.8204,6.8204,6.8757,6.9548,7.0503,7.1018,7.1501,7.1957,7.1455,7.0928,7.0422,7.001,6.9527,6.9093,6.8997,6.8612,6.8156,6.8156,6.8468,6.8853,6.8901,6.8877,6.8733,6.8228,6.7699,6.7193,6.6737,6.6592,6.6688,6.7145,6.765,6.7891,6.7409,6.7723,6.8084,6.8084,6.8132,6.8324,6.8757,6.8877,6.8733,6.8228,6.7748,6.745,6.7498,6.7061,6.6792,6.6792,6.6792,6.719,6.8179,6.8276,6.8955,7.0416,7.0561,7.1017,7.2002,7.2026,7.2216,7.2644,7.2719,7.2516,7.208,7.2029,7.1747,7.1258,7.1233,7.1207,7.1207,7.1155,7.1129,7.1129,7.1078,7.1052,7.1,7.0561,7.0045,6.9446,6.8423,6.7764,6.7101,6.9262,6.9358,6.9358,6.9358,6.9454,6.9526,6.9526,6.9622,6.9695,6.9695,6.9695,6.9695,6.9695,6.9695,6.9695,6.9695,6.9695,6.9695,6.9695,6.9695,6.9695,6.9695,6.9695,6.9695,6.9695,6.9695,6.9695,6.9695,6.9695,6.9647,6.9526,6.9526,6.9238,6.8733,6.9166,6.9117,6.8757,6.9261,7.0054,7.1043,7.1151,7.1512,7.1981,7.1886,7.1479,7.1,7.0904,7.0806,7.0587,6.979,6.9165,6.8733,6.8733,6.854,6.8372,6.8781,6.8588,6.8252,6.8132,6.7699,6.7385,6.7675,6.7434,6.7049,6.6737,6.7073,6.7458,6.7337,6.7723,6.8084,6.8084,6.842,6.8636,6.8324,6.8636,6.8877,6.8757,6.8637,6.8707,6.9114,6.9063,6.9012,6.9012,6.9012,6.9085,6.933,6.9737,7.0123,7.0464,7.0898,7.1204,7.1399,7.1397,7.1456,7.1543,7.1977,7.2312,7.2618,7.2208,7.1926,7.1798,7.1387,7.1207,7.1181,7.0768,7.0561,7.0535,7.0045,6.9863,6.9889,7.0276,7.0328,7.0172,6.9938,7.0042,6.9915,6.9647,6.9695,6.9695,6.9695,6.9695,6.9695,6.9695,6.9695,6.9695,6.9695,6.9695,6.9695,6.9695,6.9695,6.9695,6.9695,6.9695,6.9695,6.9695,6.9695,6.9695,6.9695,6.9695,6.9695,6.9695,6.9695,6.9695,6.9695,6.9695,6.9695,6.9695,6.9938,6.9866,6.9648,7.018,7.0276,7.0009,7.0248,7.0826,7.1574,7.1587,7.1874,7.2314,7.21,7.1838,7.1551,7.1288,7.1044,7.0701,6.9924,6.9639,6.9572,6.9357,6.9237,6.9189,6.9262,6.8901,6.8468,6.8468,6.8083,6.7747,6.8011,6.7891,6.7675,6.765,6.7867,6.8059,6.8059,6.8083,6.818,6.842,6.8516,6.8588,6.8829,6.9093,6.9286,6.9286,6.9286,6.9382,6.9671,6.9695,6.9695,6.9695,6.9911,7.0079,7.0079,7.0585,7.0994,7.1259,7.1523,7.1783,7.1959,7.1728,7.159,7.1593,7.1593,7.1772,7.203,7.2029,7.1875,7.1618,7.1336,7.1207,7.1181,7.0897,7.0794,7.0768,7.0434,7.0304,7.0304,7.0379,7.0405,7.0379,7.0094,6.9785,6.9341,6.9695,6.9695,6.9695,6.9695,6.9695,6.9695,6.9695,6.9695,6.9695,6.9695,6.9695,6.9695,6.9695,6.9695,6.9695,6.9695,6.9695,6.9695,6.9695,6.9695,6.9695,6.9695,6.9792,6.9816,6.9816,6.9913,6.9913,6.9816,6.9816,6.9865,6.9938,7.0349,7.0543,7.0567,7.1,7.1216,7.1216,7.1213,7.15,7.2005,7.2,7.2261,7.2669,7.2266,7.2124,7.2076,7.1622,7.1111,7.0596,7.0053,7.0106,7.0333,6.9954,7.008,7.0349,7.0035,6.9648,6.9262,6.919,6.878,6.8371,6.8372,6.83,6.8372,6.8925,6.8901,6.8781,6.8781,6.8396,6.8228,6.8685,6.8468,6.854,6.943,6.9647,6.9695,6.9695,6.9695,6.9695,6.9695,6.9767,6.9863,6.9959,7.0393,7.0633,7.0633,7.1138,7.162,7.2078,7.2173,7.2363,7.2644,7.2157,7.1824,7.1721,7.1284,7.1052,7.1078,7.1618,7.1593,7.1052,7.0975,7.0923,7.0923,7.0923,7.0923,7.0923,7.0923,7.0923,7.0871,7.0431,7.025,7.0198,6.968,6.8922,6.8002,6.9695,6.9695,6.9695,6.9695,6.9695,6.9695,6.9695,6.9695,6.9695,6.9695,6.9695,6.9695,6.9695,6.9695,6.9695,6.9695,6.9695,6.9695,6.9695,6.9695,6.9695,6.9695,7.0083,7.0301,7.0301,7.0759,7.0759,7.0301,7.0301,7.0543,7.1,7.1072,7.1096,7.1096,7.1168,7.1216,7.1215,7.1199,7.151,7.1979,7.1931,7.2243,7.2693,7.2646,7.2622,7.2598,7.2502,7.2193,7.1711,7.1165,7.071,7.038,7.0333,7.0335,7.0482,7.0877,7.0951,7.0806,7.0325,6.984,6.9477,6.9479,6.9142,6.8925,6.9478,6.8877,6.8204,6.8204,6.8132,6.8108,6.818,6.854,6.8853,6.8997,6.9406,6.9695,6.9695,6.9695,6.9695,6.9695,7.0128,7.0585,7.1042,7.1138,7.1186,7.1186,7.1692,7.203,7.2102,7.246,7.252,7.2131,7.1593,7.1078,7.0613,7.0535,7.0509,7.0509,7.1052,7.1026,7.0483,6.9967,6.9732,6.9732,6.9732,6.9732,6.9732,6.9732,6.9732,6.9732,6.9654,6.9628,6.9602,6.9524,6.9393,6.9053,6.9695,6.9695,6.9695,6.9695,6.9695,6.9695,6.9695,6.9695,6.9695,6.9695,6.9695,6.9695,6.9695,6.9695,6.9816,7.0059,6.9865,6.9816,7.0059,7.0083,7.0204,7.0519,7.0735,7.0831,7.0831,7.1072,7.1216,7.1288,7.0976,7.0976,7.1216,7.1503,7.1646,7.1671,7.1909,7.2028,7.2051,7.2039,7.2184,7.2384,7.237,7.2491,7.2717,7.2717,7.2717,7.2717,7.2717,7.2575,7.2335,7.2109,7.1892,7.1656,7.1371,7.13,7.1278,7.1214,7.1216,7.1144,7.0904,7.0493,7.0082,7.0083,6.972,6.9406,6.9647,6.9334,6.8997,6.8997,6.8757,6.8636,6.8949,6.8949,6.8997,6.931,6.955,6.9695,6.9695,6.9959,7.0272,7.0561,7.0802,7.1042,7.1283,7.1571,7.174,7.174,7.2221,7.2484,7.2484,7.2701,7.2694,7.2439,7.1926,7.1541,7.131,7.1,7.0845,7.0845,7.1104,7.0923,7.0379,7.012,6.9811,6.9498,6.9498,6.9498,6.9498,6.9498,6.9498,6.9498,6.9498,6.9498,6.9498,6.9498,6.9498,6.9315]}]]